[[{"header":{"parameterUnit":"m.s-1","parameterCategory":1,"la1":30.6,"la2":28.766,"lo1":-90.7593,"lo2":-88.6598,"dy":0.0162,"dx":0.0183,"nx":116,"ny":114,"refTime":"2023-09-15T00:00:00:Z","depth":0,"parameterNumber":2,"parameterNumberName":"U-component_of_WINDS"},"data":[0.0,0.0,0.0,0.0,0.0,0.0,0.0,0.0,0.0,0.0,0.0,0.0,0.0,0.0,0.0,0.0,0.0,0.0,0.0,0.0,0.0,0.0,0.0,0.0,0.0,0.0,0.0,0.0,0.0,0.0,0.0,0.0,0.0,0.0,0.0,0.0,0.0,0.0,0.0,0.0,0.0,0.0,0.0,0.0,0.0,0.0,0.0,0.0,0.0,0.0,0.0,0.0,0.0,0.0,0.0,0.0,0.0,0.0,0.0,0.0,0.0,0.0,0.0,0.0,0.0,0.0,0.0,0.0,0.0,0.0,0.0,0.0,0.0,0.0,0.0,0.0,0.0,0.0,0.0,0.0,0.0,0.0,0.0,0.0,0.0,0.0,0.0,0.0,0.0,0.0,0.0,0.0,0.0,0.0,0.0,0.0,0.0,0.0,0.0,0.0,0.0,0.0,0.0,0.0,0.0,0.0,0.0,0.0,0.0,0.0,0.0,0.0,0.0,0.0,0.0,0.0,0.0,0.0,0.0,0.0,0.0,0.0,0.0,0.0,0.0,0.0,0.0,0.0,0.0,0.0,0.0,0.0,0.0,0.0,0.0,0.0,0.0,0.0,0.0,0.0,0.0,0.0,0.0,0.0,0.0,0.0,0.0,0.0,0.0,0.0,0.0,0.0,0.0,0.0,0.0,0.0,0.0,0.0,0.0,0.0,0.0,0.0,0.0,0.0,0.0,0.0,0.0,0.0,0.0,0.0,0.0,0.0,0.0,0.0,0.0,0.0,0.0,0.0,0.0,0.0,0.0,0.0,0.0,0.0,0.0,0.0,0.0,0.0,0.0,0.0,0.0,0.0,0.0,0.0,0.0,0.0,0.0,0.0,0.0,0.0,0.0,0.0,0.0,0.0,0.0,0.0,0.0,0.0,0.0,0.0,0.0,0.0,0.0,0.0,0.0,0.0,0.0,0.0,0.0,0.0,0.0,0.0,0.0,0.0,0.0,0.0,0.0,0.0,0.0,0.0,0.0,0.0,0.0,0.0,0.0,0.0,0.0,0.0,0.0,0.0,0.0,0.0,0.0,0.0,0.0,0.0,0.0,0.0,0.0,0.0,0.0,0.0,0.0,0.0,0.0,0.0,0.0,0.0,0.0,0.0,0.0,0.0,0.0,0.0,0.0,0.0,0.0,0.0,0.0,0.0,0.0,0.0,0.0,0.0,0.0,0.0,0.0,0.0,0.0,0.0,0.0,0.0,0.0,0.0,0.0,0.0,0.0,0.0,0.0,0.0,0.0,0.0,0.0,0.0,0.0,0.0,0.0,0.0,0.0,0.0,0.0,0.0,0.0,0.0,0.0,0.0,0.0,0.0,0.0,0.0,0.0,0.0,0.0,0.0,0.0,0.0,0.0,0.0,0.0,0.0,0.0,0.0,0.0,0.0,0.0,0.0,0.0,0.0,0.0,0.0,0.0,0.0,0.0,0.0,0.0,0.0,0.0,0.0,0.0,0.0,0.0,0.0,0.0,0.0,0.0,0.0,0.0,0.0,0.0,0.0,0.0,0.0,0.0,0.0,0.0,0.0,0.0,0.0,0.0,0.0,0.0,0.0,0.0,0.0,0.0,0.0,0.0,0.0,0.0,0.0,0.0,0.0,0.0,0.0,0.0,0.0,0.0,0.0,0.0,0.0,0.0,0.0,0.0,0.0,0.0,0.0,0.0,0.0,0.0,0.0,0.0,0.0,0.0,0.0,0.0,0.0,0.0,0.0,0.0,0.0,0.0,0.0,0.0,0.0,0.0,0.0,0.0,0.0,0.0,0.0,0.0,0.0,0.0,0.0,0.0,0.0,0.0,0.0,0.0,0.0,0.0,0.0,0.0,0.0,0.0,0.0,0.0,0.0,0.0,0.0,0.0,0.0,0.0,0.0,0.0,0.0,0.0,0.0,0.0,0.0,0.0,0.0,0.0,0.0,0.0,0.0,0.0,0.0,0.0,0.0,0.0,0.0,0.0,0.0,0.0,0.0,0.0,0.0,0.0,0.0,0.0,0.0,0.0,0.0,0.0,0.0,0.0,0.0,0.0,0.0,0.0,0.0,0.0,0.0,0.0,0.0,0.0,0.0,0.0,0.0,0.0,0.0,0.0,0.0,0.0,0.0,0.0,0.0,0.0,0.0,0.0,0.0,0.0,0.0,0.0,0.0,0.0,0.0,0.0,0.0,0.0,0.0,0.0,0.0,0.0,0.0,0.0,0.0,0.0,0.0,0.0,0.0,0.0,0.0,0.0,0.0,0.0,0.0,0.0,0.0,0.0,0.0,0.0,0.0,0.0,0.0,0.0,0.0,0.0,0.0,0.0,0.0,0.0,0.0,0.0,0.0,0.0,0.0,0.0,0.0,0.0,0.0,0.0,0.0,0.0,0.0,0.0,0.0,0.0,0.0,0.0,0.0,0.0,0.0,0.0,0.0,0.0,0.0,0.0,0.0,0.0,0.0,0.0,0.0,0.0,0.0,0.0,0.0,0.0,0.0,0.0,0.0,0.0,0.0,0.0,0.0,0.0,0.0,0.0,0.0,0.0,0.0,0.0,0.0,0.0,0.0,0.0,0.0,0.0,0.0,0.0,0.0,0.0,0.0,0.0,0.0,0.0,0.0,0.0,0.0,0.0,0.0,0.0,0.0,0.0,0.0,0.0,0.0,0.0,0.0,0.0,0.0,0.0,0.0,0.0,0.0,0.0,0.0,0.0,0.0,0.0,0.0,0.0,0.0,0.0,0.0,0.0,0.0,0.0,0.0,0.0,0.0,0.0,0.0,0.0,0.0,0.0,0.0,0.0,0.0,0.0,0.0,0.0,0.0,0.0,0.0,0.0,0.0,0.0,0.0,0.0,0.0,0.0,0.0,0.0,0.0,0.0,0.0,0.0,0.0,0.0,0.0,0.0,0.0,0.0,0.0,0.0,0.0,0.0,0.0,0.0,0.0,0.0,0.0,0.0,0.0,0.0,0.0,0.0,0.0,0.0,0.0,0.0,0.0,0.0,0.0,0.0,0.0,0.0,0.0,0.0,0.0,0.0,0.0,0.0,0.0,0.0,0.0,0.0,0.0,0.0,0.0,0.0,0.0,0.0,0.0,0.0,0.0,0.0,0.0,0.0,0.0,0.0,0.0,0.0,0.0,0.0,0.0,0.0,0.0,0.0,0.0,0.0,0.0,0.0,0.0,0.0,0.0,0.0,0.0,0.0,0.0,0.0,0.0,0.0,0.0,0.0,0.0,0.0,0.0,0.0,0.0,0.0,0.0,0.0,0.0,0.0,0.0,0.0,0.0,0.0,0.0,0.0,0.0,0.0,0.0,0.0,0.0,0.0,0.0,0.0,0.0,0.0,0.0,0.0,0.0,0.0,0.0,0.0,0.0,0.0,0.0,0.0,0.0,0.0,0.0,0.0,0.0,0.0,0.0,0.0,0.0,0.0,0.0,0.0,0.0,0.0,0.0,0.0,0.0,0.0,0.0,0.0,0.0,0.0,0.0,0.0,0.0,0.0,0.0,0.0,0.0,0.0,0.0,0.0,0.0,0.0,0.0,0.0,0.0,0.0,0.0,0.0,0.0,0.0,0.0,0.0,0.0,0.0,0.0,0.0,0.0,0.0,0.0,0.0,0.0,0.0,0.0,0.0,0.0,0.0,0.0,0.0,0.0,0.0,0.0,0.0,0.0,0.0,0.0,0.0,0.0,0.0,0.0,0.0,0.0,0.0,0.0,0.0,0.0,0.0,0.0,0.0,0.0,0.0,0.0,0.0,0.0,0.0,0.0,0.0,0.0,0.0,0.0,0.0,0.0,0.0,0.0,0.0,0.0,0.0,0.0,0.0,0.0,0.0,0.0,0.0,0.0,0.0,0.0,0.0,0.0,0.0,0.0,0.0,0.0,0.0,0.0,0.0,0.0,0.0,0.0,0.0,0.0,0.0,0.0,0.0,0.0,0.0,0.0,0.0,0.0,0.0,0.0,0.0,0.0,0.0,0.0,0.0,0.0,0.0,0.0,0.0,0.0,0.0,0.0,0.0,0.0,0.0,0.0,0.0,0.0,0.0,0.0,0.0,0.0,0.0,0.0,0.0,0.0,0.0,0.0,0.0,0.0,0.0,0.0,0.0,0.0,0.0,0.0,0.0,0.0,0.0,0.0,0.0,0.0,0.0,0.0,0.0,0.0,0.0,0.0,0.0,0.0,0.0,0.0,0.0,0.0,0.0,0.0,0.0,0.0,0.0,0.0,0.0,0.0,0.0,0.0,0.0,0.0,0.0,0.0,0.0,0.0,0.0,0.0,0.0,0.0,0.0,0.0,0.0,0.0,0.0,0.0,0.0,0.0,0.0,0.0,0.0,0.0,0.0,0.0,0.0,0.0,0.0,0.0,0.0,0.0,0.0,0.0,0.0,0.0,0.0,0.0,0.0,0.0,0.0,0.0,0.0,0.0,0.0,0.0,0.0,0.0,0.0,0.0,0.0,0.0,0.0,0.0,0.0,0.0,0.0,0.0,0.0,0.0,0.0,0.0,0.0,0.0,0.0,0.0,0.0,0.0,0.0,0.0,0.0,0.0,0.0,0.0,0.0,0.0,0.0,0.0,0.0,0.0,0.0,0.0,0.0,0.0,0.0,0.0,0.0,0.0,0.0,0.0,0.0,0.0,0.0,0.0,0.0,0.0,0.0,0.0,0.0,0.0,0.0,0.0,0.0,0.0,0.0,0.0,0.0,0.0,0.0,0.0,0.0,0.0,0.0,0.0,0.0,0.0,0.0,0.0,0.0,0.0,0.0,0.0,0.0,0.0,0.0,0.0,0.0,0.0,0.0,0.0,0.0,0.0,0.0,0.0,0.0,0.0,0.0,0.0,0.0,0.0,0.0,0.0,0.0,0.0,0.0,0.0,0.0,0.0,0.0,0.0,0.0,0.0,0.0,0.0,0.0,0.0,0.0,0.0,0.0,0.0,0.0,0.0,0.0,0.0,0.0,0.0,0.0,0.0,0.0,0.0,0.0,0.0,0.0,0.0,0.0,0.0,0.0,0.0,0.0,0.0,0.0,0.0,0.0,0.0,0.0,0.0,0.0,0.0,0.0,0.0,0.0,0.0,0.0,0.0,0.0,0.0,0.0,0.0,0.0,0.0,0.0,0.0,0.0,0.0,0.0,0.0,0.0,0.0,0.0,0.0,0.0,0.0,0.0,0.0,0.0,0.0,0.0,0.0,0.0,0.0,0.0,0.0,0.0,0.0,0.0,0.0,0.0,0.0,0.0,0.0,0.0,0.0,0.0,0.0,0.0,0.0,0.0,0.0,0.0,0.0,0.0,0.0,0.0,0.0,0.0,0.0,0.0,0.0,0.0,0.0,0.0,0.0,0.0,0.0,0.0,0.0,0.0,0.0,0.0,0.0,0.0,0.0,0.0,0.0,0.0,0.0,0.0,0.0,0.0,0.0,0.0,0.0,0.0,0.0,0.0,0.0,0.0,0.0,0.0,0.0,0.0,0.0,0.0,0.0,0.0,0.0,0.0,0.0,0.0,0.0,0.0,0.0,0.0,0.0,0.0,0.0,0.0,0.0,0.0,0.0,0.0,0.0,0.0,0.0,0.0,0.0,0.0,0.0,0.0,0.0,0.0,0.0,0.0,0.0,0.0,0.0,0.0,0.0,0.0,0.0,0.0,0.0,0.0,0.0,0.0,0.0,0.0,0.0,0.0,0.0,0.0,0.0,0.0,0.0,0.0,0.0,0.0,0.0,0.0,0.0,0.0,0.0,0.0,0.0,0.0,0.0,0.0,0.0,0.0,0.0,0.0,0.0,0.0,0.0,0.0,0.0,0.0,0.0,0.0,0.0,0.0,0.0,0.0,0.0,0.0,0.0,0.0,0.0,0.0,0.0,0.0,0.0,0.0,0.0,0.0,0.0,0.0,0.0,0.0,0.0,0.0,0.0,0.0,0.0,0.0,0.0,0.0,0.0,0.0,0.0,0.0,0.0,0.0,0.0,0.0,0.0,0.0,0.0,0.0,0.0,0.0,0.0,0.0,0.0,0.0,0.0,0.0,0.0,0.0,0.0,0.0,0.0,0.0,0.0,-2.4188,0.0,0.0,0.0,0.0,0.0,0.0,0.0,0.0,0.0,0.0,0.0,0.0,0.0,0.0,0.0,0.0,0.0,0.0,0.0,0.0,0.0,0.0,0.0,0.0,0.0,0.0,0.0,0.0,0.0,0.0,0.0,0.0,0.0,0.0,0.0,0.0,0.0,0.0,0.0,-1.7428,-1.751,-1.7269,-1.8053,-1.8518,-1.8676,0.0,0.0,0.0,0.0,0.0,0.0,0.0,0.0,0.0,0.0,0.0,0.0,0.0,0.0,0.0,0.0,0.0,0.0,0.0,0.0,0.0,0.0,0.0,0.0,0.0,0.0,0.0,0.0,0.0,0.0,0.0,0.0,0.0,0.0,0.0,0.0,0.0,0.0,0.0,0.0,0.0,0.0,0.0,0.0,0.0,0.0,0.0,0.0,0.0,0.0,0.0,0.0,0.0,0.0,0.0,0.0,0.0,0.0,0.0,0.0,0.0,0.0,0.0,0.0,0.0,0.0,0.0,0.0,0.0,0.0,0.0,-2.3136,0.0,0.0,0.0,0.0,0.0,0.0,0.0,0.0,0.0,0.0,0.0,0.0,0.0,0.0,0.0,0.0,0.0,0.0,0.0,0.0,0.0,0.0,0.0,0.0,-1.0596,-1.2057,-1.1589,0.0,0.0,0.0,0.0,0.0,0.0,0.0,0.0,-1.6394,-1.621,-1.5829,-1.6558,-1.7046,-1.7252,-1.759,-1.7525,-1.717,-1.8617,0.0,0.0,0.0,0.0,0.0,0.0,0.0,0.0,0.0,0.0,0.0,0.0,0.0,0.0,0.0,0.0,0.0,0.0,0.0,0.0,0.0,0.0,0.0,0.0,0.0,0.0,0.0,0.0,0.0,0.0,0.0,0.0,0.0,0.0,0.0,0.0,0.0,0.0,0.0,0.0,0.0,0.0,0.0,0.0,0.0,0.0,0.0,0.0,0.0,0.0,0.0,0.0,0.0,0.0,0.0,0.0,0.0,0.0,0.0,0.0,0.0,0.0,0.0,-2.1138,-2.1412,-2.1278,-2.161,-2.1348,-2.0543,-2.1596,-2.1583,-2.1007,-2.251,0.0,0.0,0.0,0.0,0.0,0.0,0.0,0.0,0.0,0.0,0.0,0.0,0.0,0.0,0.0,0.0,0.0,0.0,0.0,0.0,0.0,-1.0651,-1.0841,-1.1688,-1.1669,-1.2003,0.0,0.0,0.0,0.0,0.0,0.0,-1.4629,-1.4478,-1.4883,-1.5873,-1.6102,-1.6228,-1.6271,-1.6359,-1.6353,-1.6343,-1.8322,-1.8717,-1.7954,0.0,0.0,0.0,0.0,0.0,0.0,0.0,0.0,0.0,0.0,0.0,0.0,0.0,0.0,0.0,0.0,0.0,0.0,0.0,0.0,0.0,0.0,0.0,0.0,0.0,0.0,0.0,0.0,0.0,0.0,0.0,0.0,0.0,0.0,0.0,0.0,0.0,0.0,0.0,0.0,0.0,-1.9261,-2.0028,0.0,0.0,0.0,0.0,0.0,0.0,0.0,0.0,0.0,0.0,0.0,0.0,0.0,-2.122,-2.1346,-2.1711,-2.1338,-2.0261,-2.0987,-2.0981,-2.0297,-2.1065,-2.093,-2.0153,-1.9571,0.0,-2.0645,-2.1612,0.0,0.0,0.0,0.0,0.0,0.0,0.0,0.0,0.0,0.0,0.0,0.0,0.0,0.0,0.0,0.0,0.0,0.0,0.0,0.0,0.0,-1.1007,-1.1391,-1.1692,-1.2122,-1.2311,-1.2213,0.0,0.0,0.0,0.0,-1.3614,-1.445,-1.4378,-1.4949,-1.6181,-1.6342,-1.6612,-1.6967,-1.7114,-1.7065,-1.6974,-1.803,-1.809,-1.7389,-1.88,0.0,0.0,0.0,0.0,0.0,0.0,0.0,0.0,0.0,0.0,0.0,0.0,0.0,0.0,0.0,0.0,0.0,0.0,0.0,0.0,0.0,0.0,0.0,0.0,0.0,0.0,0.0,0.0,0.0,0.0,0.0,0.0,0.0,0.0,0.0,0.0,0.0,0.0,0.0,-1.8854,-1.9542,-1.9879,-2.0276,-2.0482,0.0,0.0,0.0,0.0,0.0,0.0,0.0,0.0,0.0,-2.0287,-2.0991,-2.0756,-1.9494,-2.0396,-2.029,-1.9245,-1.9742,-1.979,-1.9431,-1.9968,-2.006,-1.9667,-1.9327,-1.9442,-1.989,-2.0461,-2.0726,-2.0882,0.0,0.0,0.0,0.0,-1.9276,-1.9521,0.0,0.0,0.0,0.0,0.0,0.0,0.0,0.0,0.0,0.0,0.0,0.0,-1.1098,-1.1779,-1.2214,-1.2176,-1.2727,-1.2688,-1.1909,-1.2147,0.0,0.0,-1.2241,-1.2828,-1.3766,-1.4351,-1.515,-1.6287,-1.6767,-1.7259,-1.7694,-1.7957,-1.7957,-1.7694,-1.7911,-1.7516,-1.6836,-1.8481,-1.8131,-1.6531,0.0,0.0,0.0,0.0,0.0,0.0,0.0,0.0,0.0,0.0,0.0,0.0,0.0,0.0,0.0,0.0,0.0,0.0,0.0,0.0,0.0,0.0,0.0,0.0,0.0,0.0,0.0,0.0,0.0,0.0,0.0,0.0,0.0,0.0,0.0,0.0,0.0,-1.8544,-1.9042,-1.9201,-1.9694,-1.9907,0.0,0.0,0.0,0.0,0.0,0.0,-2.0841,-2.08,-2.0293,-1.9367,-2.0431,-2.0129,-1.8196,-1.9337,-1.9522,-1.8718,-1.8858,-1.8965,-1.9038,-1.9185,-1.9299,-1.9424,-1.9424,-1.9424,-1.9414,-1.9638,-1.965,-1.9664,-2.0491,-2.0452,-1.9799,-1.9294,-1.9205,-1.9286,0.0,0.0,0.0,0.0,0.0,0.0,0.0,0.0,0.0,0.0,0.0,-1.2098,-1.2296,-1.3019,-1.346,-1.3432,-1.345,-1.3131,-1.2325,-1.2271,-1.1956,-1.1179,-1.0999,-1.1111,-1.1552,-1.362,-1.5101,-1.5934,-1.7255,-1.7975,-1.7964,-1.8272,-1.822,-1.7964,-1.7964,-1.7395,-1.6427,-1.7779,-1.723,-1.5471,-1.5591,0.0,0.0,0.0,0.0,0.0,0.0,0.0,0.0,0.0,0.0,0.0,0.0,0.0,0.0,0.0,0.0,0.0,0.0,0.0,0.0,0.0,0.0,0.0,0.0,0.0,0.0,0.0,0.0,0.0,0.0,0.0,0.0,0.0,0.0,0.0,0.0,0.0,0.0,-1.6772,-1.7835,0.0,0.0,0.0,0.0,-1.9721,-1.979,-1.9644,-1.9214,-1.8884,-1.862,-1.857,-1.8866,-1.8964,-1.8867,-1.9266,-1.9435,-1.9377,-1.9052,-1.9072,-1.9339,-1.9065,-1.9098,-1.9424,-1.9424,-1.9424,-1.9417,-1.9414,-1.9567,-1.9743,-1.9243,-1.9339,-1.9711,-1.8799,-1.9005,-1.9742,0.0,0.0,0.0,0.0,0.0,0.0,0.0,0.0,-1.1022,-1.151,-1.2043,-1.2367,-1.2381,-1.3578,-1.4331,-1.4262,-1.4751,-1.4702,-1.3912,-1.3375,-1.2723,-1.192,-1.1312,-1.1429,-1.2349,-1.4308,-1.5671,-1.6328,-1.7469,-1.8069,-1.8272,-1.8593,-1.8541,-1.8272,-1.8272,-1.7936,-1.7429,-1.8085,-1.7746,-1.6713,-1.6877,-1.617,0.0,0.0,0.0,0.0,0.0,0.0,0.0,0.0,0.0,0.0,0.0,0.0,0.0,0.0,0.0,0.0,0.0,0.0,0.0,0.0,0.0,0.0,0.0,0.0,0.0,0.0,0.0,0.0,0.0,0.0,0.0,0.0,0.0,0.0,0.0,0.0,0.0,-1.7153,-1.7629,0.0,-1.7965,-1.8315,-1.8496,-1.8369,-1.8749,-1.8964,-1.8961,-1.8837,-1.8768,-1.8758,-1.9052,-1.9118,-1.8925,-1.9406,-1.9646,-1.9646,-1.9726,-1.982,-1.992,-1.9813,-1.982,-1.992,-1.992,-1.992,-1.992,-1.992,-1.9765,-1.957,-1.9747,-1.9948,-2.0139,-2.0202,-2.039,-2.0676,0.0,0.0,0.0,0.0,0.0,0.0,0.0,0.0,-1.0377,-1.1014,-1.212,-1.2897,-1.3042,-1.4336,-1.51,-1.4984,-1.5537,-1.5439,-1.4383,-1.3809,-1.3037,-1.1956,-1.1655,-1.2144,-1.3492,-1.4817,-1.5821,-1.652,-1.7515,-1.8069,-1.8272,-1.881,-1.8862,-1.8593,-1.8593,-1.8489,-1.8338,-1.8489,-1.8233,-1.774,-1.7705,-1.6955,-1.5791,0.0,0.0,0.0,0.0,0.0,0.0,0.0,0.0,0.0,0.0,0.0,0.0,0.0,0.0,0.0,0.0,0.0,0.0,0.0,0.0,0.0,0.0,0.0,0.0,0.0,0.0,0.0,0.0,0.0,0.0,0.0,0.0,0.0,0.0,0.0,-1.6909,-1.7632,-1.7935,-1.8071,-1.8174,-1.8201,-1.8204,-1.8204,-1.8585,-1.8945,-1.9181,-1.9182,-1.9283,-1.9385,-1.9564,-1.9566,-1.9366,-1.9753,-1.9947,-1.9947,-2.014,-2.0173,-2.0173,-2.0173,-2.0127,-1.9953,-2.0147,-2.012,-1.9953,-2.0154,-2.0007,-1.9718,-2.0351,-2.0695,-2.0812,-2.1052,-2.1176,-2.1176,0.0,0.0,0.0,0.0,0.0,0.0,0.0,-0.8682,-0.9469,-1.0452,-1.2267,-1.3645,-1.414,-1.5187,-1.5731,-1.5535,-1.5737,-1.5228,-1.3652,-1.3525,-1.2807,-1.122,-1.192,-1.3091,-1.4684,-1.4974,-1.5524,-1.6324,-1.7437,-1.7964,-1.8016,-1.8855,-1.9123,-1.8869,-1.8869,-1.8869,-1.8876,-1.8869,-1.8705,-1.8345,-1.7789,-1.7188,-1.6564,0.0,0.0,0.0,0.0,0.0,0.0,0.0,0.0,0.0,0.0,0.0,0.0,0.0,0.0,0.0,0.0,0.0,0.0,0.0,0.0,0.0,0.0,0.0,0.0,0.0,0.0,0.0,0.0,0.0,0.0,0.0,0.0,0.0,-1.5337,-1.6629,-1.7753,-1.8025,-1.8594,-1.9078,-1.938,-1.9415,-1.9422,-1.9422,-1.9443,-1.9528,-1.9822,-1.983,-1.9952,-2.0246,-2.0234,-2.0207,-2.0207,-2.0173,-2.0247,-2.0247,-2.0193,-2.0261,-2.0261,-2.0261,-1.9953,-1.9452,-1.9953,-1.988,-1.9407,-1.9967,-2.02,-2.0254,-2.096,-2.1375,-2.1608,-2.124,-2.1127,-2.1067,0.0,0.0,0.0,0.0,0.0,0.0,0.0,-0.7021,-0.7368,-0.8151,-0.9468,-1.0784,-1.1971,-1.3024,-1.4143,-1.5369,-1.5589,-1.5267,-1.4406,-1.3839,-1.3055,-1.2029,-1.2753,-1.3664,-1.4696,-1.5321,-1.5983,-1.6577,-1.6895,-1.7265,-1.7747,-1.7957,-1.8003,-1.7957,-1.7957,-1.7859,-1.7655,-1.7852,-1.801,-1.8146,-1.862,-1.8432,-1.7778,0.0,0.0,0.0,0.0,0.0,0.0,0.0,0.0,0.0,0.0,0.0,0.0,0.0,0.0,0.0,0.0,0.0,0.0,0.0,0.0,0.0,0.0,0.0,0.0,0.0,0.0,0.0,0.0,0.0,0.0,0.0,0.0,-1.7605,-1.7777,-1.818,-1.8745,-1.9527,-1.9549,-1.9576,-1.9661,-1.9716,-1.9682,-1.9682,-1.9931,-2.0106,-2.0189,-1.9723,-1.9573,-1.9661,-1.9625,-1.9606,-1.9606,-2.0241,-2.0555,-2.0555,-2.0768,-2.0869,-2.0869,-2.0869,-2.0526,-1.9947,-2.0039,-1.9769,-1.9212,-1.9607,-1.9921,-2.019,-2.0936,-2.0953,-2.0651,-2.0999,-2.0818,-2.0342,0.0,0.0,0.0,0.0,0.0,0.0,0.0,-0.5769,-0.6251,-0.697,-0.8229,-0.9501,-1.0614,-1.1471,-1.2521,-1.3972,-1.4413,-1.4367,-1.3854,-1.3318,-1.3103,-1.3308,-1.3767,-1.4395,-1.5191,-1.5656,-1.6045,-1.6365,-1.6571,-1.6889,-1.7206,-1.7477,-1.7582,-1.7582,-1.7582,-1.7529,-1.7378,-1.7529,-1.7694,-1.7905,-1.8377,-1.8468,-1.8299,-1.8299,-1.7896,-1.7323,-1.7699,-1.6926,-1.5862,-1.6674,0.0,0.0,0.0,0.0,0.0,0.0,0.0,0.0,0.0,0.0,0.0,0.0,0.0,0.0,0.0,0.0,0.0,0.0,0.0,0.0,0.0,0.0,0.0,0.0,-1.7075,-1.8071,-1.8543,-1.8837,-1.9387,-2.03,-2.0269,-2.0202,-2.0395,-2.0416,-2.0372,-2.0372,-2.0596,-2.069,-2.069,-2.0351,-2.0037,-1.9787,-2.0147,-2.0228,-1.998,-2.0788,-2.1223,-2.1223,-2.1204,-2.1219,-2.1219,-2.0896,-2.0503,-2.003,-2.0,-1.9656,-1.9112,-1.9395,-1.9677,0.0,0.0,0.0,0.0,0.0,-2.0273,-1.9615,0.0,0.0,0.0,0.0,0.0,0.0,0.0,-0.4858,-0.5627,-0.6303,-0.7691,-0.8837,-0.9534,-1.0093,-1.0855,-1.1841,-1.2598,-1.286,-1.2503,-1.2318,-1.2987,-1.4648,-1.4714,-1.5083,-1.5873,-1.5891,-1.5891,-1.5891,-1.6365,-1.6624,-1.6624,-1.716,-1.7424,-1.7424,-1.7265,-1.7206,-1.7206,-1.7206,-1.7259,-1.7312,-1.7477,-1.7784,-1.8209,-1.8053,-1.7645,-1.7194,-1.7473,-1.6422,-1.496,-1.5475,0.0,0.0,0.0,0.0,0.0,0.0,0.0,0.0,0.0,0.0,0.0,0.0,0.0,0.0,0.0,0.0,0.0,0.0,0.0,0.0,0.0,0.0,0.0,0.0,-1.6062,-1.7338,-1.8152,-1.8681,-1.9354,-2.0406,-2.0491,-2.0677,-2.106,-2.1059,-2.1003,-2.1038,-2.1015,-2.0994,-2.1001,0.0,0.0,0.0,0.0,-2.1186,-2.0604,-2.1434,-2.1859,-2.1852,-2.1522,-2.1317,-2.1324,-2.0595,-2.0135,-1.9894,-1.9783,-1.9446,-1.902,-1.9307,-1.948,-1.9557,-1.9903,-2.0399,-2.0906,-2.0201,-1.9585,-1.9066,0.0,0.0,0.0,0.0,0.0,0.0,0.0,-0.4162,-0.4312,-0.4551,-0.5158,-0.6142,-0.7629,-0.8087,-0.8994,-1.0654,-1.0649,-1.0936,-1.1815,-1.1845,-1.2686,-1.4599,-1.4714,-1.5083,-1.5873,-1.5891,-1.5891,-1.5891,-1.5992,-1.6045,-1.6045,-1.6152,-1.6205,-1.6205,-1.5292,-1.4863,-1.4863,-1.4863,-1.5125,-1.5601,-1.6511,-1.7193,-1.7617,-1.6631,-1.6189,-1.6102,-1.6152,-1.4797,-1.3196,-1.4908,-1.3956,-1.2278,-1.3216,0.0,0.0,0.0,0.0,0.0,0.0,0.0,0.0,0.0,0.0,0.0,0.0,0.0,0.0,0.0,0.0,0.0,0.0,0.0,0.0,-1.4504,-1.468,-1.5416,-1.7322,-1.7256,-1.7598,-1.9374,-1.9367,-1.9546,-2.032,-1.9924,-1.9754,-1.9919,-1.9904,-1.9765,-1.9517,-1.9511,-1.9424,-1.9323,-1.9941,-2.0253,-2.0144,-2.0817,-2.1125,-2.1125,0.0,0.0,-2.0999,-2.0535,-2.0008,-1.9447,-1.9415,-1.9035,-1.851,-1.9145,-1.9304,-1.9179,-1.9536,-1.9954,-2.0157,-1.9026,-1.8836,-1.9012,0.0,0.0,0.0,0.0,0.0,0.0,0.0,-0.3932,-0.4107,-0.4064,-0.43,-0.4908,-0.5953,-0.6145,-0.6907,-0.8592,-0.8985,-0.964,-1.086,-1.0759,-1.1506,-1.3469,-1.2977,-1.3241,-1.4583,-1.4583,-1.4745,-1.503,-1.5618,-1.5891,-1.5891,-1.5891,-1.5891,-1.5838,-1.4869,-1.4385,-1.4385,-1.3948,-1.383,-1.3986,-1.4578,-1.4894,-1.5049,-1.5618,-1.5447,-1.4967,-1.4967,-1.3675,-1.2099,-1.3128,-1.2082,-1.048,-1.1065,-1.1532,-1.1821,0.0,0.0,0.0,0.0,0.0,0.0,0.0,0.0,0.0,0.0,0.0,0.0,0.0,0.0,-1.1782,0.0,0.0,-1.2644,-1.2843,-1.3303,-1.4055,-1.5345,-1.5329,-1.6293,-1.9168,-1.9516,-1.9661,-2.0107,-1.9704,-1.9476,-1.961,-1.9707,-1.9763,-1.9571,-1.9836,-1.985,-1.9575,-2.0301,-2.0518,-2.0245,-2.1003,-2.1346,-2.1346,-2.1143,-2.1076,-2.1008,-2.0471,-2.0131,-1.9995,-1.958,-1.93,-1.9105,-1.932,-1.9325,-1.9261,-1.959,-1.9567,-1.9291,-1.8839,-1.8849,-1.9042,0.0,0.0,0.0,0.0,0.0,0.0,0.0,-0.3798,-0.4166,-0.3984,-0.4219,-0.4481,-0.4824,-0.4783,-0.5168,-0.6391,-0.7353,-0.8346,-0.952,-0.9544,-1.0274,-1.1991,-1.1122,-1.1289,-1.2733,-1.2773,-1.3048,-1.3668,-1.4583,-1.5125,-1.5232,-1.5232,-1.5238,-1.5292,-1.4326,-1.3948,-1.3954,-1.3295,-1.2861,-1.2694,-1.2911,-1.2694,-1.2472,-1.4282,-1.4325,-1.3465,-1.3465,-1.2389,-1.1038,-1.1252,-1.0233,-0.8885,-0.8885,-0.9588,-1.0225,-0.9439,-1.0057,0.0,0.0,0.0,0.0,0.0,0.0,0.0,0.0,0.0,-1.0425,-1.1078,-1.0771,-1.0356,-1.0248,-1.039,-1.0592,-1.1051,-1.1933,-1.2735,-1.3261,-1.3564,-1.495,-1.827,-1.9006,-1.9193,-1.9122,-1.902,-1.8817,-1.8662,-1.914,-1.9405,-1.9322,-2.0189,-2.0476,-1.9967,-2.0781,-2.1011,-2.057,-2.1231,-2.1559,-2.1559,-2.0931,-2.0653,-2.0647,-1.9959,-1.9825,-2.0098,-1.9825,-1.9779,-1.998,-1.9772,-1.9586,-1.9545,-1.9545,-1.9063,-1.8447,-1.8653,-1.8758,-1.8688,0.0,0.0,0.0,0.0,0.0,0.0,0.0,0.0,-0.387,-0.3899,-0.4291,-0.4649,-0.4926,-0.4875,-0.4757,-0.4612,-0.5668,-0.6666,-0.7499,-0.8496,-0.958,-1.0774,-1.0682,-1.0682,-1.0904,-1.0904,-1.118,-1.1792,-1.1955,-1.229,-1.2797,-1.2797,-1.296,-1.3181,-1.2032,-1.166,-1.1946,-1.1837,-1.1782,-1.1837,-1.2861,-1.2644,-1.1728,-1.1996,-1.166,-1.1105,-1.1105,-1.0292,-0.9372,-1.0457,-0.9966,-0.8885,-0.8885,-0.8992,-0.9033,-0.8688,0.0,-0.874,-0.8251,-0.805,-0.8037,-0.8386,-0.8636,-0.883,0.0,0.0,-0.9759,-0.9522,-0.9665,-0.9935,-0.9998,-1.008,-1.0142,-1.0395,-1.0294,-1.0685,-1.2146,-1.235,-1.3012,-1.4891,-1.5748,-1.6039,-1.5608,-1.6107,-1.6108,-1.5252,-1.645,-1.7166,-1.697,-1.884,-1.9917,-1.979,-2.0448,-2.0731,-2.0671,-2.0762,-2.0804,-2.0804,-1.939,-1.8686,-1.8686,-1.8256,-1.8115,-1.8185,-1.9471,-2.0231,-2.0623,-2.0593,-2.0442,-2.0095,-1.8766,-1.7977,-1.7722,-1.7653,-1.7577,-1.7347,0.0,0.0,0.0,0.0,0.0,0.0,0.0,0.0,0.0,0.0,-0.3524,-0.3883,-0.4315,-0.4557,-0.4536,-0.4177,-0.4798,-0.5393,-0.5699,-0.6416,-0.7337,-0.8504,-0.7907,-0.8072,-0.9058,-0.9109,-0.9384,-0.9995,-1.0639,-1.1126,-1.1352,-1.1524,-1.1914,-1.2349,-1.1487,-1.1387,-1.1787,-1.1295,-1.0966,-1.0911,-1.1341,-1.1122,-1.0527,-1.0527,-1.0414,-1.0167,-0.9969,-0.9583,0.0,0.0,-0.9369,-0.9083,-0.8937,-0.8924,-0.8876,-0.8678,-0.8598,0.0,-0.8642,-0.875,0.0,0.0,-0.9568,-0.9824,-0.9914,-1.0188,-1.0276,-0.9993,-1.0065,-1.0187,-1.0154,-0.9968,-0.9927,0.0,-1.0052,-1.019,-1.1189,-1.1297,-1.1534,-1.218,-1.3144,-1.3994,-1.4649,-1.5,-1.4996,-1.44,-1.5304,-1.5894,-1.5775,-1.6941,-1.7614,-1.7614,-1.7917,-1.804,-1.804,-1.804,-1.804,-1.804,-1.7338,-1.7052,-1.7052,-1.6911,-1.6836,-1.6836,-1.7479,-1.7975,-1.8401,-1.8401,-1.8417,-1.8475,-1.7838,-1.7498,-1.7299,-1.6466,-1.634,-1.6397,0.0,0.0,0.0,0.0,0.0,0.0,0.0,0.0,0.0,0.0,-0.2891,-0.329,-0.3745,-0.4088,-0.4211,-0.4019,-0.4365,-0.4718,-0.498,-0.5267,-0.5843,-0.686,-0.6116,-0.6214,-0.7482,-0.7529,-0.7805,-0.8303,-0.9113,-0.9545,-0.9654,-0.9995,-1.0382,-1.0874,-1.0558,-1.0676,-1.1122,-1.0468,-1.0198,-1.0147,-1.0147,-1.0143,-1.0033,-1.0033,-0.9921,-0.9649,-0.9304,-0.9223,0.0,0.0,-0.8942,-0.9256,-0.9019,-0.8945,-0.8976,-0.8881,-0.8832,-0.8871,-0.9287,0.0,0.0,-0.9998,-1.0308,-1.0598,-1.074,-1.0826,-1.0832,-1.0707,-1.0703,-1.066,-1.0502,-1.0322,-1.0256,-1.048,-1.0343,-1.0285,-1.066,-1.0787,-1.0756,-1.0609,-1.1422,-1.2261,-1.3101,-1.3713,-1.3897,-1.3433,-1.4275,-1.4823,-1.4806,-1.5634,-1.6131,-1.6131,-1.6131,-1.6131,-1.6131,-1.6131,-1.6131,-1.6131,-1.5707,-1.55,-1.5495,-1.5641,-1.5853,-1.6272,-1.6348,-1.6635,-1.6851,-1.6851,-1.7067,-1.7283,-1.6861,-1.6649,-1.6469,-1.5117,-1.5046,-1.5538,0.0,0.0,0.0,0.0,0.0,0.0,0.0,0.0,0.0,0.0,0.0,0.0,0.0,-0.3528,-0.3666,-0.396,-0.4365,-0.4886,-0.562,-0.5881,-0.6093,-0.6408,-0.6327,-0.6274,-0.633,-0.633,-0.6495,-0.6768,-0.6824,-0.699,-0.7318,-0.7601,-0.7881,-0.8156,-0.8429,-0.8758,-0.8975,-0.8978,-0.9309,-0.9816,-0.9816,-1.0143,-1.0692,-1.0692,-1.0208,-0.9436,-0.9055,0.0,0.0,-0.8603,-0.8805,-0.925,-0.9043,-0.915,0.0,-0.9283,-0.9216,-0.9149,0.0,0.0,-0.9553,-1.0137,-1.0301,-1.0394,-1.0714,-1.0977,-1.1101,-1.1104,-1.1173,-1.1206,-1.1041,-1.1314,-1.1366,-1.0819,-1.0965,-1.1028,-1.0717,-1.0982,-1.094,-1.0391,-1.0601,-1.0605,0.0,-1.1615,-1.232,-1.1528,-1.2905,-1.3825,-1.3935,-1.5283,-1.6131,-1.6131,-1.6131,-1.6131,-1.6131,-1.6131,-1.6131,-1.6056,-1.4654,-1.3951,-1.3951,-1.4382,-1.5301,-1.6705,-1.7067,-1.7283,-1.7283,-1.7283,-1.7283,-1.7142,-1.5664,-1.5097,-1.4884,-1.3452,-1.3691,-1.4631,0.0,0.0,0.0,0.0,0.0,0.0,0.0,0.0,0.0,0.0,0.0,0.0,0.0,0.0,0.0,0.0,-0.3875,-0.4237,-0.4938,-0.5159,-0.5525,-0.6049,-0.6217,-0.6274,-0.6274,-0.6274,-0.633,-0.6439,-0.6439,-0.6495,-0.6606,-0.6882,-0.7268,-0.7762,-0.8042,-0.8429,-0.892,-0.892,-0.9034,-0.9203,-0.9203,-0.9309,-0.9519,-0.9417,-0.9194,-0.881,0.0,0.0,-0.8043,-0.7559,-0.7717,-0.8051,-0.7864,-0.788,-0.7941,-0.7941,-0.8512,-0.9191,-0.9399,0.0,-1.0643,-1.0876,-1.1138,-1.149,-1.1543,-1.1771,-1.187,-1.1722,-1.1467,-1.1202,-1.1047,-1.0811,-1.0655,-1.0531,-1.0607,-1.0778,-1.0979,-1.0955,-1.0998,-1.1254,-1.1135,0.0,0.0,0.0,0.0,-1.1308,-1.196,-1.2412,-1.2757,-1.2964,-1.3103,-1.3103,-1.3103,-1.3246,-1.3535,-1.3535,-1.3674,-1.388,-1.3389,-1.3178,-1.3178,-1.3321,-1.3674,-1.4097,-1.424,-1.4453,-1.4666,-1.4666,-1.4813,-1.4959,-1.4466,-1.4252,-1.4181,-1.3686,-1.3788,-1.4082,0.0,0.0,0.0,0.0,0.0,0.0,0.0,0.0,0.0,0.0,0.0,0.0,0.0,0.0,0.0,0.0,0.0,-0.389,-0.4604,-0.4793,-0.5087,-0.5625,-0.594,-0.61,-0.61,-0.634,-0.6379,-0.616,-0.6347,-0.6328,-0.6105,-0.6492,-0.6935,-0.7318,-0.7598,-0.7931,-0.8315,-0.8315,-0.8426,-0.8585,-0.8477,-0.8601,-0.8798,-0.8596,-0.834,0.0,0.0,0.0,-0.6796,-0.6853,-0.7225,-0.7593,-0.74,-0.7452,-0.7588,-0.7645,-0.8238,-0.8973,-0.9255,-0.992,-1.0574,-1.0753,-1.1046,-1.1301,-1.1359,-1.1697,-1.1979,-1.1827,-1.177,-1.1627,-1.124,-1.0959,-1.0786,-1.0616,-1.0738,-1.091,-1.1352,-1.1351,-1.1411,-1.1711,-1.1539,-1.1656,0.0,0.0,0.0,-1.1507,-1.1668,-1.1871,-1.2086,-1.173,-1.1662,-1.204,-1.1907,-1.1979,-1.2406,-1.2406,-1.2545,-1.2824,-1.2824,-1.2824,-1.2824,-1.2896,-1.2873,-1.2714,-1.3034,-1.3224,-1.3274,-1.3464,-1.3686,-1.39,-1.39,-1.39,-1.39,-1.39,-1.39,-1.3829,0.0,0.0,0.0,0.0,0.0,0.0,0.0,0.0,0.0,0.0,0.0,0.0,0.0,0.0,0.0,0.0,0.0,0.0,-0.4711,-0.4708,-0.4833,-0.5148,-0.5484,-0.5687,-0.5687,-0.6406,-0.6466,-0.5939,-0.6411,-0.6402,-0.5848,-0.6402,-0.6679,-0.6679,-0.7008,-0.7174,-0.7174,-0.7174,-0.745,-0.7926,-0.7721,-0.7984,-0.848,-0.818,0.0,0.0,0.0,0.0,-0.5627,-0.648,-0.7208,-0.779,-0.7621,-0.7731,-0.7992,-0.8295,-0.8388,-0.8528,-0.9087,-0.9268,-0.9454,-0.9883,-0.9997,-1.0044,-1.0179,-1.0838,-1.1466,-1.144,-1.2064,-1.2394,-1.1549,-1.1624,-1.1628,-1.0994,-1.1179,-1.142,-1.1683,-1.1937,-1.2007,0.0,0.0,0.0,0.0,0.0,0.0,-1.1962,0.0,-1.2067,-1.2067,-1.1661,-1.1862,-1.2738,-1.2406,-1.2406,-1.2824,-1.2824,-1.2824,-1.2824,-1.2824,-1.2824,-1.2896,-1.3182,-1.3064,-1.2636,-1.3544,-1.3612,-1.3173,-1.3689,-1.39,-1.39,-1.39,-1.39,-1.39,-1.39,-1.39,-1.39,0.0,0.0,0.0,0.0,0.0,0.0,0.0,0.0,0.0,0.0,0.0,0.0,0.0,0.0,0.0,0.0,0.0,0.0,-0.3851,-0.4038,-0.4313,-0.4819,-0.5077,-0.5336,-0.5687,-0.5893,-0.6073,-0.6276,-0.6387,-0.6413,-0.6259,-0.6413,-0.6467,-0.6467,-0.6567,-0.6619,-0.6619,-0.6619,-0.667,-0.6821,-0.6754,-0.683,-0.6967,0.0,0.0,0.0,0.0,0.0,0.0,0.0,0.0,0.0,0.0,-0.7073,-0.7128,-0.7076,-0.7693,-0.8317,-0.8416,-0.9101,-0.9845,-0.996,-1.0152,-1.0324,-1.0358,-1.0616,-1.0826,-1.0601,-1.0414,-1.0114,-0.9574,-0.9297,-0.9223,-0.9342,-0.9511,0.0,-1.0223,-1.0311,0.0,-1.0715,0.0,-1.1112,-1.1419,-1.1654,0.0,0.0,-1.2011,-1.2708,-1.2989,-1.2641,-1.2552,-1.2821,-1.2685,-1.2828,-1.3182,-1.3472,-1.3615,-1.3615,-1.3615,-1.3615,-1.3615,-1.3686,-1.3685,-1.3568,-1.3772,-1.3823,-1.3705,-1.3843,-1.39,-1.39,-1.39,-1.39,-1.39,-1.39,-1.39,-1.39,0.0,0.0,0.0,0.0,0.0,0.0,0.0,0.0,0.0,0.0,0.0,0.0,0.0,0.0,0.0,0.0,0.0,0.0,0.0,-0.3391,-0.3574,-0.3901,-0.4407,-0.4838,-0.5077,-0.5502,-0.5791,-0.6041,-0.6189,-0.6239,-0.6239,-0.6337,-0.6387,-0.6387,-0.6387,-0.6387,-0.6387,-0.6387,-0.6387,0.0,0.0,-0.6282,-0.6263,0.0,0.0,0.0,0.0,0.0,0.0,0.0,0.0,-0.6505,-0.697,-0.7043,-0.6986,-0.7127,0.0,-0.795,-0.8052,-0.8645,-0.9206,-0.9263,-0.9408,-0.9488,-0.9429,-0.972,-0.9911,-0.9595,-0.9492,0.0,-0.8889,-0.8668,-0.8676,0.0,0.0,0.0,-0.9989,-0.9995,-1.0092,0.0,-1.066,0.0,-1.1362,-1.1555,-1.1497,0.0,-1.1626,-1.2006,-1.2216,-1.1874,-1.1825,-1.2241,-1.2105,-1.2176,-1.2534,-1.2749,-1.2896,-1.2896,-1.2896,-1.2896,-1.2896,-1.2896,-1.2775,-1.2579,0.0,-1.3267,-1.3145,-1.3661,-1.39,-1.39,-1.39,-1.39,-1.39,-1.39,-1.39,-1.39,0.0,0.0,0.0,0.0,0.0,0.0,0.0,0.0,0.0,0.0,0.0,0.0,0.0,0.0,0.0,0.0,0.0,0.0,0.0,0.0,-0.3124,-0.3124,-0.3922,-0.4363,-0.4405,-0.5196,-0.5613,-0.562,-0.5909,-0.6005,-0.5953,-0.6197,-0.6295,-0.6295,-0.6295,-0.6295,-0.6295,-0.6295,-0.6295,-0.6276,-0.6121,-0.604,-0.6015,0.0,0.0,0.0,0.0,0.0,0.0,0.0,-0.6877,-0.6815,-0.7385,-0.7421,-0.7382,-0.7712,-0.7701,-0.763,-0.7926,-0.8106,-0.8133,-0.8361,-0.8429,-0.8386,-0.8237,-0.8586,-0.8869,-0.8527,0.0,-0.9104,-0.8662,-0.8674,-0.8884,-0.9129,0.0,-0.9526,-0.9975,-1.0109,-1.0192,-1.0422,-1.0485,-1.0741,-1.1259,-1.1262,-1.1252,-1.1312,-1.0892,-1.0675,-1.0883,-1.0548,-1.0793,-1.1589,-1.1243,-1.1243,-1.1603,-1.1603,-1.1603,-1.1603,-1.1603,-1.1603,-1.1603,-1.1603,-1.1318,-1.0971,-1.214,-1.2367,-1.2005,-1.3142,-1.3615,-1.3615,-1.3615,-1.3686,-1.3757,-1.3757,-1.3829,-1.39,0.0,0.0,0.0,0.0,0.0,0.0,0.0,0.0,0.0,0.0,0.0,0.0,0.0,0.0,0.0,0.0,0.0,0.0,0.0,0.0,0.0,-0.4385,-0.4453,-0.4641,-0.505,-0.5091,-0.5293,-0.5705,-0.5745,-0.5764,-0.5764,-0.581,-0.581,-0.581,-0.581,-0.581,-0.581,-0.581,-0.581,-0.5807,-0.5766,-0.575,-0.5745,0.0,0.0,0.0,0.0,0.0,0.0,0.0,-0.7163,-0.7282,-0.7684,-0.778,-0.7725,-0.7614,-0.769,-0.7804,-0.7771,-0.7978,-0.8239,-0.838,-0.8489,-0.8546,-0.8505,-0.8394,0.0,0.0,-0.7565,-0.744,-0.732,-0.749,-0.7669,-0.7926,0.0,0.0,0.0,0.0,-0.875,0.0,0.0,0.0,0.0,0.0,0.0,0.0,-0.9603,-1.0135,-1.1413,-1.1416,-1.1453,-1.1599,-1.1531,-1.1531,-1.1603,-1.1603,-1.1603,-1.1603,-1.1603,-1.1603,-1.1603,-1.1603,-1.1558,-1.1487,-1.1712,0.0,-1.1704,-1.193,-1.2033,-1.2033,-1.2033,-1.2391,-1.2968,-1.2968,-1.34,-1.39,0.0,0.0,0.0,0.0,0.0,0.0,0.0,0.0,0.0,0.0,-0.3844,-0.3585,0.0,0.0,0.0,0.0,0.0,0.0,0.0,0.0,0.0,0.0,-0.4859,-0.5041,-0.5216,-0.5259,-0.543,-0.5688,0.0,-0.5599,-0.5688,-0.5688,-0.5688,-0.5688,-0.5688,-0.5688,-0.5688,-0.5688,-0.5688,-0.5688,-0.5688,-0.5688,0.0,0.0,0.0,0.0,0.0,0.0,0.0,0.0,-0.7054,-0.7239,-0.772,-0.7872,-0.7823,-0.7587,-0.7731,-0.8002,-0.782,-0.8054,-0.8359,-0.8478,-0.8546,-0.8489,-0.8117,0.0,0.0,0.0,-0.682,-0.6719,-0.6782,-0.694,0.0,-0.7712,0.0,0.0,0.0,0.0,0.0,0.0,0.0,0.0,0.0,0.0,0.0,-0.9014,-0.9024,-0.9459,-1.0368,-1.038,-1.038,-1.038,-1.038,-1.038,-1.038,-1.038,-1.038,-1.038,-1.038,-1.038,-1.038,-1.038,-1.038,-1.0452,-1.0884,-1.086,-1.0678,-1.1332,-1.149,-1.1237,-1.148,-1.1818,-1.2176,-1.2176,-1.2391,-1.2681,0.0,0.0,0.0,0.0,0.0,0.0,0.0,-0.4482,-0.4562,-0.4703,-0.4699,-0.4303,-0.3354,-0.3567,0.0,0.0,0.0,0.0,0.0,0.0,0.0,0.0,0.0,0.0,0.0,0.0,0.0,-0.5726,-0.5563,0.0,0.0,0.0,0.0,0.0,-0.5688,-0.5688,-0.5688,-0.5688,-0.5688,0.0,0.0,0.0,0.0,0.0,0.0,0.0,0.0,0.0,0.0,0.0,-0.6866,-0.7032,-0.7524,-0.7698,-0.7695,-0.7589,-0.7758,-0.804,-0.7986,-0.8198,-0.8446,-0.856,-0.8587,-0.8421,-0.778,-0.7573,0.0,0.0,-0.6441,-0.6446,-0.6698,-0.6834,-0.7133,0.0,-0.801,-0.8103,0.0,0.0,0.0,0.0,0.0,0.0,0.0,0.0,0.0,-0.8878,-0.8883,-0.9008,-0.9288,-0.9304,-0.9304,-0.9304,-0.9304,-0.9304,-0.9304,-0.9304,-0.9304,-0.9304,-0.9304,-0.9304,-0.9304,-0.9304,-0.9304,-0.9302,-0.9951,-0.9937,-0.9555,-1.0652,-1.0832,-1.0435,-1.0946,-1.1243,-1.1387,-1.1387,-1.1459,-1.1603,0.0,0.0,0.0,0.0,0.0,0.0,0.0,-0.4482,-0.4562,-0.4703,-0.4593,-0.4489,-0.438,-0.4378,0.0,0.0,0.0,0.0,0.0,0.0,0.0,0.0,0.0,0.0,0.0,0.0,0.0,-0.5888,-0.5739,0.0,0.0,0.0,0.0,0.0,0.0,-0.5688,-0.5688,-0.5688,0.0,0.0,0.0,0.0,0.0,0.0,0.0,0.0,0.0,0.0,0.0,0.0,0.0,-0.6847,-0.7016,-0.7193,-0.7339,-0.7595,0.0,0.0,-0.8253,-0.8394,-0.8446,-0.856,-0.8587,-0.8484,-0.8155,0.0,0.0,-0.7016,-0.6668,-0.6573,-0.7076,-0.7203,-0.7451,0.0,0.0,-0.7858,0.0,0.0,0.0,0.0,0.0,0.0,0.0,0.0,0.0,-0.9231,-0.9256,-0.9269,-0.9302,-0.9304,-0.9304,-0.9304,-0.9304,-0.9304,-0.9304,-0.9304,-0.9304,-0.9304,-0.9304,-0.9304,-0.9304,-0.9304,-0.9304,-0.9304,-0.9377,-0.917,0.0,-0.9318,-0.9229,-0.8834,-0.9326,-0.9951,-1.0596,-1.0596,-1.1028,-1.1603,0.0,0.0,0.0,0.0,0.0,0.0,0.0,-0.5601,-0.5638,-0.5696,-0.5672,-0.562,-0.5608,-0.5601,-0.5378,0.0,0.0,0.0,0.0,0.0,0.0,0.0,0.0,0.0,0.0,0.0,-0.5869,-0.5801,-0.5712,0.0,0.0,0.0,0.0,0.0,0.0,0.0,-0.5688,0.0,0.0,0.0,0.0,0.0,0.0,0.0,0.0,0.0,0.0,0.0,0.0,0.0,0.0,0.0,-0.6537,-0.6172,0.0,0.0,-0.7467,-0.7828,-0.7954,-0.8247,-0.853,-0.8576,-0.8587,-0.8437,-0.7861,0.0,-0.7353,-0.6774,-0.6487,-0.654,-0.688,-0.6983,-0.7195,0.0,0.0,0.0,-0.8475,0.0,0.0,0.0,0.0,0.0,0.0,0.0,-0.8829,-0.8973,-0.8981,-0.9076,-0.9294,-0.9304,-0.9304,-0.9304,-0.9304,-0.9304,-0.9304,-0.9304,-0.9304,-0.9304,-0.9304,-0.9304,-0.9304,-0.9304,-0.9304,-0.9304,-0.9304,-0.8867,0.0,-0.8986,-0.8851,-0.8231,-0.9003,-0.9521,-0.9807,-0.9807,-0.9951,-1.0236,0.0,0.0,0.0,0.0,0.0,0.0,-0.6255,-0.6317,-0.6309,-0.6371,-0.6407,-0.6358,-0.6325,-0.6317,-0.604,-0.5308,0.0,0.0,0.0,0.0,0.0,0.0,0.0,0.0,0.0,0.0,-0.5863,-0.5737,-0.5704,-0.5688,0.0,0.0,-0.5688,0.0,0.0,0.0,0.0,0.0,0.0,0.0,0.0,0.0,0.0,0.0,0.0,0.0,0.0,0.0,0.0,0.0,0.0,0.0,0.0,0.0,0.0,0.0,-0.6773,-0.7294,-0.7289,-0.7957,-0.8587,-0.8587,-0.8508,-0.8269,0.0,0.0,-0.7184,-0.6514,-0.6387,-0.646,-0.6757,-0.6801,-0.6999,-0.7603,0.0,-0.7915,-0.8527,-0.8611,0.0,0.0,0.0,-0.909,0.0,-0.8927,-0.8927,-0.8927,-0.8927,-0.9038,-0.9291,-0.9304,-0.9304,-0.9304,-0.9304,-0.9304,-0.9304,-0.9304,-0.9304,-0.9304,-0.9304,-0.9228,-0.9098,-0.9239,-0.9226,-0.9101,-0.9242,-0.884,0.0,-0.8967,-0.8821,-0.8166,-0.8984,-0.9304,-0.9304,-0.9304,-0.9304,-0.9304,0.0,0.0,0.0,0.0,0.0,0.0,0.0,-0.6317,-0.6309,-0.6371,-0.6339,-0.632,-0.6317,-0.6317,-0.6168,-0.5923,0.0,0.0,0.0,0.0,0.0,0.0,0.0,0.0,0.0,0.0,-0.5904,-0.5901,-0.5742,-0.5688,-0.5688,-0.5688,-0.5688,-0.5688,0.0,0.0,0.0,0.0,0.0,0.0,0.0,0.0,0.0,0.0,0.0,0.0,0.0,0.0,0.0,0.0,0.0,0.0,0.0,0.0,0.0,0.0,-0.5539,-0.6013,-0.6324,-0.7481,-0.8587,-0.8587,-0.832,-0.8026,0.0,-0.7244,-0.6885,-0.6462,-0.6387,-0.646,-0.6757,-0.6801,-0.6999,-0.7603,-0.7701,0.0,-0.8126,-0.8178,0.0,0.0,0.0,-0.8913,-0.9264,-0.9299,-0.9299,-0.9299,-0.9299,0.0,-0.9304,-0.9304,-0.9304,-0.9304,-0.9304,-0.9304,-0.9304,-0.9304,-0.9304,-0.9304,-0.9304,-0.9054,-0.8611,-0.9087,-0.9044,-0.8622,-0.9098,-0.9027,0.0,-0.9103,-0.9016,-0.8628,-0.9114,-0.9304,-0.9304,-0.9304,-0.9304,-0.9304,0.0,0.0,0.0,0.0,0.0,0.0,0.0,-0.6317,-0.6309,-0.6371,-0.6339,-0.6298,-0.6374,-0.6314,-0.6251,-0.6043,0.0,0.0,0.0,0.0,0.0,0.0,0.0,0.0,0.0,0.0,-0.5825,-0.5904,-0.5787,-0.5729,-0.5847,-0.5726,-0.5688,-0.5688,-0.5688,0.0,0.0,0.0,0.0,0.0,0.0,0.0,0.0,0.0,0.0,0.0,0.0,0.0,0.0,0.0,0.0,0.0,0.0,0.0,0.0,-0.2603,-0.3488,0.0,-0.4647,-0.5154,-0.5643,-0.5643,-0.6129,-0.6523,-0.6158,-0.6568,-0.688,-0.6462,-0.6452,-0.6586,-0.6662,-0.6747,-0.6972,-0.7491,-0.7576,0.0,0.0,0.0,0.0,-0.7531,-0.7564,-0.7603,0.0,0.0,-0.7415,-0.7691,-0.7446,-0.7914,-0.9219,-0.9304,-0.9304,-0.9304,-0.9304,-0.9304,-0.9304,-0.9304,-0.9304,-0.9304,-0.9304,-0.9095,-0.8725,-0.9122,-0.9087,-0.8736,-0.913,-0.903,-0.8625,-0.9106,-0.9022,-0.8636,-0.9114,-0.9304,-0.9304,-0.9304,-0.9304,-0.9304,0.0,0.0,0.0,0.0,0.0,0.0,0.0,-0.6377,-0.6358,-0.6376,-0.6374,-0.6342,-0.6372,-0.6312,-0.6248,-0.6032,0.0,0.0,0.0,0.0,0.0,0.0,0.0,0.0,0.0,-0.5726,-0.5787,-0.5904,-0.5787,-0.5793,-0.5899,-0.5742,-0.5688,-0.5688,-0.5688,0.0,0.0,0.0,0.0,0.0,0.0,0.0,-0.3763,0.0,0.0,0.0,0.0,0.0,0.0,0.0,0.0,0.0,0.0,0.0,0.0,0.0,-0.1849,-0.2511,0.0,-0.3725,-0.4285,-0.4285,-0.4691,0.0,0.0,-0.5211,-0.5509,-0.5269,-0.524,-0.5455,-0.5916,-0.6083,-0.6339,-0.7107,-0.6985,-0.6996,0.0,0.0,0.0,-0.5893,0.0,0.0,0.0,-0.5905,-0.5881,-0.6098,-0.5902,-0.6308,-0.7478,-0.7559,-0.7559,-0.7559,-0.8721,-0.9304,-0.9304,-0.9304,-0.9304,-0.9304,-0.9304,-0.9092,-0.8715,-0.912,-0.9084,-0.8723,-0.9128,-0.9133,0.0,-0.9179,-0.9128,-0.8889,-0.9188,-0.9304,-0.9304,-0.9304,-0.9304,-0.9304,0.0,0.0,0.0,0.0,0.0,0.0,0.0,0.0,0.0,0.0,-0.6379,-0.6388,-0.629,-0.6322,-0.6173,0.0,0.0,0.0,0.0,0.0,0.0,0.0,0.0,0.0,-0.5688,-0.5688,-0.5748,-0.5915,-0.5748,-0.5795,-0.5912,-0.5748,-0.5688,-0.5688,-0.5644,-0.5463,0.0,0.0,0.0,0.0,-0.448,-0.3852,0.0,0.0,0.0,0.0,0.0,0.0,0.0,0.0,0.0,0.0,0.0,0.0,0.0,0.0,0.0,0.0,0.0,-0.2948,0.0,0.0,0.0,0.0,-0.3627,-0.3389,0.0,-0.3188,-0.3211,-0.353,-0.4663,-0.4901,-0.5277,-0.6404,-0.599,-0.5457,0.0,-0.4478,0.0,0.0,-0.4288,0.0,-0.4551,-0.4505,-0.4511,-0.4511,-0.4511,-0.4584,-0.4729,-0.4729,-0.4729,-0.4729,-0.7487,-0.9013,-0.9157,-0.923,-0.9288,-0.9253,-0.9288,-0.9038,-0.8565,-0.9073,-0.9046,0.0,-0.9098,-0.9304,-0.9304,-0.9304,-0.9304,-0.9304,-0.9304,-0.9304,-0.9304,-0.9304,-0.9304,-0.9304,0.0,0.0,0.0,0.0,0.0,0.0,0.0,0.0,0.0,0.0,0.0,-0.6331,-0.6391,-0.632,0.0,0.0,0.0,0.0,0.0,0.0,0.0,0.0,0.0,0.0,-0.5688,-0.5688,-0.5836,-0.6043,-0.5836,-0.5839,-0.6037,-0.5831,-0.5688,-0.5688,-0.4971,-0.4208,0.0,0.0,0.0,0.0,-0.3276,-0.2708,0.0,0.0,0.0,0.0,-0.0784,-0.0787,0.0,0.0,0.0,0.0,0.0,0.0,0.0,0.0,-0.0197,-0.0049,-0.0397,0.0,-0.1026,-0.1026,-0.1558,-0.2125,0.0,-0.2687,-0.3206,-0.3177,-0.3268,-0.3381,-0.358,-0.3717,-0.3973,-0.4477,-0.441,-0.4434,-0.4765,0.0,0.0,-0.2711,-0.2819,-0.2849,-0.286,-0.2861,-0.2838,-0.2838,-0.2838,-0.342,-0.4657,-0.4729,-0.4729,-0.4729,-0.5383,-0.6326,-0.7559,-0.8721,-0.912,-0.8761,-0.9128,-0.891,-0.827,-0.8959,-0.9092,-0.875,-0.9136,-0.9304,-0.9304,-0.9304,-0.9304,-0.9304,-0.9304,-0.9304,-0.9304,-0.9304,-0.9304,-0.9304,0.0,0.0,0.0,0.0,0.0,0.0,0.0,0.0,0.0,0.0,0.0,0.0,0.0,0.0,0.0,0.0,0.0,0.0,0.0,0.0,0.0,0.0,0.0,-0.5688,-0.5688,-0.5739,-0.5901,-0.6086,-0.5901,-0.5907,-0.6081,-0.5388,-0.506,-0.5015,-0.3941,-0.3269,0.0,0.0,0.0,0.0,-0.2343,0.0,0.0,0.0,0.0,0.0,-0.0194,-0.0194,0.0,-0.0048,0.0,0.0,0.0,0.0,0.0,0.0,0.0,0.0,0.0,0.0,0.0,0.0,-0.045,-0.0889,-0.0871,-0.1316,-0.1724,-0.1742,0.0,-0.1866,-0.2014,-0.2144,-0.2301,-0.2615,-0.2333,0.0,0.0,0.0,-0.0262,-0.032,-0.0267,-0.0412,0.0,-0.078,-0.0874,-0.1239,-0.1239,-0.1603,-0.2476,-0.255,-0.255,-0.255,-0.3203,-0.4365,-0.5963,-0.7487,-0.7788,-0.6846,-0.8507,-0.867,-0.7605,-0.8785,-0.9198,-0.9014,-0.8986,-0.9101,-0.9288,-0.9065,-0.9103,-0.9304,-0.9304,-0.9304,-0.9304,-0.9304,-0.9304,-0.9304,0.0,0.0,0.0,0.0,0.0,0.0,0.0,0.0,0.0,0.0,0.0,0.0,0.0,0.0,0.0,0.0,0.0,0.0,0.0,0.0,0.0,0.0,0.0,-0.5696,-0.5715,-0.5852,-0.5972,-0.6113,-0.5849,-0.5758,-0.5868,-0.463,-0.3997,-0.3807,-0.2777,-0.2374,0.0,0.0,0.0,0.0,-0.1442,0.0,0.0,0.0,0.0,0.0,0.0,0.0,0.0,-0.0095,0.0,0.0,0.0,0.0,0.0,0.0,0.0,0.0,0.0,0.0,0.0,0.0,0.0,0.0,0.0,0.0,0.0,0.0,0.0,0.0,-0.0231,-0.0291,0.0,0.0,0.0,0.0,0.1881,0.212,0.2129,0.203,0.2073,0.0,0.1079,0.1203,0.1094,0.0438,0.0365,0.0365,0.0365,0.0365,0.0292,0.0219,-0.1093,-0.2475,-0.4004,-0.5746,-0.5949,-0.4634,-0.7301,-0.7849,-0.6585,-0.8232,-0.8941,-0.892,0.0,0.0,-0.8909,-0.8242,-0.8238,-0.8577,-0.8577,-0.8577,-0.8577,-0.8577,-0.8577,-0.8649,0.0,0.0,0.0,0.0,0.0,0.0,0.0,0.0,0.0,0.0,0.0,0.0,0.0,0.0,0.0,0.0,0.0,0.0,0.0,0.0,0.0,-0.5694,-0.5688,-0.5734,-0.5874,-0.5893,-0.6013,-0.6289,-0.5206,-0.4778,-0.4869,-0.3695,-0.264,-0.1838,-0.1659,-0.1166,-0.045,0.0,0.0,-0.0232,-0.024,0.0,0.0,0.0,0.0,0.0,0.0,0.0,0.0,0.0,0.0,0.0,0.0,0.0,0.0,0.0,0.0,0.0,0.0,0.0,0.0,0.0,0.0,0.0,0.0,0.036,0.0,0.0,0.0,0.0,0.0,0.1704,0.1747,0.0,0.0,0.2033,0.0,0.0,0.2252,0.2257,0.0,0.2194,0.2059,0.2134,0.2114,0.1968,0.1969,0.1969,0.1969,0.1969,0.1677,0.1021,0.0801,0.0219,-0.0729,-0.3567,-0.4678,-0.4033,-0.4967,-0.5025,-0.4441,-0.6461,-0.7342,-0.7338,0.0,-0.7289,-0.7266,-0.5841,-0.5345,-0.5383,-0.5383,-0.5383,-0.5383,-0.5383,-0.5383,-0.5601,0.0,0.0,0.0,0.0,0.0,0.0,0.0,0.0,0.0,0.0,0.0,0.0,0.0,0.0,0.0,0.0,0.0,0.0,0.0,0.0,0.0,-0.4231,-0.4684,-0.4979,-0.5023,-0.5127,-0.4944,-0.4503,-0.3976,-0.3715,-0.3754,-0.2637,-0.1583,-0.0628,-0.0628,-0.0406,0.0,0.0,0.0,0.0,0.0,0.0,0.0,0.0,0.0,0.0,0.0,0.0,0.0,0.0,0.0,0.0,0.0,0.0,0.0,0.0,0.0,0.0,0.0091,0.0187,0.0391,0.0537,0.0315,0.0103,0.0515,0.0713,0.0,0.0,0.0,0.0,0.0,0.0,0.2699,0.2982,0.0,0.3568,0.3375,0.3427,0.3446,0.0,0.0,0.3216,0.2791,0.2838,0.277,0.2333,0.2333,0.2333,0.2333,0.2333,0.2114,0.1822,0.1822,0.1604,0.124,-0.0583,-0.1631,-0.1816,-0.3763,-0.4107,-0.3097,-0.4901,-0.5746,-0.5737,0.0,-0.5456,-0.5662,-0.4657,-0.4469,-0.4729,-0.4729,-0.4729,-0.4729,-0.4729,-0.4729,-0.4802,0.0,0.0,0.0,0.0,0.0,0.0,0.0,0.0,0.0,0.0,0.0,0.0,0.0,0.0,0.0,0.0,0.0,0.0,0.0,0.0,-0.3668,-0.2925,-0.3605,-0.3981,-0.3973,-0.4111,-0.3791,-0.3034,-0.2778,-0.2552,-0.2265,-0.1466,-0.0676,0.0,0.0,0.0,0.0,0.0,-0.0047,-0.0097,0.0,0.0,0.0,0.0,0.0,0.0,0.0,0.0,0.0,0.0,0.0,0.0,0.0,0.0,0.0,0.0138,0.041,0.0635,0.0276,0.0518,0.0939,0.1052,0.0596,0.0376,0.117,0.1333,0.1497,0.0,0.0,0.0,0.0,0.314,0.0,0.387,0.4342,0.4537,0.4409,0.4431,0.4443,0.4397,0.4432,0.4234,0.357,0.3632,0.35,0.2915,0.2842,0.2842,0.2842,0.2842,0.277,0.2552,0.2552,0.2479,0.2333,0.1603,0.0857,0.0275,-0.2358,-0.2924,-0.1785,-0.3431,-0.4148,-0.4138,-0.3696,-0.3786,-0.4062,-0.3275,-0.323,-0.3567,-0.3567,-0.3567,-0.3567,-0.3567,-0.3857,-0.4148,0.0,0.0,0.0,0.0,0.0,0.0,0.0,0.0,0.0,0.0,0.0,0.0,0.0,0.0,0.0,0.0,0.0,0.0,0.0,0.0,-0.3035,-0.2893,-0.2981,-0.3051,-0.3067,-0.3116,-0.3119,-0.3182,-0.2164,-0.118,-0.0232,-0.0139,-0.0046,0.0,0.0,0.0,0.0,0.0,-0.0143,-0.0382,-0.0382,0.0,0.0,0.0,0.0,0.0,0.0,0.0,0.0,0.0,0.0,0.0,0.0,0.0,0.009,0.0539,0.0728,0.0785,0.0693,0.1095,0.1449,0.1024,0.0843,0.1007,0.1931,0.226,0.0,0.3254,0.0,0.0,0.0,0.4022,0.3935,0.4243,0.4311,0.4405,0.4609,0.0,0.4643,0.4639,0.4643,0.4643,0.4567,0.4581,0.4592,0.4518,0.4518,0.4518,0.4518,0.4518,0.4155,0.3428,0.3428,0.3063,0.2333,0.1603,0.1164,0.1087,0.0146,-0.0291,-0.0218,-0.1745,-0.2475,-0.2474,-0.2464,-0.2467,-0.2328,-0.0871,-0.0291,-0.0365,-0.0365,-0.0365,-0.0365,-0.0365,-0.1239,-0.2475,0.0,0.0,0.0,0.0,0.0,0.0,0.0,0.0,0.0,0.0,0.0,0.0,0.0,0.0,0.0,0.0,0.0,0.0,0.0,-0.2042,-0.1734,-0.1143,-0.1653,-0.1705,-0.1155,-0.1719,-0.1766,-0.1204,-0.0803,-0.0419,0.0,0.0,0.0,0.0,0.0,0.0,0.0,-0.019,-0.0286,-0.0429,-0.0517,-0.061,0.0,0.0,0.0,0.0,0.0,0.0,0.0,0.0,0.0,0.0,0.0,0.0181,0.0449,0.0493,0.1047,0.1578,0.1127,0.149,0.2071,0.2209,0.2008,0.0,0.0,0.2727,0.2998,0.4011,0.3991,0.0,0.0,0.0,0.42,0.4293,0.4432,0.4561,0.4651,0.4665,0.4665,0.4665,0.4665,0.4665,0.4665,0.4665,0.4665,0.4665,0.4665,0.4665,0.4665,0.4665,0.4592,0.4228,0.4228,0.4083,0.379,0.2989,0.2405,0.1895,0.0584,0.0,0.0,-0.0583,-0.0875,-0.0875,-0.0875,-0.0875,-0.0802,-0.0219,0.0,0.0,0.0,0.0,0.0,0.0,-0.0365,-0.0875,0.0,0.0,0.0,0.0,0.0,0.0,0.0,0.0,0.0,0.0,0.0,0.0,0.0,0.0,0.0,0.0,0.0,0.0,-0.162,-0.1308,-0.0912,-0.0238,-0.071,-0.066,0.0,-0.0617,-0.0665,0.0,0.0,0.0,0.0,0.0,0.0,0.0,0.0,0.0,0.0,-0.0284,-0.0378,-0.0425,-0.0605,-0.0697,0.0,0.0,0.0,0.0,0.0,0.0,0.0,0.0,0.0092,0.0228,0.0135,0.0449,0.0853,0.0859,0.1471,0.2065,0.1675,0.2048,0.2655,0.2944,0.2853,0.0,0.3406,0.3309,0.3396,0.4317,0.4224,0.3954,0.3837,0.0,0.0,0.0,0.4444,0.4578,0.4654,0.4665,0.4665,0.4665,0.4665,0.4665,0.4665,0.4665,0.4665,0.4665,0.4665,0.4665,0.4665,0.4665,0.4665,0.4665,0.4665,0.4665,0.4665,0.3937,0.3209,0.2698,0.1386,0.0438,0.0,0.0,0.0,0.0,0.0,0.0,0.0,0.0,0.0,0.0,0.0,0.0,0.0,0.0,0.0,0.0,0.0,0.0,0.0,0.0,0.0,0.0,0.0,0.0,0.0,0.0,0.0,0.0,0.0,0.0,0.0,0.0,0.0,0.0,-0.162,-0.0994,-0.07,-0.0715,-0.0234,0.0,0.0,0.0,0.0,0.0,0.0,0.0,0.0,0.0,0.0,0.0,0.0,0.0,0.0,-0.028,-0.0416,-0.0416,-0.0601,-0.0685,-0.0675,0.0,0.0,0.0,0.0,0.0,0.0,0.0,0.0319,0.0673,0.0448,0.0717,0.1216,0.1748,0.1973,0.2061,0.2246,0.2737,0.3148,0.2983,0.0,0.0,0.4214,0.4022,0.38,0.4221,0.4496,0.4589,0.4348,0.4308,0.0,0.4308,0.4309,0.4394,0.4631,0.4665,0.4665,0.4665,0.4665,0.4665,0.4665,0.4665,0.4665,0.4665,0.4665,0.4665,0.4665,0.4665,0.4665,0.4665,0.4665,0.4665,0.4665,0.3937,0.3501,0.3501,0.2698,0.1531,0.0,0.0,0.0,0.0,0.0,0.0,0.0,0.0,0.0,0.0,0.0,0.0,0.0,0.0,0.0,0.0,0.0,0.0,0.0,0.0,0.0,0.0,0.0,0.0,0.0,0.0,0.0,0.0,0.0,0.0,0.0,0.0,0.0,0.0,-0.1522,-0.1295,-0.1042,-0.0715,-0.0569,-0.0331,0.0,0.0,0.0,0.0,0.0,0.0,0.0,0.0,0.0,0.0,0.0,0.0,0.0,-0.0291,-0.0385,-0.0416,-0.0637,-0.0597,0.0,0.0,0.0,0.0,0.0,0.0,0.0,0.0,0.0,0.0,0.0837,0.1196,0.163,0.195,0.2373,0.281,0.2873,0.3084,0.3303,0.3444,0.0,0.0,0.0,0.3847,0.0,0.0,0.4364,0.4341,0.4037,0.0,0.0,0.4335,0.4448,0.4583,0.4654,0.4665,0.4665,0.4665,0.4665,0.4665,0.4665,0.4665,0.4665,0.4665,0.4665,0.4665,0.4665,0.4665,0.4665,0.4665,0.4665,0.4665,0.4665,0.4447,0.4083,0.3501,0.3281,0.2625,0.1604,0.1094,0.0875,0.0802,0.0219,0.0,0.0,0.0,0.0,0.0,0.0,0.0,0.0,0.0,0.0,0.0,0.0,0.0,0.0,0.0,0.0,0.0,0.0,0.0,0.0,0.0,0.0,0.0,0.0,0.0,0.0,0.0,0.0,0.0,0.0,-0.1919,-0.162,-0.1334,-0.0953,-0.0526,0.0,0.0,0.0,0.0,0.0,0.0,0.0,0.0,0.0,0.0,0.0,0.0,0.0,-0.0289,-0.0143,0.032,0.0092,0.0323,0.0744,0.0,0.0,0.0,0.0,0.0,0.0,0.0,0.0,0.0,0.2219,0.264,0.3125,0.2855,0.3247,0.3646,0.3374,0.3374,0.3507,0.3845,0.3756,0.3612,0.371,0.0,0.0,0.0,0.445,0.4405,0.426,0.447,0.0,0.4473,0.4571,0.4665,0.4665,0.4665,0.4665,0.4665,0.4665,0.4665,0.4665,0.4665,0.4665,0.4665,0.4665,0.4665,0.4665,0.4665,0.4665,0.4665,0.4665,0.4665,0.4665,0.4665,0.4447,0.401,0.401,0.3717,0.3207,0.2113,0.1603,0.1603,0.0802,0.0292,0.0,0.0,0.0,0.0,0.0,0.0,0.0,0.0,0.0,0.0,0.0,0.0,0.0,0.0,0.0,0.0,0.0,0.0,0.0,0.0,0.0,0.0,0.0,0.0,0.0,0.0,0.0,0.0,0.0,0.0,-0.2335,-0.2291,-0.134,-0.0532,0.0,0.0,0.0,0.0,0.0,0.0,0.0,0.0,0.0,0.0,0.0097,0.0142,0.0138,-0.0046,0.0552,0.1534,0.1353,0.1808,0.2519,0.2104,0.0,0.0,0.0,0.0,0.0,0.0,0.0,0.0,0.4044,0.4591,0.5097,0.4202,0.4365,0.4731,0.4077,0.3828,0.3874,0.4334,0.4038,0.0,0.3888,0.3936,0.4113,0.457,0.0,0.4639,0.466,0.4665,0.4665,0.4665,0.4665,0.4665,0.4665,0.4665,0.4665,0.4665,0.4665,0.4665,0.4665,0.4665,0.4665,0.4665,0.4665,0.4665,0.4665,0.4665,0.4665,0.4665,0.4665,0.4665,0.4665,0.4665,0.4665,0.4665,0.4665,0.4665,0.4664,0.3134,0.2333,0.226,0.1603,0.0875,0.0219,0.0219,0.0146,0.0146,0.0219,0.0146,0.0,0.0073,0.0073,0.0,0.0,0.0,0.0,0.0,0.0,0.0,0.0,0.0,0.0,0.0,0.0,0.0,0.0,0.0,0.0,0.0,0.0,0.0,0.0,0.0,-0.2734,-0.2337,-0.1336,-0.055,0.0,0.0,0.0,0.0,0.0,0.0,0.0,0.0,0.0,0.0047,0.0895,0.122,0.1133,0.193,0.2403,0.2565,0.2548,0.2734,0.3021,0.2939,0.3403,0.0,0.0,0.0,0.0,0.0,0.0,0.0,0.4376,0.456,0.4844,0.4993,0.5507,0.6044,0.635,0.5755,0.5114,0.555,0.4618,0.3749,0.4369,0.4365,0.4313,0.4604,0.4515,0.4442,0.463,0.4665,0.4665,0.4665,0.4665,0.4665,0.4665,0.4665,0.4665,0.4665,0.4665,0.4665,0.4665,0.4665,0.4665,0.4665,0.4665,0.4665,0.4665,0.4665,0.4665,0.4665,0.4665,0.4665,0.4665,0.4665,0.4665,0.4665,0.4665,0.4665,0.4664,0.3718,0.2916,0.226,0.2114,0.1968,0.1822,0.1822,0.1458,0.1021,0.1604,0.1094,0.0073,0.0729,0.051,0.0,0.0,0.0,0.0,0.0,0.0,0.0,0.0,0.0,0.0,0.0,0.0,0.0,0.0,0.0,0.0,0.0,0.0,0.0,0.0,0.0,0.0,-0.1987,-0.1455,-0.0804,0.0,0.0,0.0,0.0,0.0,0.0,0.0,0.0,0.0282,0.0798,0.1259,0.1767,0.2187,0.2708,0.321,0.3591,0.3725,0.4019,0.4425,0.4286,0.4623,0.5105,0.4695,0.0,0.0,0.0,0.0,0.0,0.0,0.0,0.6172,0.5925,0.6232,0.6666,0.6735,0.5976,0.5154,0.5167,0.0,0.4172,0.4433,0.4486,0.4514,0.4639,0.4565,0.4516,0.4642,0.4665,0.4665,0.4665,0.4665,0.4665,0.4665,0.4665,0.4665,0.4665,0.4665,0.4665,0.4665,0.4665,0.4665,0.4665,0.4665,0.4665,0.4665,0.4665,0.4665,0.4665,0.4665,0.4665,0.4665,0.4665,0.4665,0.4665,0.4665,0.4665,0.4664,0.4301,0.3646,0.2843,0.2843,0.2625,0.2333,0.2333,0.2041,0.1749,0.2114,0.1822,0.1167,0.1604,0.1458,0.1094,0.0,0.0,0.0,0.0,0.0,0.0,0.0,0.0,0.0,0.0,0.0,0.0,0.0,0.0,0.0,0.0,0.0,0.0,0.0,0.0,0.0,0.0,-0.1598,-0.1091,0.0,0.0,0.0,0.0,0.0185,0.0328,0.0385,0.0379,0.0805,0.1634,0.195,0.2532,0.3275,0.3331,0.3842,0.4574,0.4768,0.5285,0.0,0.0,0.0,0.5805,0.5785,0.593,0.6245,0.6781,0.0,0.0,0.0,0.0,0.7622,0.6719,0.6842,0.7228,0.6749,0.6155,0.5573,0.5216,0.5043,0.0,0.4805,0.4699,0.4615,0.4655,0.4665,0.4665,0.4665,0.4665,0.4665,0.4665,0.4665,0.4665,0.4665,0.4665,0.4665,0.4665,0.4665,0.4665,0.4665,0.4665,0.4665,0.4665,0.4665,0.4665,0.4665,0.4665,0.4665,0.4665,0.4665,0.4665,0.4665,0.4665,0.4665,0.4665,0.4665,0.4665,0.4665,0.4665,0.4301,0.3718,0.3718,0.3353,0.2697,0.2697,0.2624,0.2552,0.2624,0.2551,0.2333,0.2478,0.2405,0.2333,0.0,0.0,0.0,0.0,0.0,0.0,0.0,0.0,0.0,0.0,0.0,0.0,0.0,0.0,0.0,0.0,0.0,0.0,-0.3168,0.0,0.0,-0.1538,-0.149,-0.1055,0.0,0.0,0.0,0.0,0.0924,0.152,0.0,0.0,0.0,0.1703,0.0,0.4642,0.4338,0.5027,0.5376,0.5502,0.5413,0.0,0.0,0.0,0.0,0.6956,0.6659,0.6822,0.7155,0.6914,0.7079,0.0,0.0,0.0,0.7344,0.714,0.7577,0.8173,0.8419,0.8667,0.8796,0.8418,0.7207,0.6196,0.0,0.0,0.4414,0.0,0.4665,0.4665,0.4665,0.4665,0.4665,0.4665,0.4665,0.4665,0.4665,0.4665,0.4665,0.4665,0.4665,0.4665,0.4665,0.4665,0.4665,0.4665,0.4665,0.4665,0.4665,0.4665,0.4665,0.4665,0.4665,0.4665,0.4665,0.4665,0.4665,0.4665,0.4665,0.4665,0.4665,0.4665,0.4664,0.4518,0.4518,0.4445,0.4373,0.4373,0.3937,0.3427,0.4083,0.3498,0.2405,0.3063,0.2916,0.2333,0.0,0.0,0.0,0.0,0.0,0.0,0.0,0.0,0.0,0.0,0.0,0.0,0.0,0.0,0.0,-0.4755,-0.3852,-0.3364,-0.3328,-0.3297,-0.2742,-0.1574,-0.1622,-0.1192,-0.0048,-0.0142,0.0141,0.0893,0.1362,0.2116,0.0,0.3886,0.4058,0.0,0.0,0.0,0.0,0.0,0.0,0.0,0.0,0.0,0.0,0.0,0.0,0.0,0.0,0.0,0.0,0.7062,0.7083,0.7181,0.721,0.0,0.0,0.0,0.7371,0.7724,0.8012,0.837,0.8701,0.8774,0.787,0.7174,0.8099,0.6702,0.5326,0.5904,0.5317,0.4665,0.4665,0.4665,0.4665,0.4665,0.4665,0.4665,0.4665,0.4665,0.4665,0.4665,0.4665,0.4665,0.4665,0.4665,0.4665,0.4665,0.4665,0.4665,0.4665,0.4665,0.4665,0.4665,0.4665,0.4665,0.4665,0.4665,0.4665,0.4665,0.4665,0.4665,0.4665,0.4665,0.4665,0.4665,0.4665,0.4665,0.4665,0.4665,0.4519,0.4228,0.4592,0.43,0.3716,0.4009,0.3936,0.3644,0.0,0.0,0.0,0.0,0.0,0.0,0.0,0.0,0.0,0.0,0.0,0.0,0.0,0.0,0.0,0.0,-0.3747,-0.3388,-0.3339,-0.3192,-0.2621,-0.1526,-0.1574,-0.1097,0.0,-0.0191,0.0333,0.1618,0.1865,0.2773,0.4255,0.5633,0.6163,0.0,0.6075,0.6202,0.0,0.0,0.0,0.0,0.0,0.0,0.0,0.0,0.0,0.0,0.0,0.0,0.0,0.0,0.0,0.0,0.7352,0.7307,0.0,0.0,0.0,0.724,0.7756,0.8036,0.8382,0.9059,0.8492,0.7964,0.0,0.0,0.6608,0.0,0.6199,0.5317,0.5317,0.4955,0.4665,0.4665,0.4665,0.4665,0.4665,0.4665,0.4665,0.4665,0.4665,0.4665,0.4665,0.4665,0.4665,0.4665,0.4665,0.4665,0.4665,0.4665,0.4665,0.4665,0.4665,0.4665,0.4665,0.4665,0.4665,0.4665,0.4665,0.4665,0.4665,0.4665,0.4665,0.4665,0.4665,0.4665,0.4665,0.4665,0.4665,0.4665,0.4665,0.4665,0.4665,0.4665,0.4665,0.4665,0.0,0.0,0.0,0.0,0.0,0.0,0.0,0.0,0.0,0.0,0.0,0.0,-0.5966,-0.5184,-0.4378,-0.3297,-0.3148,-0.3101,-0.3097,-0.2571,-0.2048,-0.1526,-0.1049,0.0,0.0,0.0,0.0524,0.1618,0.2616,0.388,0.5335,0.6778,0.7383,0.7359,0.7257,0.7247,0.7185,0.0,0.0,0.0,0.0,0.0,0.0,0.0,0.0,0.0,0.0,0.0,0.0,0.0,0.0,0.0,0.0,0.0,0.0,0.0,0.0,0.0,0.846,0.8724,0.907,1.044,0.9582,0.8602,0.0,0.0,0.7843,0.8109,0.7436,0.6908,0.6908,0.5678,0.4665,0.4665,0.4665,0.4665,0.4665,0.4665,0.4665,0.4665,0.4665,0.4665,0.4665,0.4665,0.4665,0.4665,0.4665,0.4665,0.4665,0.4665,0.4665,0.4665,0.4665,0.4665,0.4665,0.4665,0.4665,0.4665,0.4665,0.4665,0.4665,0.4665,0.4665,0.4665,0.4665,0.4665,0.4665,0.4665,0.4665,0.4665,0.4665,0.4665,0.4665,0.4665,0.4665,0.4665,0.0,0.0,0.0,0.0,0.0,0.0,0.0,0.0,0.0,0.0,0.0,0.0,0.0,-0.4837,-0.4253,-0.3139,-0.3132,-0.3243,-0.3285,-0.2762,-0.2191,-0.1526,-0.1144,-0.0671,0.0,0.0534,0.1358,0.2519,0.3462,0.4606,0.6014,0.649,0.6851,0.7088,0.7824,0.7611,0.669,0.761,0.0,0.0,0.0,0.0,0.0,0.0,0.0,0.0,0.0,0.0,0.0,0.0,0.0,0.0,0.0,0.0,0.0,0.0,0.0,0.7305,0.8215,0.8407,0.8635,0.9969,0.9561,0.9087,1.0049,0.9498,0.8757,0.8823,0.8617,0.8338,0.7848,0.6116,0.4665,0.4665,0.4665,0.4665,0.4665,0.4665,0.4665,0.4665,0.4665,0.4665,0.4665,0.4665,0.4665,0.4665,0.4486,0.4461,0.4654,0.4481,0.4465,0.4658,0.4665,0.4665,0.4665,0.4665,0.4665,0.4665,0.4665,0.4665,0.4665,0.4665,0.4665,0.4665,0.4665,0.4665,0.4665,0.4665,0.4665,0.4665,0.4665,0.4665,0.4665,0.4665,0.4665,0.4665,0.0,0.0,0.0,0.0,0.0,0.0,0.0,0.0,0.0,0.0,0.0,0.0,0.0,0.0,-0.384,-0.3089,-0.3176,-0.3252,-0.3316,-0.2647,-0.2027,-0.1555,-0.1021,-0.0489,0.0,0.0885,0.1861,0.2986,0.3936,0.5007,0.6247,0.6366,0.6542,0.6793,0.7708,0.7652,0.0,0.0,0.0,0.7387,0.0,0.0,0.811,0.0,0.0,0.0,0.0,0.0,0.0,0.0,0.0,0.0,0.0,0.0,0.0,0.0,0.0,0.0,0.7818,0.0,0.7918,0.8904,0.8901,0.8865,0.9865,0.9957,0.9884,0.994,1.0059,0.99,0.9417,0.7661,0.6039,0.5533,0.5027,0.4665,0.4665,0.4665,0.4665,0.4665,0.4665,0.4665,0.4665,0.4665,0.4665,0.4665,0.448,0.0,0.4654,0.4476,0.4458,0.4658,0.4665,0.4665,0.4665,0.4665,0.4665,0.4665,0.4665,0.4665,0.4665,0.4665,0.4665,0.4665,0.4665,0.4665,0.4665,0.4665,0.4665,0.4665,0.4665,0.4665,0.4665,0.4665,0.4665,0.4665,0.0,0.0,0.0,0.0,0.0,0.0,0.0,0.0,0.0,-0.7493,0.0,0.0,0.0,0.0,0.0,-0.3099,-0.3099,-0.3078,-0.3089,-0.2113,-0.1535,-0.1612,-0.0555,0.0,0.0,0.094,0.1908,0.2934,0.3979,0.5032,0.6033,0.0,0.6541,0.6557,0.6972,0.7448,0.7886,0.0,0.8945,0.9033,0.0,0.9103,0.9152,0.0,0.0,0.0,0.8554,0.8446,0.0,0.0,0.0,0.0,0.0,0.0,0.0,0.0,0.0,0.0,0.0,0.0,0.0,0.0,0.0,0.0,0.8367,0.0,1.1102,1.1401,1.1545,1.1627,1.163,1.0356,0.8855,0.7412,0.5822,0.4736,0.4736,0.4738,0.4665,0.4665,0.4665,0.4665,0.4665,0.4665,0.4665,0.4665,0.4655,0.4655,0.4664,0.4665,0.4665,0.4665,0.4665,0.4665,0.4665,0.4665,0.4665,0.4665,0.4665,0.4665,0.4665,0.4665,0.4665,0.4665,0.4665,0.4665,0.4665,0.4665,0.4665,0.4665,0.4665,0.4665,0.4665,0.4665,0.4665,0.4665,0.0,0.0,0.0,0.0,0.0,0.0,0.0,0.0,-0.8367,0.0,0.0,0.0,-0.3528,-0.319,-0.3115,-0.311,-0.3115,-0.314,-0.3152,-0.2153,-0.1605,-0.1613,-0.0548,0.0,0.0,0.1025,0.1631,0.1822,0.343,0.4296,0.4507,0.5327,0.0,0.0,0.6345,0.6671,0.6868,0.8829,0.0,0.0,0.9947,0.9812,0.0,0.0,0.0,0.0,0.0,0.8699,0.8552,0.0,0.8601,0.8185,0.0,0.0,0.0,0.0,0.0,0.0,0.7495,0.0,0.0,0.0,0.0,0.0,0.0,0.0,0.9842,1.0185,1.1206,1.21,1.2423,1.165,1.0796,1.0434,0.8131,0.6328,0.6328,0.5389,0.4665,0.4665,0.4665,0.4665,0.4665,0.4665,0.4665,0.0,0.4463,0.4436,0.4653,0.4665,0.4665,0.4665,0.4665,0.4665,0.4665,0.4665,0.4665,0.4665,0.4665,0.4665,0.4665,0.4665,0.4665,0.4665,0.4665,0.4665,0.4665,0.4665,0.4665,0.4665,0.4665,0.4665,0.4665,0.4665,0.4665,0.4665,0.0,0.0,0.0,0.0,0.0,0.0,0.0,0.0,-0.8245,0.0,0.0,0.0,-0.3263,-0.3065,-0.311,-0.3122,-0.3105,-0.3106,-0.314,-0.2178,-0.1577,-0.1577,-0.0536,0.0,0.0,0.1003,0.1691,0.2019,0.3452,0.4349,0.4656,0.5238,0.0,0.0,0.0,0.0,0.0,0.0,0.0,0.0,0.9939,0.0,0.0,0.9579,0.9388,0.0,0.0,0.0,0.9225,0.9568,0.9115,0.0,0.0,0.0,0.0,0.0,0.0,0.0,0.0,0.0,0.0,0.0,0.0,0.0,0.7558,0.8707,0.9835,0.0,1.1644,1.2838,1.2706,1.2314,1.2021,1.2021,0.9949,0.8306,0.8033,0.6618,0.5678,0.5678,0.5098,0.4665,0.4665,0.4665,0.4665,0.4665,0.4501,0.448,0.4655,0.4665,0.4665,0.4665,0.4665,0.4665,0.4665,0.4665,0.4665,0.4665,0.4665,0.4665,0.4665,0.4665,0.4665,0.4665,0.4665,0.4665,0.4665,0.4665,0.4665,0.4665,0.4665,0.4665,0.4665,0.4665,0.4665,0.4665,0.0,0.0,0.0,0.0,0.0,0.0,0.0,0.0,0.0,0.0,-0.5736,-0.4889,-0.3273,-0.309,-0.3112,-0.3165,-0.3116,-0.3081,-0.3081,-0.2118,-0.1478,-0.1478,-0.0523,0.0,0.0,0.0839,0.175,0.2721,0.3662,0.4612,0.5555,0.563,0.0,0.0,0.0,0.0,0.0,0.0,0.0,0.8652,0.9345,0.9962,0.0,0.0,0.9839,0.9812,1.048,1.0331,0.9903,1.0439,0.9914,0.0,0.0,0.0,0.0,0.0,0.8066,0.0,0.0,0.0,0.0,0.0,0.0,0.0,0.7612,0.8947,1.0232,0.0,1.2091,1.3174,1.2544,1.2414,1.2414,1.2414,1.1257,1.0159,0.953,0.817,0.7176,0.6911,0.5726,0.4882,0.4738,0.4665,0.4665,0.4665,0.4665,0.4665,0.4665,0.4665,0.4665,0.4665,0.4665,0.4665,0.4665,0.4665,0.4665,0.4665,0.4665,0.4665,0.4665,0.4665,0.4665,0.4665,0.4665,0.4665,0.4665,0.4665,0.4665,0.4665,0.4665,0.4665,0.4665,0.4665,0.4665,0.4665,0.0,0.0,0.0,0.0,0.0,0.0,0.0,0.0,0.0,-0.6318,-0.4647,-0.3498,-0.3136,-0.309,-0.3095,-0.3108,-0.3102,-0.3115,-0.3115,-0.2102,-0.1478,-0.1478,-0.0516,0.0,0.0,0.0184,0.0728,0.1707,0.2669,0.3673,0.4565,0.5236,0.0,0.0,0.0,0.0,0.0,0.0,0.0,0.7525,0.943,0.0,0.9787,1.0349,0.9947,0.9195,1.0331,1.0331,0.9839,0.0,0.9842,0.9479,0.0,0.0,0.0,0.0,0.0,0.0,0.0,0.0,0.0,0.0,0.0,0.0,0.7482,0.7617,0.8037,0.0,0.9517,1.011,1.1036,1.1252,1.1252,1.1425,1.1244,1.0819,1.0189,0.9399,0.812,0.6078,0.6268,0.6039,0.4809,0.4665,0.4665,0.4665,0.4665,0.4665,0.4665,0.4665,0.4665,0.4665,0.4665,0.4665,0.4665,0.4665,0.4665,0.4665,0.4665,0.4665,0.4665,0.4665,0.4665,0.4665,0.4665,0.4665,0.4665,0.4665,0.4665,0.4665,0.4665,0.4665,0.4665,0.4665,0.4665,0.4665,0.0,0.0,0.0,0.0,0.0,0.0,0.0,0.0,0.0,-0.6355,-0.4351,-0.309,-0.309,0.0,0.0,0.0,0.0,0.0,0.0,0.0,-0.1434,-0.1434,-0.0504,0.0,0.0,0.0,0.0722,0.2137,0.2655,0.3607,0.489,0.5318,0.0,0.0,0.0,0.0,0.0,0.0,0.6376,0.7148,0.8994,0.0,0.971,1.0442,1.0348,0.9907,1.0504,1.0527,1.0222,0.992,0.9822,0.0,0.0,0.8689,0.8275,0.0,0.7821,0.7706,0.0,0.0,0.0,0.7794,0.0,0.0,0.0,0.7738,0.8101,0.8697,0.9248,0.974,1.0019,1.0128,1.0233,1.0341,1.0341,1.0268,1.0119,0.9947,0.9188,0.7605,0.7196,0.64,0.4882,0.4665,0.4665,0.4665,0.4665,0.4665,0.4665,0.4665,0.4665,0.4665,0.4665,0.4665,0.4665,0.4665,0.4665,0.4665,0.4665,0.4665,0.4665,0.4665,0.4665,0.4665,0.4665,0.4665,0.4665,0.4665,0.4665,0.4665,0.4665,0.4665,0.4665,0.4665,0.4665,0.4665,-0.8812,0.0,0.0,0.0,0.0,0.0,0.0,0.0,0.0,-0.6058,-0.4218,0.0,0.0,0.0,0.0,0.0,0.0,0.0,0.0,0.0,0.0,0.0,0.0,0.0,0.0,0.0,0.0851,0.2628,0.2761,0.3654,0.5213,0.5363,0.0,0.0,0.0,0.0,0.0,0.0,0.0,0.7159,0.0,0.9269,0.9768,1.0619,1.0761,1.0589,1.0666,1.0721,1.0629,1.0022,0.9822,0.9822,0.9836,0.919,0.0,0.0,0.0,0.0,0.0,0.0,0.0,0.0,0.0,0.7251,0.0,0.0,0.0,0.8456,0.9145,0.0,0.0,0.0,0.0,0.0,0.0,0.0,0.0,0.9999,0.0,0.9056,0.7841,0.6514,0.4981,0.4685,0.4602,0.466,0.4665,0.4665,0.4665,0.4665,0.4665,0.4665,0.4665,0.4665,0.4665,0.4665,0.4665,0.4665,0.4665,0.4665,0.4665,0.4665,0.4665,0.4665,0.4665,0.4665,0.4665,0.4665,0.4665,0.4665,0.4665,0.4665,0.4665,0.4665,0.4665,0.4665,-0.8792,-0.8804,0.0,0.0,0.0,0.0,0.0,0.0,0.0,0.0,0.0,0.0,0.0,0.0,0.0,0.0,0.0,0.0,-0.3018,0.0,0.0,0.0,0.0,0.0,0.0,0.0,0.0,0.157,0.2351,0.327,0.4292,0.4948,0.0,0.0,0.5246,0.0,0.0,0.0,0.6844,0.0,0.8425,0.8911,0.0,1.1007,1.0944,1.0058,1.0545,1.0721,1.0629,0.0,0.9822,0.9734,0.0,0.8788,0.8435,0.0,0.0,0.0,0.0,0.0,0.0,0.0,0.7485,0.0,0.0,0.0,0.7125,0.7125,0.0,0.0,0.0,0.0,0.0,0.0,0.0,0.0,0.9116,0.961,0.9433,0.7977,0.7612,0.681,0.5311,0.4622,0.4377,0.4645,0.4665,0.4665,0.4665,0.4665,0.4665,0.4665,0.4665,0.4665,0.4665,0.4665,0.4665,0.4665,0.4665,0.4665,0.4665,0.4665,0.4665,0.4665,0.4665,0.4665,0.4665,0.4665,0.4665,0.4665,0.4665,0.4665,0.4665,0.4665,0.4665,0.4665,-0.8435,-0.8674,0.0,0.0,0.0,0.0,0.0,0.0,0.0,0.0,0.0,0.0,0.0,0.0,0.0,0.0,0.0,-0.3432,0.0,0.0,0.0,0.0,0.0,0.0,0.0,0.0,0.0,0.0,0.2256,0.3154,0.3987,0.4801,0.0,0.0,0.517,0.0,0.5892,0.0,0.6589,0.0,0.0,0.0,0.0,0.9962,1.0394,1.0119,1.0401,1.0616,1.0575,0.0,0.9771,0.0,0.0,0.0,0.0,0.0,0.0,0.0,0.0,0.0,0.0,0.0,0.0,0.0,0.7997,0.0,0.6886,0.0,0.0,0.0,0.0,0.0,0.0,0.0,0.7425,0.0,0.0,0.0,0.8668,0.0,0.0,0.0,0.5628,0.4541,0.4082,0.4382,0.4405,0.4405,0.4405,0.457,0.4665,0.4665,0.4665,0.4665,0.4665,0.4665,0.4665,0.4665,0.4665,0.4665,0.4665,0.4665,0.4665,0.4665,0.4665,0.4665,0.4665,0.4665,0.4665,0.4665,0.4665,0.4665,0.4665,0.4665,0.4665,0.4665,-0.7544,0.0,0.0,0.0,0.0,0.0,-0.5346,-0.4649,-0.4281,0.0,0.0,0.0,-0.3402,-0.3331,0.0,0.0,-0.3627,-0.363,0.0,0.0,-0.1872,0.0,0.0,0.0,0.0,0.0,0.0,0.0,0.1872,0.2712,0.3531,0.4412,0.0,0.0,0.0,0.5432,0.5855,0.0,0.0,0.7169,0.79,0.7995,0.7881,0.9018,0.9761,1.0204,1.0415,1.0604,1.0561,0.9704,1.0059,0.0,0.9631,0.0,0.0,0.0,0.0,0.0,0.8662,0.0,0.0,0.0,0.0,0.0,0.0,0.0,0.0,0.0,0.0,0.0,0.0,0.0,0.0,0.0,0.0,0.7271,0.0,0.7651,0.0,0.0,0.0,0.0,0.0,0.4804,0.4338,0.4078,0.417,0.4217,0.4217,0.4501,0.4665,0.4665,0.4665,0.4665,0.4665,0.4665,0.4665,0.4665,0.4665,0.4665,0.4665,0.4665,0.4665,0.4665,0.4665,0.4665,0.4665,0.4665,0.4665,0.4665,0.4665,0.4665,0.4665,0.4665,0.4665,0.4665,-0.5764,-0.5944,0.0,0.0,0.0,0.0,-0.3244,-0.316,-0.3248,0.0,0.0,0.0,0.0,0.0,0.0,0.0,0.0,-0.3739,-0.3679,0.0,-0.2069,0.0,0.0,0.0,0.0,0.0,0.0,0.0,0.0,0.1765,0.2546,0.3444,0.0,0.0,0.0,0.5521,0.6124,0.6709,0.7298,0.7877,0.8412,0.8599,0.8601,0.0,0.9403,1.0256,1.0568,0.0,0.0,1.0805,1.0849,0.0,0.0,0.0,0.0,0.0,0.0,0.0,0.0,0.0,0.0,0.8514,0.0,0.0,0.0,0.0,0.6664,0.0,0.0,0.0,0.0,0.0,0.0,0.0,0.0,0.0,0.0,0.0,0.0,0.0,0.0,0.0,0.0,0.5504,0.5412,0.39,0.4052,0.4217,0.4217,0.4501,0.4665,0.4665,0.4665,0.4665,0.4665,0.4665,0.4665,0.4665,0.4665,0.4665,0.4665,0.4665,0.4665,0.4665,0.4665,0.4665,0.4665,0.4665,0.4665,0.4665,0.4665,0.4665,0.4665,0.4665,0.4665,0.4665,0.0,0.0,0.0,0.0,0.0,-0.4061,-0.3086,-0.3033,0.0,0.0,0.0,0.0,0.0,-0.3691,-0.3682,0.0,0.0,-0.4065,-0.3924,-0.2834,0.0,0.0,0.0,0.0,0.0,0.0,0.0,0.0,0.0,0.0,0.2543,0.0,0.0,0.0,0.0,0.527,0.0,0.0,0.0,0.0,0.0,0.8046,0.8251,0.0,0.9453,0.9519,1.0123,1.0256,0.0,0.9653,0.9778,1.0091,1.0009,0.9897,1.0002,1.1272,1.0838,0.0,0.0,0.0,1.0429,0.9862,0.0,0.0,0.0,0.0,0.0,0.0,0.0,0.0,0.0,0.0,0.0,0.0,0.0,0.0,0.0,0.0,0.0,0.0,0.0,0.0,0.0,0.0,0.4303,0.3505,0.3529,0.3582,0.3623,0.4097,0.4368,0.4368,0.4561,0.4665,0.4665,0.4665,0.4665,0.4665,0.4665,0.4665,0.4665,0.4665,0.4665,0.4665,0.4665,0.4665,0.4665,0.4665,0.4665,0.4665,0.4665,0.4665,0.4665,0.4665,0.4665,0.4665,-0.2921,0.0,0.0,0.0,0.0,0.0,0.0,0.0,0.0,0.0,-0.3465,0.0,-0.3852,0.0,-0.3895,0.0,-0.4074,-0.3991,-0.3743,-0.2677,0.0,-0.1842,-0.063,0.0,0.0,0.0,0.0,0.0,0.0,0.2218,0.0,0.0,0.0,0.0,0.0,0.4953,0.5401,0.0,0.6732,0.0,0.0,0.7907,0.0,0.0,0.9023,0.905,0.0,0.9854,0.9669,0.951,0.9758,1.0059,0.9945,1.0141,1.0531,1.1571,1.1265,1.0758,1.1497,1.1493,0.0,1.0819,1.0381,0.0,0.9432,0.0,0.0,0.0,0.0,0.0,0.0,0.0,0.0,0.0,0.0,0.0,0.0,0.6803,0.0,0.0,0.0,0.0,0.0,0.0,0.4336,0.3213,0.3192,0.3188,0.0,0.3867,0.4207,0.4185,0.4496,0.4665,0.4665,0.4665,0.4665,0.4665,0.4665,0.4665,0.4665,0.4665,0.4665,0.4665,0.4665,0.4665,0.4665,0.4665,0.4665,0.4665,0.4665,0.4665,0.4665,0.4665,0.4665,0.4665,0.0,0.0,0.0,0.0,-0.2929,0.0,0.0,0.0,-0.348,0.0,-0.3794,-0.3759,-0.3873,-0.3749,-0.3712,-0.3867,-0.3783,-0.3555,-0.3192,-0.2345,0.0,0.0,-0.0405,0.0,0.0,0.0,0.0,0.0,0.0,0.0,0.0,0.0,0.0,0.0,0.4543,0.0,0.493,0.5701,0.6299,0.6796,0.7552,0.8117,0.8503,0.8038,0.8166,0.872,0.9383,0.9646,0.9715,1.0386,1.0585,1.0518,1.0256,1.0588,1.1108,1.121,1.1162,1.1365,1.2521,1.2248,1.1574,1.1254,1.1106,0.0,0.0,0.0,0.918,0.0,0.0,0.0,0.0,0.0,0.0,0.0,0.0,0.0,0.0,0.0,0.0,0.0,0.0,0.0,0.0,0.5839,0.5356,0.3012,0.304,0.3133,0.0,0.3735,0.4157,0.4131,0.4448,0.4634,0.4665,0.465,0.465,0.4665,0.4665,0.4665,0.4665,0.4665,0.4665,0.4665,0.4665,0.4665,0.4665,0.4665,0.4665,0.4665,0.4665,0.4665,0.4665,0.4665,0.4665,0.4665,-0.2921,-0.292,-0.292,0.0,-0.3021,-0.3159,0.0,0.0,0.0,0.0,-0.3826,-0.3853,-0.394,-0.3579,-0.3294,-0.3234,-0.2871,0.0,0.0,0.0,0.0,-0.1074,-0.0389,0.0,0.0,0.0,0.0,0.0,0.0,0.0,0.2304,0.0,0.0,0.0,0.0,0.0,0.4379,0.562,0.6687,0.7557,0.7095,0.737,0.0,0.0,0.8095,0.8653,0.8787,0.8853,0.892,0.9053,0.912,0.9186,0.9652,0.9915,1.0368,1.1621,1.1645,1.1434,1.2806,1.2606,1.2059,1.1938,1.1518,1.1013,0.0,0.0,0.0,0.0,0.0,0.0,0.0,0.0,0.0,0.0,0.0,0.0,0.0,0.0,0.0,0.6436,0.0,0.0,0.0,0.5262,0.4474,0.3467,0.2741,0.2485,0.2942,0.0,0.3528,0.4179,0.4067,0.4213,0.466,0.4443,0.4443,0.4665,0.4665,0.4665,0.4665,0.4665,0.4665,0.4665,0.4665,0.4665,0.4665,0.4665,0.4665,0.4665,0.4665,0.4665,0.4665,0.4665,0.4665,0.4665,-0.2921,0.0,0.0,-0.292,0.0,0.0,-0.3333,-0.3523,0.0,-0.3961,-0.3742,0.0,-0.3656,-0.3129,-0.2706,-0.2639,-0.2298,0.0,-0.1563,0.0,0.0,-0.0604,-0.0198,0.0,0.0,0.0,0.0,0.0,0.0,0.0,0.2209,0.0,0.0,0.0,0.0,0.4023,0.0,0.548,0.6473,0.7233,0.6864,0.71,0.0,0.7393,0.7738,0.8395,0.8448,0.8499,0.8595,0.8649,0.8668,0.8744,0.9202,0.9555,1.007,1.1123,1.1124,1.1031,1.2255,1.2248,1.1965,1.2183,1.2131,1.1996,1.186,1.1187,1.0657,0.0,0.0,0.0,0.0,0.0,0.0,0.0,0.0,0.0,0.0,0.0,0.0,0.0,0.6648,0.0,0.6321,0.5042,0.4053,0.3585,0.2658,0.2314,0.0,0.0,0.3413,0.368,0.3888,0.4064,0.4271,0.4105,0.4172,0.4469,0.4469,0.4537,0.4665,0.4665,0.4665,0.4665,0.4665,0.4665,0.4665,0.4665,0.4665,0.4665,0.4665,0.4665,0.4665,0.4665,0.4665,0.4665,0.0,0.0,0.0,0.0,0.0,0.0,0.0,-0.3417,0.0,-0.404,0.0,-0.2924,-0.3127,-0.2514,-0.2026,-0.2083,0.0,-0.1442,-0.1003,-0.0792,-0.0482,0.0,0.0,0.0,0.0,0.0,0.0,0.0,0.0,0.0,0.0,0.0,0.0,0.0,0.0,0.0,0.0,0.5313,0.5969,0.6464,0.6653,0.699,0.7346,0.7051,0.7419,0.8027,0.8141,0.8379,0.863,0.8753,0.8793,0.8812,0.8849,0.9365,0.9944,1.0223,1.0192,1.029,1.1347,1.1531,1.1603,1.2105,1.2678,1.3111,1.2896,1.2545,1.2266,1.2338,1.187,1.133,0.0,0.0,0.0,0.0,0.0,0.0,0.0,0.0,0.0,0.0,0.0,0.0,0.0,0.0,0.4064,0.363,0.2829,0.0,0.0,0.0,0.3437,0.3167,0.3781,0.4004,0.383,0.3789,0.394,0.4274,0.4236,0.4373,0.4665,0.4665,0.4665,0.4665,0.4665,0.4665,0.4665,0.4665,0.4665,0.4665,0.4665,0.4665,0.4665,0.4665,0.4665,0.4665,0.0,0.0,0.0,0.0,0.0,-0.1959,-0.2094,-0.2285,-0.2424,-0.2349,-0.2333,-0.229,-0.2127,-0.164,-0.1305,-0.1261,-0.0719,0.0,0.0,0.0,0.0,0.0,0.0,0.0,0.0,0.0,0.0,0.0,0.0,0.0,0.0,0.0,0.0,0.0,0.0,0.0,0.5516,0.5063,0.0,0.6714,0.6528,0.6632,0.6985,0.7403,0.7651,0.7798,0.7838,0.829,0.8758,0.8878,0.8849,0.8855,0.8876,0.9021,0.9251,1.0082,0.9842,0.9655,1.1207,1.1172,1.0956,1.1961,1.232,1.2538,1.3111,1.2968,1.2757,1.3043,1.2523,1.2048,1.1938,0.0,0.0,0.0,0.0,0.0,0.0,0.0,0.0,0.0,0.0,0.0,0.0,0.0,0.0,0.0,0.0,0.0,0.0,0.0,0.2891,0.0,0.3466,0.3639,0.0,0.0,0.4044,0.4583,0.4335,0.4373,0.4665,0.4665,0.4665,0.4665,0.4665,0.4665,0.4665,0.4665,0.4665,0.4665,0.4665,0.4665,0.4665,0.4665,0.4665,0.4665,0.0,0.0,0.0,0.0,0.0,0.0,0.0,-0.1112,-0.13,-0.1958,-0.1783,-0.1593,-0.1516,-0.0905,-0.0557,-0.0546,-0.0202,0.0,0.0,0.0,0.0,0.0,0.0,0.0,0.0,0.0,0.0,0.0,0.0,0.0,0.0,0.0,0.0,0.0,0.0,0.4653,0.0,0.0,0.0,0.6364,0.6436,0.6546,0.6747,0.7044,0.7301,0.7498,0.7599,0.7956,0.8408,0.8601,0.8833,0.8987,0.9117,0.9136,0.9218,0.9632,0.9506,0.9377,1.0221,1.0452,1.0599,1.1172,1.1603,1.1961,1.232,1.2463,1.2534,1.2681,1.2474,1.1998,1.1451,1.0513,0.0,0.0,0.0,0.0,0.0,0.0,0.0,0.0,0.0,0.0,0.0,0.0,0.0,0.0,0.0,0.0,0.0,0.0,0.2866,0.0,0.0,0.0,0.3981,0.0,0.3992,0.4431,0.4286,0.4373,0.4665,0.4665,0.4665,0.4665,0.4665,0.4665,0.4665,0.4665,0.4665,0.4665,0.4665,0.4665,0.4665,0.4665,0.4665,0.4665,0.0,-0.1248,0.0,0.0,-0.0776,0.0,-0.0558,-0.0266,-0.0418,-0.1547,-0.1197,-0.0921,-0.0933,-0.0356,0.0,0.0,0.0,0.0,0.0,0.0,0.0,0.0,0.0,0.0,0.0,0.0,-0.0066,0.0,0.0,0.0,0.0,0.0,0.0,0.0,0.0,0.0,0.0,0.0,0.5974,0.6086,0.6368,0.6537,0.6621,0.6639,0.6896,0.7253,0.728,0.7598,0.7955,0.8238,0.8596,0.8902,0.9133,0.916,0.916,0.9304,0.9304,0.9304,0.9304,0.9735,1.0311,1.0455,1.0956,1.1387,1.1531,1.1961,1.2323,1.2323,1.233,1.2002,1.1044,1.0668,0.0,0.0,0.0,0.0,0.0,0.0,0.0,0.0,0.0,0.0,0.0,0.0,0.0,0.0,0.0,0.0,0.2254,0.0,0.0,0.0,0.0,0.3624,0.3749,0.0,0.3889,0.4311,0.4247,0.4373,0.4665,0.4665,0.4665,0.4665,0.4665,0.4665,0.4665,0.4665,0.4665,0.4665,0.4665,0.4665,0.4665,0.4665,0.4665,0.4665,0.0,0.0,0.0,0.0,0.0,0.0,-0.0068,0.0,-0.0068,-0.0213,-0.0143,-0.0072,-0.0145,-0.0073,0.0,0.0,0.0,0.0,0.0,0.0,0.0,0.0,0.0,0.0,0.0,0.0,-0.0137,0.0,0.0,0.2217,0.0,0.0,0.0,0.0,0.0,0.0,0.0,0.5884,0.6153,0.6531,0.6564,0.6633,0.6723,0.68,0.6904,0.6925,0.7017,0.7266,0.7625,0.7697,0.7917,0.8283,0.8654,0.8729,0.8801,0.916,0.9304,0.9304,0.9304,0.9377,0.959,1.0311,1.0527,1.0812,1.1459,1.2176,1.2753,1.2753,1.2753,1.2591,1.2098,1.1226,1.0249,0.0,0.0,0.0,0.0,0.0,0.0,0.0,0.0,0.0,0.0,0.6907,0.0,0.0,0.4538,0.0,0.0,0.0,0.0,0.2638,0.2775,0.314,0.3684,0.3508,0.3866,0.4619,0.4346,0.4373,0.4665,0.4665,0.4665,0.4665,0.4665,0.4665,0.4665,0.4665,0.4665,0.4665,0.4665,0.4665,0.4665,0.4665,0.4665,0.4665,0.0,0.0,0.0,0.0,0.0,0.0,0.0,0.0,0.0,0.0,0.0,0.0,0.0,0.0,0.0,0.0,0.0,0.0,0.0,0.0,0.0,0.0,0.0,0.0,0.0,0.0,-0.007,0.0,0.0,0.0,0.0,0.0,0.0,0.0,0.0,0.5768,0.5954,0.6288,0.6506,0.6672,0.7152,0.742,0.7515,0.8045,0.8311,0.8375,0.8348,0.8507,0.8579,0.8071,0.8003,0.8152,0.8297,0.8367,0.8367,0.8512,0.8726,0.8871,0.8657,0.8943,0.9304,0.9374,0.959,0.9951,1.074,1.1531,1.2252,1.2681,1.2824,1.2685,1.2266,1.1653,1.0924,0.0,0.0,0.0,0.0,0.0,0.0,0.0,0.0,0.0,0.0,0.7984,0.702,0.6583,0.0,0.0,0.0,0.0,0.0,0.2654,0.0,0.3026,0.36,0.3665,0.3915,0.437,0.4471,0.4548,0.4665,0.4665,0.4665,0.4665,0.4665,0.4665,0.4665,0.4665,0.4665,0.4665,0.4665,0.4665,0.4665,0.4665,0.4665,0.4665,-0.0134,0.0,0.0,0.0,0.0,0.0,0.0,0.0,0.0,0.0,0.0,0.0,0.0,0.0,0.0,0.0,0.0,0.0,0.0,0.0,0.0,0.0,0.0,0.0,0.0,0.0,-0.0071,-0.0141,0.0771,0.0,0.0,0.0,0.0,0.0,0.5552,0.6186,0.6272,0.6795,0.7089,0.7185,0.7951,0.8296,0.8466,0.9034,0.9228,0.9304,0.9304,0.9157,0.8868,0.8285,0.7928,0.779,0.7933,0.7933,0.8005,0.808,0.8367,0.8657,0.8367,0.8943,0.959,0.9304,0.959,1.0095,1.0668,1.1387,1.2105,1.2824,1.2757,1.2545,1.2266,1.1835,1.1372,1.0616,0.0,0.0,0.0,0.0,0.0,0.0,0.9401,0.9174,0.9822,0.8591,0.7726,0.0,0.0,0.0,0.0,0.0,0.0,0.0,0.0,0.0,0.3414,0.3594,0.3878,0.4299,0.4591,0.4665,0.4665,0.4665,0.4665,0.4665,0.4665,0.4665,0.4665,0.4665,0.4665,0.4665,0.4665,0.4665,0.4665,0.4665,0.4665,0.4665,0.0,0.0,0.0,0.0,0.0,0.0,0.0,0.0,0.0,0.0,0.0,0.0,0.0,0.0,0.0,0.0,0.0,0.0,0.0,0.0,0.0,0.0,0.0,0.0,0.0,0.0,-0.0143,-0.0501,0.0,0.0,0.0504,0.0,0.494,0.6186,0.6553,0.6719,0.6719,0.7555,0.7895,0.8061,0.8839,0.9193,0.9302,0.9302,0.9302,0.9304,0.9304,0.8794,0.814,0.8068,0.7636,0.7063,0.7494,0.7638,0.7638,0.8005,0.8367,0.8729,0.8729,0.959,1.0455,1.0455,1.1028,1.1603,1.1603,1.2176,1.2896,1.3253,1.2689,1.2194,1.2194,1.1835,1.1372,1.0616,0.0,0.0,0.0,0.0,0.0,0.0,0.8377,0.8126,0.8828,0.8136,0.0,0.0,0.0,0.0,0.0,0.0,0.0,0.2206,0.1869,0.0,0.328,0.316,0.3627,0.4664,0.4665,0.4665,0.4665,0.4665,0.4665,0.4665,0.4665,0.4665,0.4665,0.4665,0.4665,0.4665,0.4665,0.4665,0.4665,0.4665,0.4665,0.4665,0.0,0.0,0.0,0.0,0.0,0.0,0.0,0.0,0.0,0.0,0.0,0.0,0.0,0.0,0.0,0.0,0.0,0.0,0.0,0.0,0.0,0.0,0.0,0.0,0.0,0.0,-0.0069,-0.0137,0.0,0.0,0.0,0.4155,0.5693,0.5867,0.6521,0.7446,0.8369,0.8157,0.8351,0.896,0.9747,1.0129,1.0167,1.0678,1.0897,1.0897,1.0897,1.0678,1.0383,0.9876,0.9588,0.9299,0.8868,0.8362,0.7996,0.8071,0.8796,0.9446,0.916,0.9807,1.0455,1.0167,1.0668,1.1315,1.189,1.261,1.3111,1.2968,1.2545,1.2194,1.2194,1.1835,1.1372,1.0616,1.0924,0.0,0.0,0.0,0.0,0.0,0.9364,0.9178,0.9924,0.9184,0.0,0.0,0.0,0.0,0.0,0.0,0.0,0.0,0.2126,0.0,0.2581,0.3059,0.3471,0.3864,0.4447,0.4665,0.4665,0.4665,0.4665,0.4665,0.4665,0.4665,0.4665,0.4665,0.4665,0.4665,0.4665,0.4665,0.4665,0.4665,0.4665,0.4743,0.0,0.0,0.0,0.0,0.0,0.0,0.0,0.0,0.0,0.0,0.0,0.0,0.0,0.0,0.0,0.0,0.0,0.0,0.0,0.0,0.0,0.0,0.0,0.0,0.0,0.0,0.0,0.0,0.0413,0.1295,0.2567,0.5129,0.6528,0.7095,0.7587,0.8334,0.9196,0.9051,0.9299,0.9807,1.0603,1.089,1.0962,1.14,1.1619,1.1619,1.1619,1.14,1.1109,1.0671,1.0311,0.9951,0.9446,0.9155,0.8935,0.8649,0.9155,0.9879,0.959,1.0167,1.0884,1.0596,1.11,1.1818,1.232,1.2685,1.2828,1.2617,1.2262,1.1979,1.1979,1.1763,1.1463,1.0992,1.1311,1.1453,1.0982,0.0,0.0,0.0,0.0,0.0,0.0,0.9907,0.9561,0.0,0.0,0.0,0.0,0.0,0.0,0.3204,0.2448,0.2163,0.2458,0.3029,0.341,0.3717,0.4373,0.4665,0.4665,0.4665,0.4665,0.4665,0.4665,0.4665,0.4665,0.4665,0.4665,0.4665,0.4665,0.4665,0.4665,0.4665,0.4665,0.4746,0.0,0.0,0.0,0.0,0.0,0.0,0.0,0.0,0.0,0.0,0.0,0.0,0.0,0.0,0.0,0.0,0.0,0.0,0.0,0.0,0.0,0.0,0.0,0.0,0.0,0.0,0.0,0.0073,0.1312,0.2911,0.4796,0.6031,0.7627,0.9377,0.9304,0.9377,0.9521,1.0167,1.0527,1.0671,1.1329,1.1619,1.1619,1.1619,1.1619,1.1619,1.1619,1.1181,1.0599,1.0599,1.0095,0.9449,0.9449,0.9951,1.0455,0.959,0.9663,1.0023,1.0023,1.0815,1.1603,1.1603,1.218,1.2753,1.2753,1.2474,1.2194,1.2126,1.1835,1.1619,1.1619,1.1619,1.1619,1.1619,1.1619,1.1603,1.1548,0.0,0.0,0.0,0.0,0.0,1.0229,1.0341,1.0402,0.0,0.0,0.0,0.0,0.0,0.4257,0.4365,0.279,0.217,0.2655,0.3119,0.3563,0.4153,0.4518,0.4665,0.4665,0.4665,0.4665,0.4665,0.4665,0.4665,0.4665,0.4665,0.4665,0.4665,0.4665,0.4664,0.4664,0.4664,0.4666,0.4606,0.0,0.0,0.0,0.0,0.0,0.0,0.0,0.0,0.0,0.0,0.0,0.0,0.0,0.0,0.0,0.0,0.0,0.0,0.0,0.0,0.0,0.0,0.0,0.0,0.0,0.0,0.014,0.0438,0.2838,0.4362,0.5161,0.7485,0.9155,1.0167,0.959,0.9954,1.1041,1.0671,1.0818,1.1329,1.1548,1.1619,1.1619,1.1619,1.1619,1.1619,1.1619,1.1472,1.1329,1.1329,1.1185,1.1041,1.1041,1.1185,1.1181,1.0455,1.0675,1.1185,1.1185,1.14,1.1616,1.1616,1.1975,1.2334,1.2334,1.2266,1.2122,1.1835,1.1691,1.1619,1.1619,1.1619,1.1619,1.1619,1.1619,1.1419,1.0839,1.0605,0.0,0.0,0.9937,1.0246,1.0426,1.0965,1.1033,0.0,0.0,0.9827,0.9288,0.6703,0.4493,0.2898,0.2431,0.2244,0.2422,0.3064,0.3805,0.4591,0.4664,0.4665,0.4665,0.4665,0.4665,0.4665,0.4665,0.4665,0.4665,0.4665,0.4665,0.4665,0.4665,0.4518,0.4226,0.4226,0.4033,0.378,0.0,0.0,0.0,0.0,0.0,0.0,0.0,0.0,0.0,0.0,0.0,0.0,0.0,0.0,0.0073,0.0292,0.0071,0.0,0.0,0.0,0.0071,0.0292,0.0284,0.035,0.0559,0.0559,0.0992,0.1894,0.4651,0.6319,0.6823,0.8858,1.0239,1.0966,1.0534,1.0822,1.1548,1.1181,1.1253,1.1619,1.1619,1.1619,1.1619,1.1619,1.1619,1.1619,1.1619,1.1619,1.1619,1.1619,1.1619,1.1619,1.1619,1.1619,1.1548,1.1109,1.1257,1.1619,1.1619,1.1619,1.1619,1.1619,1.1763,1.1907,1.1907,1.1907,1.1835,1.1619,1.1619,1.1619,1.1619,1.1619,1.1619,1.1619,1.1328,1.0962,1.0551,1.0198,0.9961,0.9897,1.0246,1.0626,1.0975,1.1379,1.1416,1.0928,1.0571,0.0,0.9851,0.7201,0.5319,0.4498,0.3059,0.2333,0.2333,0.3063,0.3937,0.4665,0.4665,0.4665,0.4665,0.4665,0.4665,0.4665,0.4665,0.4665,0.4665,0.4665,0.4665,0.4664,0.4518,0.4299,0.4083,0.3888,0.3694,0.3503,0.0,0.0,0.0,0.0,0.0,0.0,0.0,0.0,0.0,0.0,0.0,0.0,0.0,0.0073,0.0219,0.0584,0.0365,0.0146,0.0146,0.0146,0.0292,0.0657,0.0657,0.0876,0.1168,0.1459,0.2331,0.3925,0.6536,0.8129,0.8848,1.0086,1.1034,1.1619,1.1619,1.1619,1.1619,1.1619,1.1619,1.1619,1.1619,1.1619,1.1619,1.1619,1.1619,1.1619,1.1619,1.1619,1.1619,1.1619,1.1619,1.1619,1.1619,1.1619,1.1619,1.1619,1.1619,1.1619,1.1619,1.1619,1.1619,1.1619,1.1619,1.1619,1.1619,1.1619,1.1619,1.1619,1.1619,1.1619,1.1619,1.1619,1.1582,1.1467,1.0911,1.0453,1.0341,0.0,0.9785,1.0415,1.0592,1.0914,1.1558,1.1619,1.1619,1.1619,1.1023,1.0393,0.9698,0.7573,0.6576,0.6958,0.3929,0.2333,0.2479,0.3136,0.3937,0.4665,0.4665,0.4665,0.4665,0.4665,0.4665,0.4665,0.4665,0.4665,0.4665,0.4665,0.4665,0.4664,0.4226,0.4085,0.3952,0.3554,0.3429,0.3375,0.0,0.0,0.0,0.0,0.0,0.0,0.0,0.0,0.0,0.0,0.0,0.0,0.0,0.0292,0.0511,0.0584,0.0876,0.1022,0.1022,0.073,0.0657,0.1095,0.1095,0.1168,0.1168,0.2476,0.4072,0.5958,0.7693,0.8778,0.9216,1.0743,1.1472,1.1619,1.1619,1.1619,1.1619,1.1619,1.1619,1.1619,1.1619,1.1619,1.1619,1.1619,1.1619,1.1619,1.1619,1.1619,1.1619,1.1619,1.1619,1.1619,1.1619,1.1619,1.1619,1.1619,1.1619,1.1619,1.1619,1.1619,1.1619,1.1619,1.1619,1.1619,1.1619,1.1619,1.1619,1.1619,1.1619,1.1619,1.1619,1.1619,1.1409,1.0772,1.0568,1.027,0.9642,0.0,1.0365,1.0477,1.1056,1.1491,1.1609,1.1619,1.1619,1.1619,1.1511,1.1352,1.1247,0.9707,0.826,0.704,0.3929,0.2625,0.3281,0.3428,0.3937,0.4665,0.4665,0.4665,0.4665,0.4665,0.4665,0.4665,0.4665,0.4665,0.4665,0.4665,0.4665,0.4664,0.4226,0.3888,0.3558,0.3194,0.2863,0.2686,0.0,0.0,0.0,0.0,0.0,0.0,0.0,0.0,0.0,0.0,0.0,0.0146,0.0583,0.0584,0.0876,0.1459,0.1313,0.1386,0.1751,0.124,0.1095,0.1532,0.1532,0.2041,0.306,0.5378,0.7042,0.7986,0.9507,1.0377,1.0527,1.1257,1.1619,1.1619,1.1619,1.1619,1.1619,1.1619,1.1619,1.1619,1.1619,1.1619,1.1619,1.1619,1.1619,1.1619,1.1619,1.1619,1.1619,1.1619,1.1619,1.1619,1.1619,1.1619,1.1619,1.1619,1.1619,1.1619,1.1619,1.1619,1.1619,1.1619,1.1619,1.1619,1.1619,1.1619,1.1619,1.1619,1.1619,1.1619,1.1619,1.1619,1.1504,1.1155,1.0758,0.0,1.0029,1.0276,1.049,1.049,1.1158,1.1619,1.1619,1.1619,1.1619,1.1619,1.1619,1.1619,1.1619,1.0161,0.8564,0.7042,0.3929,0.2552,0.3136,0.3428,0.3791,0.4371,0.4591,0.4665,0.4665,0.4665,0.4665,0.4665,0.4665,0.4665,0.4664,0.4445,0.4371,0.4302,0.3746,0.3401,0.3202,0.2868,0.2598,0.2472,0.0,0.0,0.0,0.0,0.0,0.0,0.0,0.0,0.0,0.0,0.0146,0.051,0.1166,0.1094,0.1313,0.226,0.2115,0.226,0.2842,0.2696,0.255,0.2477,0.284,0.3856,0.5744,0.8059,0.9507,0.987,1.1034,1.1619,1.1619,1.1619,1.1619,1.1619,1.1619,1.1619,1.1619,1.1619,1.1619,1.1619,1.1619,1.1619,1.1619,1.1619,1.1619,1.1619,1.1619,1.1619,1.1619,1.1619,1.1619,1.1619,1.1619,1.1619,1.1619,1.1619,1.1619,1.1619,1.1619,1.1619,1.1619,1.1619,1.1619,1.1619,1.1619,1.1619,1.1619,1.1619,1.1619,1.1619,1.1619,1.1619,1.1562,1.1385,0.0,1.049,1.049,1.049,1.0558,1.0734,1.1267,1.1619,1.1619,1.1619,1.1619,1.1619,1.1619,1.1619,1.1619,1.0455,0.9,0.704,0.3929,0.2479,0.2916,0.3209,0.3572,0.3935,0.43,0.4447,0.4447,0.4447,0.4447,0.4447,0.4447,0.4447,0.4373,0.408,0.3942,0.3883,0.3257,0.2984,0.3006,0.2605,0.2474,0.2483,0.0,0.0,0.0,0.0,0.0,0.0,0.0,0.0,0.0,0.0,0.0656,0.1166,0.1166,0.1749,0.2187,0.226,0.3641,0.444,0.4513,0.5813,0.5958,0.4511,0.5886,0.7331,0.8928,0.9216,1.0017,1.14,1.1544,1.1619,1.1619,1.1619,1.1619,1.1619,1.1619,1.1619,1.1619,1.1619,1.1619,1.1619,1.1619,1.1619,1.1619,1.1619,1.1619,1.1619,1.1619,1.1619,1.1619,1.1619,1.1619,1.1619,1.1619,1.1619,1.1619,1.1619,1.1619,1.1619,1.1619,1.1619,1.1619,1.1619,1.1619,1.1619,1.1619,1.1619,1.1619,1.1619,1.1619,1.1619,1.1619,1.1619,1.1389,1.069,0.0,0.0,1.049,1.049,1.0751,1.1453,1.1586,1.1619,1.1619,1.1619,1.1619,1.1619,1.1619,1.1619,1.1619,1.1472,1.0089,0.7112,0.3929,0.2479,0.2916,0.2916,0.3136,0.3573,0.3574,0.3574,0.3574,0.3574,0.3574,0.3574,0.3574,0.3574,0.3574,0.3573,0.3526,0.3489,0.3121,0.3017,0.3079,0.2622,0.2487,0.2511,0.0,0.0,0.0,0.0,0.0,0.0,0.0,0.0438,0.0729,0.0729,0.1385,0.2041,0.2552,0.2625,0.3133,0.4366,0.4803,0.531,0.6103,0.7551,0.7767,0.6176,0.7623,0.8709,0.9291,1.0236,1.1034,1.1619,1.1619,1.1619,1.1619,1.1619,1.1619,1.1619,1.1619,1.1619,1.1619,1.1619,1.1619,1.1619,1.1619,1.1619,1.1619,1.1619,1.1619,1.1619,1.1619,1.1619,1.1619,1.1619,1.1619,1.1619,1.1619,1.1619,1.1619,1.1619,1.1619,1.1619,1.1619,1.1619,1.1619,1.1619,1.1619,1.1619,1.1619,1.1619,1.1619,1.1619,1.1619,1.1619,1.1619,1.1619,1.1525,1.1236,0.0,1.1192,1.1192,1.1192,1.1297,1.1586,1.1619,1.1619,1.1619,1.1619,1.1619,1.1619,1.1619,1.1619,1.1619,1.0671,0.9216,0.704,0.4944,0.335,0.2552,0.277,0.299,0.3136,0.3355,0.3501,0.3501,0.3501,0.3501,0.3501,0.3501,0.3501,0.3503,0.331,0.3182,0.3127,0.2798,0.2679,0.2703,0.2568,0.2504,0.2515,0.0,0.0,0.0,0.0,0.0,0.0073,0.0365,0.0875,0.1312,0.153,0.2187,0.2916,0.3428,0.3716,0.4369,0.5673,0.6253,0.6831,0.7695,0.9144,0.9579,0.8492,0.9435,1.0017,1.0017,1.1038,1.1619,1.1619,1.1619,1.1619,1.1619,1.1619,1.1619,1.1619,1.1619,1.1619,1.1619,1.1619,1.1619,1.1619,1.1619,1.1619,1.1619,1.1619,1.1619,1.1619,1.1619,1.1619,1.1619,1.1619,1.1619,1.1619,1.1619,1.1619,1.1619,1.1619,1.1619,1.1619,1.1619,1.1619,1.1619,1.1619,1.1619,1.1619,1.1619,1.1619,1.1619,1.1619,1.1619,1.1619,1.1619,1.1619,1.1619,1.1619,1.1619,1.1619,1.1619,1.1619,1.1619,1.1619,1.1619,1.1619,1.1619,1.1619,1.1619,1.1619,1.1619,1.1619,1.1619,1.0161,0.8781,0.7765,0.5742,0.4149,0.306,0.2842,0.2698,0.2698,0.299,0.3136,0.3136,0.3136,0.3136,0.3136,0.3136,0.3143,0.3157,0.2888,0.2838,0.2788,0.2606,0.2475,0.2486,0.2506,0.2515,0.2515,0.0,0.0,0.0,0.0,0.0,0.0292,0.1093,0.1239,0.1458,0.2187,0.299,0.3501,0.3501,0.4878,0.5818,0.5818,0.7986,0.9291,0.9291,1.0743,1.1619,1.1619,1.1619,1.1619,1.1619,1.1619,1.1619,1.1619,1.1619,1.1619,1.1619,1.1619,1.1619,1.1619,1.1619,1.1619,1.1619,1.1619,1.1619,1.1619,1.1619,1.1619,1.1619,1.1619,1.1619,1.1619,1.1619,1.1619,1.1619,1.1619,1.1619,1.1619,1.1619,1.1619,1.1619,1.1619,1.1619,1.1619,1.1619,1.1619,1.1619,1.1619,1.1619,1.1619,1.1619,1.1619,1.1619,1.1619,1.1619,1.1619,1.1619,1.1619,1.1619,1.1619,1.1619,1.1619,1.1619,1.1619,1.1619,1.1619,1.1619,1.1619,1.1619,1.1619,1.1619,1.1619,1.1619,1.1619,1.1619,1.0161,0.9291,0.9291,0.6322,0.4729,0.4729,0.3132,0.2333,0.2333,0.2333,0.2333,0.2333,0.2333,0.2333,0.2333,0.2333,0.235,0.2378,0.2378,0.2414,0.2469,0.247,0.2488,0.2515,0.2515,0.2515,0.2515,0.0,0.0,0.0,0.0,0.0438,0.0948,0.1166,0.2114,0.2916,0.3136,0.3864,0.4664,0.546,0.6183,0.7268,0.8858,0.9654,1.0308,1.089,1.1329,1.1619,1.1619,1.1619,1.1619,1.1619,1.1619,1.1619,1.1619,1.1619,1.1619,1.1619,1.1619,1.1619,1.1619,1.1619,1.1619,1.1619,1.1619,1.1619,1.1619,1.1619,1.1619,1.1619,1.1619,1.1619,1.1619,1.1619,1.1619,1.1619,1.1619,1.1619,1.1619,1.1619,1.1619,1.1619,1.1619,1.1619,1.1619,1.1619,1.1619,1.1619,1.1619,1.1619,1.1619,1.1619,1.1619,1.1619,1.1619,1.1619,1.1619,1.1619,1.1619,1.1619,1.1619,1.1619,1.1619,1.1619,1.1619,1.1619,1.1619,1.1619,1.1619,1.1619,1.1619,1.1619,1.1619,1.1619,1.1619,1.1619,1.1181,1.0452,0.9363,0.7334,0.5815,0.4729,0.3132,0.2333,0.2333,0.2333,0.2333,0.2333,0.2333,0.2333,0.2334,0.2356,0.237,0.2381,0.2425,0.2453,0.2471,0.2492,0.2506,0.2515,0.2515,0.2515,0.2515,0.0,0.0,0.0073,0.0438,0.0875,0.1385,0.2041,0.2916,0.3864,0.4735,0.5315,0.6112,0.7415,0.8136,0.9149,1.0521,1.0959,1.1322,1.1835,1.1691,1.1619,1.1619,1.1619,1.1619,1.1619,1.1619,1.1619,1.1619,1.1619,1.1619,1.1619,1.1619,1.1619,1.1619,1.1619,1.1619,1.1619,1.1619,1.1619,1.1619,1.1619,1.1619,1.1619,1.1619,1.1619,1.1619,1.1619,1.1619,1.1619,1.1619,1.1619,1.1619,1.1619,1.1619,1.1619,1.1619,1.1619,1.1619,1.1619,1.1619,1.1619,1.1619,1.1619,1.1619,1.1619,1.1619,1.1619,1.1619,1.1619,1.1619,1.1619,1.1619,1.1619,1.1619,1.1619,1.1619,1.1619,1.1619,1.1619,1.1619,1.1619,1.1619,1.1619,1.1619,1.1619,1.1619,1.1619,1.1619,1.1619,1.1619,1.1181,1.0236,0.8129,0.6536,0.5597,0.3422,0.2333,0.2333,0.2333,0.2333,0.2333,0.2333,0.2333,0.2335,0.2365,0.2385,0.24,0.2448,0.2476,0.2489,0.2507,0.2515,0.2515,0.2515,0.2515,0.2515,0.0,0.0073,0.0365,0.1093,0.1312,0.1895,0.3281,0.3646,0.4589,0.669,0.7123,0.7774,0.9291,1.0374,1.1028,1.1172,1.1828,1.2194,1.2122,1.1835,1.1619,1.1619,1.1619,1.1619,1.1619,1.1619,1.1619,1.1619,1.1619,1.1619,1.1619,1.1619,1.1619,1.1619,1.1619,1.1619,1.1619,1.1619,1.1619,1.1619,1.1619,1.1619,1.1619,1.1619,1.1619,1.1619,1.1619,1.1619,1.1619,1.1619,1.1619,1.1619,1.1619,1.1619,1.1619,1.1619,1.1619,1.1619,1.1619,1.1619,1.1619,1.1619,1.1619,1.1619,1.1619,1.1619,1.1619,1.1619,1.1619,1.1619,1.1619,1.1619,1.1619,1.1619,1.1619,1.1619,1.1619,1.1619,1.1619,1.1619,1.1619,1.1619,1.1619,1.1619,1.1619,1.1619,1.1619,1.1619,1.1619,1.1619,1.1619,1.1619,0.8636,0.7042,0.704,0.3856,0.2333,0.2333,0.2333,0.2333,0.2333,0.2333,0.2333,0.2335,0.2367,0.2398,0.2426,0.2459,0.2489,0.2515,0.2515,0.2515,0.2515,0.2515,0.2515,0.2515,0.0,0.051,0.1021,0.1166,0.2187,0.3136,0.3428,0.5024,0.64,0.6908,0.8061,0.9291,1.0521,1.0884,1.1387,1.2323,1.2262,1.2051,1.1763,1.1619,1.1619,1.1619,1.1619,1.1619,1.1619,1.1619,1.1619,1.1619,1.1619,1.1619,1.1619,1.1619,1.1619,1.1619,1.1619,1.1619,1.1619,1.1619,1.1619,1.1619,1.1619,1.1619,1.1619,1.1619,1.1619,1.1619,1.1619,1.1619,1.1619,1.1619,1.1619,1.1619,1.1619,1.1619,1.1619,1.1619,1.1619,1.1619,1.1619,1.1619,1.1619,1.1619,1.1619,1.1619,1.1619,1.1619,1.1619,1.1619,1.1619,1.1619,1.1619,1.1619,1.1619,1.1619,1.1619,1.1619,1.1619,1.1619,1.1619,1.1619,1.1619,1.1619,1.1619,1.1619,1.1619,1.1619,1.1619,1.1619,1.1619,1.1619,1.1763,1.2051,0.8781,0.7112,0.7399,0.4002,0.2333,0.2333,0.2333,0.2333,0.2333,0.2333,0.2333,0.2336,0.239,0.2418,0.2428,0.2482,0.2508,0.2515,0.2515,0.2515,0.2515,0.2515,0.2515,0.2515,0.051,0.0948,0.1458,0.2187,0.299,0.3647,0.401,0.5749,0.7268,0.7991,0.943,1.0871,1.2248,1.2391,1.2534,1.2968,1.2545,1.2122,1.1907,1.1691,1.1619,1.1619,1.1619,1.1619,1.1619,1.1619,1.1619,1.1619,1.1619,1.1619,1.1619,1.1619,1.1619,1.1619,1.1619,1.1619,1.1619,1.1619,1.1619,1.1619,1.1619,1.1619,1.1619,1.1619,1.1619,1.1619,1.1619,1.1619,1.1619,1.1619,1.1619,1.1619,1.1619,1.1619,1.1619,1.1619,1.1619,1.1619,1.1619,1.1619,1.1619,1.1619,1.1619,1.1619,1.1619,1.1619,1.1619,1.1619,1.1619,1.1619,1.1619,1.1619,1.1619,1.1619,1.1619,1.1619,1.1619,1.1619,1.1619,1.1619,1.1619,1.1619,1.1619,1.1619,1.1619,1.1619,1.1619,1.1619,1.1619,1.1763,1.1979,1.2194,0.9865,0.8268,0.7542,0.4942,0.3205,0.2333,0.2333,0.2333,0.2333,0.2333,0.2333,0.2336,0.2397,0.2423,0.2429,0.2489,0.2515,0.2515,0.2515,0.2515,0.2515,0.2515,0.2515,0.2515,0.1093,0.1385,0.1968,0.3281,0.3647,0.401,0.4953,0.6402,0.7917,0.9504,1.1015,1.2452,1.3757,1.3757,1.3543,1.3186,1.2477,1.2122,1.2122,1.1763,1.1619,1.1619,1.1619,1.1619,1.1619,1.1619,1.1619,1.1619,1.1619,1.1619,1.1619,1.1619,1.1619,1.1619,1.1619,1.1619,1.1619,1.1619,1.1619,1.1619,1.1619,1.1619,1.1619,1.1619,1.1619,1.1619,1.1619,1.1619,1.1619,1.1619,1.1619,1.1619,1.1619,1.1619,1.1619,1.1619,1.1619,1.1619,1.1619,1.1619,1.1619,1.1619,1.1619,1.1619,1.1619,1.1619,1.1619,1.1619,1.1619,1.1619,1.1619,1.1619,1.1619,1.1619,1.1619,1.1619,1.1619,1.1619,1.1619,1.1619,1.1619,1.1619,1.1619,1.1619,1.1619,1.1619,1.1619,1.1619,1.1691,1.2051,1.2266,1.2409,1.0803,0.9133,0.7614,0.5667,0.3929,0.2333,0.2333,0.2333,0.2333,0.2333,0.2333,0.2336,0.2397,0.2423,0.2429,0.2489,0.2515,0.2515,0.2515,0.2515,0.2515,0.2515,0.2515,0.2515,0.1166,0.226,0.3281,0.3428,0.4083,0.5026,0.6473,0.7991,0.9576,1.1084,1.2599,1.3682,1.39,1.3325,1.2757,1.2409,1.1907,1.1691,1.1691,1.1619,1.1619,1.1619,1.1619,1.1619,1.1619,1.1619,1.1619,1.1619,1.1619,1.1619,1.1619,1.1619,1.1619,1.1619,1.1619,1.1619,1.1619,1.1619,1.1619,1.1619,1.1619,1.1619,1.1619,1.1619,1.1619,1.1619,1.1619,1.1619,1.1619,1.1619,1.1619,1.1619,1.1619,1.1619,1.1619,1.1619,1.1619,1.1619,1.1619,1.1619,1.1619,1.1619,1.1619,1.1619,1.1619,1.1619,1.1619,1.1619,1.1619,1.1619,1.1619,1.1619,1.1619,1.1619,1.1619,1.1619,1.1619,1.1619,1.1619,1.1619,1.1619,1.1619,1.1619,1.1619,1.1619,1.1619,1.1619,1.1763,1.2122,1.2194,1.2477,1.3114,0.9709,0.7903,0.8045,0.4508,0.255,0.2333,0.2333,0.2333,0.2333,0.2333,0.2333,0.2336,0.2397,0.2423,0.2429,0.2489,0.2515,0.2515,0.2515,0.2515,0.2515,0.2515,0.2515,0.2515,0.2333,0.3063,0.3647,0.4083,0.5171,0.6185,0.6906,0.9069,1.0796,1.1514,1.2956,1.39,1.39,1.3253,1.2753,1.2545,1.1975,1.1619,1.1619,1.1619,1.1619,1.1619,1.1619,1.1619,1.1619,1.1619,1.1619,1.1619,1.1619,1.1619,1.1619,1.1619,1.1619,1.1619,1.1619,1.1619,1.1619,1.1619,1.1619,1.1619,1.1619,1.1619,1.1619,1.1619,1.1619,1.1619,1.1619,1.1619,1.1619,1.1619,1.1619,1.1619,1.1619,1.1619,1.1619,1.1619,1.1619,1.1619,1.1619,1.1619,1.1619,1.1619,1.1619,1.1619,1.1619,1.1619,1.1619,1.1619,1.1619,1.1619,1.1619,1.1619,1.1619,1.1619,1.1619,1.1619,1.1619,1.1619,1.1619,1.1619,1.1619,1.1619,1.1619,1.1619,1.1619,1.1619,1.1835,1.1979,1.2194,1.2621,1.2971,1.3325,1.0793,0.8987,0.8117,0.5303,0.3349,0.2333,0.2333,0.2333,0.2333,0.2333,0.2333,0.2336,0.2397,0.2423,0.2429,0.2489,0.2515,0.2515,0.2515,0.2515,0.2515,0.2515,0.2515,0.2515]},{"header":{"parameterUnit":"m.s-1","parameterCategory":1,"la1":30.6,"la2":28.766,"lo1":-90.7593,"lo2":-88.6598,"dy":0.0162,"dx":0.0183,"nx":116,"ny":114,"refTime":"2023-09-15T00:00:00:Z","depth":0,"parameterNumber":3,"parameterNumberName":"V-component_of_WINDS"},"data":[0.0,0.0,0.0,0.0,0.0,0.0,0.0,0.0,0.0,0.0,0.0,0.0,0.0,0.0,0.0,0.0,0.0,0.0,0.0,0.0,0.0,0.0,0.0,0.0,0.0,0.0,0.0,0.0,0.0,0.0,0.0,0.0,0.0,0.0,0.0,0.0,0.0,0.0,0.0,0.0,0.0,0.0,0.0,0.0,0.0,0.0,0.0,0.0,0.0,0.0,0.0,0.0,0.0,0.0,0.0,0.0,0.0,0.0,0.0,0.0,0.0,0.0,0.0,0.0,0.0,0.0,0.0,0.0,0.0,0.0,0.0,0.0,0.0,0.0,0.0,0.0,0.0,0.0,0.0,0.0,0.0,0.0,0.0,0.0,0.0,0.0,0.0,0.0,0.0,0.0,0.0,0.0,0.0,0.0,0.0,0.0,0.0,0.0,0.0,0.0,0.0,0.0,0.0,0.0,0.0,0.0,0.0,0.0,0.0,0.0,0.0,0.0,0.0,0.0,0.0,0.0,0.0,0.0,0.0,0.0,0.0,0.0,0.0,0.0,0.0,0.0,0.0,0.0,0.0,0.0,0.0,0.0,0.0,0.0,0.0,0.0,0.0,0.0,0.0,0.0,0.0,0.0,0.0,0.0,0.0,0.0,0.0,0.0,0.0,0.0,0.0,0.0,0.0,0.0,0.0,0.0,0.0,0.0,0.0,0.0,0.0,0.0,0.0,0.0,0.0,0.0,0.0,0.0,0.0,0.0,0.0,0.0,0.0,0.0,0.0,0.0,0.0,0.0,0.0,0.0,0.0,0.0,0.0,0.0,0.0,0.0,0.0,0.0,0.0,0.0,0.0,0.0,0.0,0.0,0.0,0.0,0.0,0.0,0.0,0.0,0.0,0.0,0.0,0.0,0.0,0.0,0.0,0.0,0.0,0.0,0.0,0.0,0.0,0.0,0.0,0.0,0.0,0.0,0.0,0.0,0.0,0.0,0.0,0.0,0.0,0.0,0.0,0.0,0.0,0.0,0.0,0.0,0.0,0.0,0.0,0.0,0.0,0.0,0.0,0.0,0.0,0.0,0.0,0.0,0.0,0.0,0.0,0.0,0.0,0.0,0.0,0.0,0.0,0.0,0.0,0.0,0.0,0.0,0.0,0.0,0.0,0.0,0.0,0.0,0.0,0.0,0.0,0.0,0.0,0.0,0.0,0.0,0.0,0.0,0.0,0.0,0.0,0.0,0.0,0.0,0.0,0.0,0.0,0.0,0.0,0.0,0.0,0.0,0.0,0.0,0.0,0.0,0.0,0.0,0.0,0.0,0.0,0.0,0.0,0.0,0.0,0.0,0.0,0.0,0.0,0.0,0.0,0.0,0.0,0.0,0.0,0.0,0.0,0.0,0.0,0.0,0.0,0.0,0.0,0.0,0.0,0.0,0.0,0.0,0.0,0.0,0.0,0.0,0.0,0.0,0.0,0.0,0.0,0.0,0.0,0.0,0.0,0.0,0.0,0.0,0.0,0.0,0.0,0.0,0.0,0.0,0.0,0.0,0.0,0.0,0.0,0.0,0.0,0.0,0.0,0.0,0.0,0.0,0.0,0.0,0.0,0.0,0.0,0.0,0.0,0.0,0.0,0.0,0.0,0.0,0.0,0.0,0.0,0.0,0.0,0.0,0.0,0.0,0.0,0.0,0.0,0.0,0.0,0.0,0.0,0.0,0.0,0.0,0.0,0.0,0.0,0.0,0.0,0.0,0.0,0.0,0.0,0.0,0.0,0.0,0.0,0.0,0.0,0.0,0.0,0.0,0.0,0.0,0.0,0.0,0.0,0.0,0.0,0.0,0.0,0.0,0.0,0.0,0.0,0.0,0.0,0.0,0.0,0.0,0.0,0.0,0.0,0.0,0.0,0.0,0.0,0.0,0.0,0.0,0.0,0.0,0.0,0.0,0.0,0.0,0.0,0.0,0.0,0.0,0.0,0.0,0.0,0.0,0.0,0.0,0.0,0.0,0.0,0.0,0.0,0.0,0.0,0.0,0.0,0.0,0.0,0.0,0.0,0.0,0.0,0.0,0.0,0.0,0.0,0.0,0.0,0.0,0.0,0.0,0.0,0.0,0.0,0.0,0.0,0.0,0.0,0.0,0.0,0.0,0.0,0.0,0.0,0.0,0.0,0.0,0.0,0.0,0.0,0.0,0.0,0.0,0.0,0.0,0.0,0.0,0.0,0.0,0.0,0.0,0.0,0.0,0.0,0.0,0.0,0.0,0.0,0.0,0.0,0.0,0.0,0.0,0.0,0.0,0.0,0.0,0.0,0.0,0.0,0.0,0.0,0.0,0.0,0.0,0.0,0.0,0.0,0.0,0.0,0.0,0.0,0.0,0.0,0.0,0.0,0.0,0.0,0.0,0.0,0.0,0.0,0.0,0.0,0.0,0.0,0.0,0.0,0.0,0.0,0.0,0.0,0.0,0.0,0.0,0.0,0.0,0.0,0.0,0.0,0.0,0.0,0.0,0.0,0.0,0.0,0.0,0.0,0.0,0.0,0.0,0.0,0.0,0.0,0.0,0.0,0.0,0.0,0.0,0.0,0.0,0.0,0.0,0.0,0.0,0.0,0.0,0.0,0.0,0.0,0.0,0.0,0.0,0.0,0.0,0.0,0.0,0.0,0.0,0.0,0.0,0.0,0.0,0.0,0.0,0.0,0.0,0.0,0.0,0.0,0.0,0.0,0.0,0.0,0.0,0.0,0.0,0.0,0.0,0.0,0.0,0.0,0.0,0.0,0.0,0.0,0.0,0.0,0.0,0.0,0.0,0.0,0.0,0.0,0.0,0.0,0.0,0.0,0.0,0.0,0.0,0.0,0.0,0.0,0.0,0.0,0.0,0.0,0.0,0.0,0.0,0.0,0.0,0.0,0.0,0.0,0.0,0.0,0.0,0.0,0.0,0.0,0.0,0.0,0.0,0.0,0.0,0.0,0.0,0.0,0.0,0.0,0.0,0.0,0.0,0.0,0.0,0.0,0.0,0.0,0.0,0.0,0.0,0.0,0.0,0.0,0.0,0.0,0.0,0.0,0.0,0.0,0.0,0.0,0.0,0.0,0.0,0.0,0.0,0.0,0.0,0.0,0.0,0.0,0.0,0.0,0.0,0.0,0.0,0.0,0.0,0.0,0.0,0.0,0.0,0.0,0.0,0.0,0.0,0.0,0.0,0.0,0.0,0.0,0.0,0.0,0.0,0.0,0.0,0.0,0.0,0.0,0.0,0.0,0.0,0.0,0.0,0.0,0.0,0.0,0.0,0.0,0.0,0.0,0.0,0.0,0.0,0.0,0.0,0.0,0.0,0.0,0.0,0.0,0.0,0.0,0.0,0.0,0.0,0.0,0.0,0.0,0.0,0.0,0.0,0.0,0.0,0.0,0.0,0.0,0.0,0.0,0.0,0.0,0.0,0.0,0.0,0.0,0.0,0.0,0.0,0.0,0.0,0.0,0.0,0.0,0.0,0.0,0.0,0.0,0.0,0.0,0.0,0.0,0.0,0.0,0.0,0.0,0.0,0.0,0.0,0.0,0.0,0.0,0.0,0.0,0.0,0.0,0.0,0.0,0.0,0.0,0.0,0.0,0.0,0.0,0.0,0.0,0.0,0.0,0.0,0.0,0.0,0.0,0.0,0.0,0.0,0.0,0.0,0.0,0.0,0.0,0.0,0.0,0.0,0.0,0.0,0.0,0.0,0.0,0.0,0.0,0.0,0.0,0.0,0.0,0.0,0.0,0.0,0.0,0.0,0.0,0.0,0.0,0.0,0.0,0.0,0.0,0.0,0.0,0.0,0.0,0.0,0.0,0.0,0.0,0.0,0.0,0.0,0.0,0.0,0.0,0.0,0.0,0.0,0.0,0.0,0.0,0.0,0.0,0.0,0.0,0.0,0.0,0.0,0.0,0.0,0.0,0.0,0.0,0.0,0.0,0.0,0.0,0.0,0.0,0.0,0.0,0.0,0.0,0.0,0.0,0.0,0.0,0.0,0.0,0.0,0.0,0.0,0.0,0.0,0.0,0.0,0.0,0.0,0.0,0.0,0.0,0.0,0.0,0.0,0.0,0.0,0.0,0.0,0.0,0.0,0.0,0.0,0.0,0.0,0.0,0.0,0.0,0.0,0.0,0.0,0.0,0.0,0.0,0.0,0.0,0.0,0.0,0.0,0.0,0.0,0.0,0.0,0.0,0.0,0.0,0.0,0.0,0.0,0.0,0.0,0.0,0.0,0.0,0.0,0.0,0.0,0.0,0.0,0.0,0.0,0.0,0.0,0.0,0.0,0.0,0.0,0.0,0.0,0.0,0.0,0.0,0.0,0.0,0.0,0.0,0.0,0.0,0.0,0.0,0.0,0.0,0.0,0.0,0.0,0.0,0.0,0.0,0.0,0.0,0.0,0.0,0.0,0.0,0.0,0.0,0.0,0.0,0.0,0.0,0.0,0.0,0.0,0.0,0.0,0.0,0.0,0.0,0.0,0.0,0.0,0.0,0.0,0.0,0.0,0.0,0.0,0.0,0.0,0.0,0.0,0.0,0.0,0.0,0.0,0.0,0.0,0.0,0.0,0.0,0.0,0.0,0.0,0.0,0.0,0.0,0.0,0.0,0.0,0.0,0.0,0.0,0.0,0.0,0.0,0.0,0.0,0.0,0.0,0.0,0.0,0.0,0.0,0.0,0.0,0.0,0.0,0.0,0.0,0.0,0.0,0.0,0.0,0.0,0.0,0.0,0.0,0.0,0.0,0.0,0.0,0.0,0.0,0.0,0.0,0.0,0.0,0.0,0.0,0.0,0.0,0.0,0.0,0.0,0.0,0.0,0.0,0.0,0.0,0.0,0.0,0.0,0.0,0.0,0.0,0.0,0.0,0.0,0.0,0.0,0.0,0.0,0.0,0.0,0.0,0.0,0.0,0.0,0.0,0.0,0.0,0.0,0.0,0.0,0.0,0.0,0.0,0.0,0.0,0.0,0.0,0.0,0.0,0.0,0.0,0.0,0.0,0.0,0.0,0.0,0.0,0.0,0.0,0.0,0.0,0.0,0.0,0.0,0.0,0.0,0.0,0.0,0.0,0.0,0.0,0.0,0.0,0.0,0.0,0.0,0.0,0.0,0.0,0.0,0.0,0.0,0.0,0.0,0.0,0.0,0.0,0.0,0.0,0.0,0.0,0.0,0.0,0.0,0.0,0.0,0.0,0.0,0.0,0.0,0.0,0.0,0.0,0.0,0.0,0.0,0.0,0.0,0.0,0.0,0.0,0.0,0.0,0.0,0.0,0.0,0.0,0.0,0.0,0.0,0.0,0.0,0.0,0.0,0.0,0.0,0.0,0.0,0.0,0.0,0.0,0.0,0.0,0.0,0.0,0.0,0.0,0.0,0.0,0.0,0.0,0.0,0.0,0.0,0.0,0.0,0.0,0.0,0.0,0.0,0.0,0.0,0.0,0.0,0.0,0.0,0.0,0.0,0.0,0.0,0.0,0.0,0.0,0.0,0.0,0.0,0.0,0.0,0.0,0.0,0.0,0.0,0.0,0.0,0.0,0.0,0.0,0.0,0.0,0.0,0.0,0.0,0.0,0.0,0.0,0.0,0.0,0.0,0.0,0.0,0.0,0.0,0.0,0.0,0.0,0.0,0.0,0.0,0.0,0.0,0.0,0.0,0.0,0.0,0.0,0.0,0.0,0.0,0.0,0.0,0.0,0.0,0.0,0.0,0.0,0.0,0.0,0.0,0.0,0.0,0.0,0.0,0.0,0.0,0.0,0.0,0.0,0.0,0.0,0.0,0.0,0.0,0.0,0.0,0.0,0.0,0.0,0.0,0.0,0.0,0.0,0.0,0.0,0.0,0.0,0.0,0.0,0.0,0.0,0.0,0.0,0.0,0.0,0.0,0.0,0.0,0.0,0.0,0.0,0.0,0.0,0.0,0.0,0.0,0.0,0.0,0.0,0.0,0.0,0.0,0.0,0.0,0.0,0.0,0.0,0.0,0.0,0.0,0.0,0.0,0.0,0.0,0.0,0.0,0.0,0.0,0.0,0.0,0.0,0.0,0.0,0.0,0.0,0.0,0.0,0.0,0.0,4.2213,0.0,0.0,0.0,0.0,0.0,0.0,0.0,0.0,0.0,0.0,0.0,0.0,0.0,0.0,0.0,0.0,0.0,0.0,0.0,0.0,0.0,0.0,0.0,0.0,0.0,0.0,0.0,0.0,0.0,0.0,0.0,0.0,0.0,0.0,0.0,0.0,0.0,0.0,0.0,3.4391,3.5703,3.7138,3.722,3.6246,3.4486,0.0,0.0,0.0,0.0,0.0,0.0,0.0,0.0,0.0,0.0,0.0,0.0,0.0,0.0,0.0,0.0,0.0,0.0,0.0,0.0,0.0,0.0,0.0,0.0,0.0,0.0,0.0,0.0,0.0,0.0,0.0,0.0,0.0,0.0,0.0,0.0,0.0,0.0,0.0,0.0,0.0,0.0,0.0,0.0,0.0,0.0,0.0,0.0,0.0,0.0,0.0,0.0,0.0,0.0,0.0,0.0,0.0,0.0,0.0,0.0,0.0,0.0,0.0,0.0,0.0,0.0,0.0,0.0,0.0,0.0,0.0,4.1954,0.0,0.0,0.0,0.0,0.0,0.0,0.0,0.0,0.0,0.0,0.0,0.0,0.0,0.0,0.0,0.0,0.0,0.0,0.0,0.0,0.0,0.0,0.0,0.0,3.4524,3.3813,3.4018,0.0,0.0,0.0,0.0,0.0,0.0,0.0,0.0,3.2002,3.2336,3.3002,3.5509,3.7842,4.0035,4.0697,3.9018,3.5499,3.5954,0.0,0.0,0.0,0.0,0.0,0.0,0.0,0.0,0.0,0.0,0.0,0.0,0.0,0.0,0.0,0.0,0.0,0.0,0.0,0.0,0.0,0.0,0.0,0.0,0.0,0.0,0.0,0.0,0.0,0.0,0.0,0.0,0.0,0.0,0.0,0.0,0.0,0.0,0.0,0.0,0.0,0.0,0.0,0.0,0.0,0.0,0.0,0.0,0.0,0.0,0.0,0.0,0.0,0.0,0.0,0.0,0.0,0.0,0.0,0.0,0.0,0.0,0.0,4.4945,4.5658,4.5893,4.6342,4.6441,4.6141,4.3553,4.3646,4.5437,4.3242,0.0,0.0,0.0,0.0,0.0,0.0,0.0,0.0,0.0,0.0,0.0,0.0,0.0,0.0,0.0,0.0,0.0,0.0,0.0,0.0,0.0,3.567,3.5184,3.4066,3.4011,3.3895,0.0,0.0,0.0,0.0,0.0,0.0,3.2761,3.2807,3.3824,3.5863,3.8634,4.0166,4.0527,4.0618,4.0347,3.9824,4.0673,3.9911,3.796,0.0,0.0,0.0,0.0,0.0,0.0,0.0,0.0,0.0,0.0,0.0,0.0,0.0,0.0,0.0,0.0,0.0,0.0,0.0,0.0,0.0,0.0,0.0,0.0,0.0,0.0,0.0,0.0,0.0,0.0,0.0,0.0,0.0,0.0,0.0,0.0,0.0,0.0,0.0,0.0,0.0,3.8737,4.095,0.0,0.0,0.0,0.0,0.0,0.0,0.0,0.0,0.0,0.0,0.0,0.0,0.0,4.3629,4.4132,4.6165,4.7369,4.7733,4.7696,4.8253,4.9306,4.8302,4.8424,4.926,4.6816,0.0,4.678,4.6879,0.0,0.0,0.0,0.0,0.0,0.0,0.0,0.0,0.0,0.0,0.0,0.0,0.0,0.0,0.0,0.0,0.0,0.0,0.0,0.0,0.0,3.7011,3.7405,3.639,3.7586,3.775,3.6239,0.0,0.0,0.0,0.0,3.3174,3.284,3.2872,3.4796,3.8707,4.1487,4.3561,4.493,4.4875,4.4893,4.4949,4.5335,4.354,4.0231,4.0088,0.0,0.0,0.0,0.0,0.0,0.0,0.0,0.0,0.0,0.0,0.0,0.0,0.0,0.0,0.0,0.0,0.0,0.0,0.0,0.0,0.0,0.0,0.0,0.0,0.0,0.0,0.0,0.0,0.0,0.0,0.0,0.0,0.0,0.0,0.0,0.0,0.0,0.0,0.0,3.898,4.0514,4.2149,4.2154,4.1533,0.0,0.0,0.0,0.0,0.0,0.0,0.0,0.0,0.0,4.3381,4.5143,4.581,4.5236,4.7761,4.9288,4.981,5.0119,5.0562,5.1119,5.1017,5.1253,5.174,5.0678,5.032,5.0333,4.8349,4.781,4.8168,0.0,0.0,0.0,0.0,4.5138,4.5437,0.0,0.0,0.0,0.0,0.0,0.0,0.0,0.0,0.0,0.0,0.0,0.0,3.7168,3.8982,3.9952,3.9064,4.0673,4.0705,3.8206,3.7947,0.0,0.0,3.3747,3.3528,3.3133,3.4328,3.7147,4.1614,4.4254,4.6469,4.8286,4.8189,4.8189,4.8286,4.8226,4.608,4.2468,4.2376,4.1207,3.9302,0.0,0.0,0.0,0.0,0.0,0.0,0.0,0.0,0.0,0.0,0.0,0.0,0.0,0.0,0.0,0.0,0.0,0.0,0.0,0.0,0.0,0.0,0.0,0.0,0.0,0.0,0.0,0.0,0.0,0.0,0.0,0.0,0.0,0.0,0.0,0.0,0.0,4.0808,4.2148,4.351,4.3847,4.3557,0.0,0.0,0.0,0.0,0.0,0.0,4.56,4.5511,4.5312,4.5078,4.7555,4.8297,4.7095,4.9565,5.1022,5.1426,5.1811,5.2105,5.2307,5.2711,5.3023,5.3185,5.3185,5.3185,5.2981,5.0013,4.9252,4.9919,4.9775,4.9073,4.8096,4.7606,4.7684,4.7735,0.0,0.0,0.0,0.0,0.0,0.0,0.0,0.0,0.0,0.0,0.0,4.0517,4.0376,4.1768,4.2366,4.1493,4.1549,4.0564,3.8074,3.7907,3.6798,3.4278,3.4233,3.4197,3.403,3.846,4.2059,4.4685,4.6928,4.8078,4.8207,4.807,4.809,4.8207,4.8207,4.6835,4.4527,4.4005,4.2647,4.0568,3.7873,0.0,0.0,0.0,0.0,0.0,0.0,0.0,0.0,0.0,0.0,0.0,0.0,0.0,0.0,0.0,0.0,0.0,0.0,0.0,0.0,0.0,0.0,0.0,0.0,0.0,0.0,0.0,0.0,0.0,0.0,0.0,0.0,0.0,0.0,0.0,0.0,0.0,0.0,4.5462,4.692,0.0,0.0,0.0,0.0,4.3148,4.3052,4.4382,4.7407,4.6887,4.7727,5.0336,5.131,5.1752,5.1662,5.2577,5.3036,5.3057,5.2344,5.2399,5.3133,5.238,5.2472,5.3185,5.3185,5.3185,5.3167,5.2981,5.2862,5.263,5.1127,5.038,4.9879,4.7572,4.7638,4.871,0.0,0.0,0.0,0.0,0.0,0.0,0.0,0.0,3.9243,3.9489,4.0656,4.1253,4.0656,4.3394,4.4938,4.4058,4.5398,4.5249,4.2816,4.1163,3.9157,3.6686,3.5076,3.4915,3.6379,4.1117,4.395,4.4709,4.7036,4.8168,4.807,4.7968,4.7988,4.807,4.807,4.7654,4.6927,4.6656,4.5195,4.2978,4.1905,4.0021,0.0,0.0,0.0,0.0,0.0,0.0,0.0,0.0,0.0,0.0,0.0,0.0,0.0,0.0,0.0,0.0,0.0,0.0,0.0,0.0,0.0,0.0,0.0,0.0,0.0,0.0,0.0,0.0,0.0,0.0,0.0,0.0,0.0,0.0,0.0,0.0,0.0,4.5424,4.6685,0.0,4.6347,4.6944,4.7104,4.6483,4.7445,4.8766,5.0378,5.0216,5.0533,5.1536,5.2344,5.2527,5.1995,5.3316,5.3977,5.3977,5.4197,5.4454,5.473,5.4436,5.4454,5.473,5.473,5.473,5.473,5.473,5.4121,5.3048,5.2294,5.1967,5.1788,5.0798,5.0786,5.1176,0.0,0.0,0.0,0.0,0.0,0.0,0.0,0.0,3.9944,4.04,4.1753,4.2684,4.266,4.5469,4.7173,4.6636,4.7997,4.7516,4.4265,4.25,4.0123,3.6798,3.5869,3.6962,4.0178,4.3338,4.5305,4.6011,4.7478,4.8168,4.807,4.7904,4.7884,4.7968,4.7968,4.8008,4.8087,4.8008,4.7039,4.5471,4.4519,4.2231,3.9331,0.0,0.0,0.0,0.0,0.0,0.0,0.0,0.0,0.0,0.0,0.0,0.0,0.0,0.0,0.0,0.0,0.0,0.0,0.0,0.0,0.0,0.0,0.0,0.0,0.0,0.0,0.0,0.0,0.0,0.0,0.0,0.0,0.0,0.0,0.0,4.3907,4.5784,4.7028,4.7854,4.8128,4.8681,4.9014,4.9014,5.0039,5.1009,5.1818,5.2171,5.2446,5.2721,5.357,5.3757,5.3206,5.4271,5.4803,5.4803,5.5335,5.5614,5.5614,5.5614,5.5299,5.4821,5.5354,5.528,5.4821,5.5372,5.4968,5.3992,5.3715,5.3563,5.3518,5.3444,5.3416,5.3416,0.0,0.0,0.0,0.0,0.0,0.0,0.0,3.9986,4.0409,4.192,4.3316,4.4804,4.643,4.7986,4.896,4.9084,4.8979,4.6865,4.2017,4.1627,3.9417,3.4531,3.6686,4.029,4.5194,4.5243,4.6397,4.8787,4.84,4.8207,4.8187,4.7866,4.778,4.7902,4.7902,4.7902,4.792,4.7902,4.7945,4.7791,4.5304,4.3358,4.1651,0.0,0.0,0.0,0.0,0.0,0.0,0.0,0.0,0.0,0.0,0.0,0.0,0.0,0.0,0.0,0.0,0.0,0.0,0.0,0.0,0.0,0.0,0.0,0.0,0.0,0.0,0.0,0.0,0.0,0.0,0.0,0.0,0.0,3.9824,4.3178,4.5947,4.6805,4.8281,4.9539,5.0323,5.0414,5.0432,5.0432,5.0487,5.0873,5.1639,5.2513,5.3365,5.4151,5.5031,5.5519,5.5519,5.5614,5.5629,5.5629,5.5669,5.5666,5.5666,5.5666,5.4821,5.3445,5.5008,5.4806,5.3503,5.5045,5.5688,5.5647,5.5323,5.5143,5.5031,5.5153,5.5217,5.524,0.0,0.0,0.0,0.0,0.0,0.0,0.0,3.9815,3.9514,3.9839,4.2273,4.4071,4.429,4.7363,4.9321,4.9116,4.9068,4.7694,4.4504,4.2593,4.0178,3.7021,3.925,4.2054,4.5231,4.6979,4.8118,4.866,4.855,4.842,4.8267,4.8189,4.8151,4.8189,4.8189,4.8246,4.8342,4.8228,4.8169,4.8055,4.7118,4.5764,4.4279,0.0,0.0,0.0,0.0,0.0,0.0,0.0,0.0,0.0,0.0,0.0,0.0,0.0,0.0,0.0,0.0,0.0,0.0,0.0,0.0,0.0,0.0,0.0,0.0,0.0,0.0,0.0,0.0,0.0,0.0,0.0,0.0,4.5418,4.47,4.557,4.6985,4.8944,4.9628,5.0016,5.0235,5.0863,5.1274,5.1274,5.2433,5.3244,5.3463,5.3283,5.3234,5.3473,5.3736,5.3867,5.3867,5.5611,5.6473,5.6473,5.706,5.7336,5.7336,5.7336,5.7169,5.6919,5.7383,5.7414,5.7212,5.7553,5.7651,5.7413,5.5812,5.5304,5.5418,5.5245,5.5313,5.5324,0.0,0.0,0.0,0.0,0.0,0.0,0.0,4.0095,3.9469,4.0042,4.2333,4.4225,4.5076,4.8245,5.022,4.9958,4.9853,4.8116,4.4106,4.1448,4.0327,4.0958,4.237,4.4302,4.6754,4.8184,4.8838,4.8732,4.8641,4.8532,4.842,4.8344,4.8306,4.8306,4.8306,4.8325,4.8401,4.8325,4.8286,4.8208,4.803,4.6884,4.5291,4.5291,4.4295,4.301,4.3806,4.4382,4.4794,4.4894,0.0,0.0,0.0,0.0,0.0,0.0,0.0,0.0,0.0,0.0,0.0,0.0,0.0,0.0,0.0,0.0,0.0,0.0,0.0,0.0,0.0,0.0,0.0,0.0,4.5974,4.8334,4.8782,4.8439,4.8747,5.0401,5.0645,5.0798,5.1121,5.1995,5.2557,5.2557,5.3831,5.461,5.461,5.4613,5.4312,5.3634,5.4979,5.5387,5.4708,5.7116,5.8309,5.8309,5.8855,5.9099,5.9099,5.9214,5.8917,5.8378,5.9131,5.8958,5.8171,5.8818,5.8807,0.0,0.0,0.0,0.0,0.0,5.6658,5.6765,0.0,0.0,0.0,0.0,0.0,0.0,0.0,4.0668,4.0036,4.1556,4.3069,4.494,4.739,4.9888,5.1345,5.1288,5.0765,4.7994,4.221,3.9368,4.0118,4.5082,4.5287,4.642,4.8853,4.8909,4.8909,4.8909,4.8732,4.8623,4.8623,4.8458,4.8363,4.8363,4.842,4.842,4.842,4.842,4.8402,4.8383,4.8344,4.7252,4.5642,4.5683,4.4794,4.365,4.4358,4.4966,4.5535,4.6084,0.0,0.0,0.0,0.0,0.0,0.0,0.0,0.0,0.0,0.0,0.0,0.0,0.0,0.0,0.0,0.0,0.0,0.0,0.0,0.0,0.0,0.0,0.0,0.0,4.7659,4.9823,5.198,5.1501,5.1085,5.1474,5.1524,5.1828,5.2622,5.3463,5.4009,5.41,5.4925,5.5414,5.5432,0.0,0.0,0.0,0.0,5.8405,5.6995,5.9291,6.0467,6.0449,6.0567,6.0619,6.0637,6.0889,6.0178,5.8816,6.0438,5.985,5.7893,5.9422,5.951,5.8662,5.8422,5.8209,5.8029,5.805,5.8323,5.8679,0.0,0.0,0.0,0.0,0.0,0.0,0.0,4.1334,4.1024,4.198,4.3582,4.5505,4.7833,5.0351,5.2001,5.2365,4.9832,4.6445,4.2246,3.9513,4.0235,4.5098,4.5287,4.642,4.8853,4.8909,4.8909,4.8909,4.8855,4.8838,4.8838,4.8803,4.8785,4.8785,4.9059,4.919,4.919,4.919,4.909,4.892,4.8641,4.8218,4.7752,4.796,4.7863,4.7604,4.7752,4.821,4.8612,4.7644,4.7687,4.8126,4.7857,0.0,0.0,0.0,0.0,0.0,0.0,0.0,0.0,0.0,0.0,0.0,0.0,0.0,0.0,0.0,0.0,0.0,0.0,0.0,0.0,5.0375,5.2051,5.3324,5.3311,5.3907,5.3961,5.2871,5.2852,5.3161,5.3811,5.4188,5.4644,5.5291,5.6209,5.6796,5.6882,5.7069,5.7016,5.6721,5.7913,5.8404,5.8091,5.9821,6.0706,6.0706,0.0,0.0,6.0771,6.0929,6.0899,6.0752,6.1111,6.1067,6.0779,6.0951,6.0532,5.969,5.8813,5.8363,5.8128,5.7068,5.7542,5.8512,0.0,0.0,0.0,0.0,0.0,0.0,0.0,4.1788,4.079,4.0362,4.1791,4.3926,4.6791,4.7888,4.9146,5.1,4.7895,4.5354,4.4173,4.3353,4.4291,4.736,4.7599,4.8154,4.9233,4.9233,4.9185,4.916,4.8976,4.8909,4.8909,4.8909,4.8909,4.8926,4.9209,4.9352,4.9352,4.9457,4.945,4.9386,4.9214,4.9099,4.9031,4.8792,4.8805,4.8954,4.8954,4.9311,4.9681,4.8994,4.9142,4.9568,4.9401,4.8973,4.808,0.0,0.0,0.0,0.0,0.0,0.0,0.0,0.0,0.0,0.0,0.0,0.0,0.0,0.0,4.9074,0.0,0.0,5.0713,5.1992,5.2863,5.386,5.5333,5.5986,5.5673,5.3942,5.417,5.4574,5.4869,5.5451,5.5966,5.6353,5.7642,5.8428,5.8492,5.8857,5.8687,5.7873,5.9379,5.98,5.9006,6.0997,6.1994,6.1994,6.2064,6.2087,6.211,6.2309,6.242,6.2464,6.2575,6.2396,6.2006,6.151,6.1058,6.0627,6.007,5.9338,5.8503,5.7767,5.8011,5.8605,0.0,0.0,0.0,0.0,0.0,0.0,0.0,4.2349,4.0921,3.9565,4.0562,4.2636,4.5899,4.5511,4.5803,4.7738,4.578,4.4756,4.5519,4.691,4.8334,4.9707,4.9909,4.9891,4.9683,4.9613,4.9561,4.9495,4.9233,4.909,4.9057,4.9057,4.9075,4.9059,4.9349,4.9457,4.9476,4.9617,4.9731,4.9754,4.9698,4.9754,4.979,4.9199,4.9146,4.9389,4.9389,4.969,5.0047,4.9979,5.0298,5.0712,5.0712,5.0504,4.9701,4.6652,4.6563,0.0,0.0,0.0,0.0,0.0,0.0,0.0,0.0,0.0,5.0119,4.9458,5.0405,5.1189,5.0653,5.0505,5.1201,5.342,5.355,5.4348,5.7154,5.7604,5.7038,5.5405,5.5591,5.5939,5.6129,5.6844,5.7487,5.7866,5.9127,5.9945,6.0136,6.0778,6.0537,5.9245,6.1217,6.1675,6.0381,6.2322,6.3284,6.3284,6.3474,6.3565,6.3546,6.3786,6.3848,6.3742,6.3848,6.3454,6.2653,6.2002,6.1651,6.1521,6.1521,6.069,5.9409,5.916,5.9045,5.9047,0.0,0.0,0.0,0.0,0.0,0.0,0.0,0.0,4.3147,4.2948,4.3088,4.4229,4.6871,4.6385,4.4787,4.2111,4.4169,4.4938,4.336,4.6118,4.8437,4.9885,4.9985,4.9985,4.9957,4.9957,4.9915,4.9835,4.9796,4.9754,4.9707,4.9707,4.9665,4.9627,4.9878,5.0006,4.9999,5.0025,5.0038,5.0025,4.9731,4.9787,5.005,4.9967,5.0006,5.0092,5.0092,5.0306,5.0565,5.0272,5.0391,5.0712,5.0712,5.0673,5.0269,4.8347,0.0,4.7444,4.4793,4.3698,4.3899,4.6377,4.8058,4.9135,0.0,0.0,5.4306,5.2007,5.3449,5.5286,5.5989,5.6094,5.644,5.7486,5.7643,5.7651,5.776,5.8416,5.8692,5.8102,5.7269,5.7107,5.7995,5.8081,5.8831,6.061,6.06,6.0868,6.1713,6.2108,6.2222,6.2057,6.2933,6.3334,6.3148,6.3427,6.3557,6.3557,6.392,6.4109,6.4109,6.4193,6.4232,6.4213,6.3937,6.368,6.3472,6.3379,6.2914,6.2308,6.2599,6.218,6.1298,6.0566,6.0303,6.0248,0.0,0.0,0.0,0.0,0.0,0.0,0.0,0.0,0.0,0.0,4.1315,4.2263,4.4812,4.4769,4.3161,3.9742,4.2523,4.4321,4.4027,4.7143,4.9459,5.048,5.0636,5.061,5.0403,5.0374,5.0324,5.0246,5.0054,4.9928,4.9917,4.9917,4.9866,4.976,5.0006,5.0069,5.0057,5.017,5.0243,5.0255,5.012,5.0169,5.0337,5.0337,5.034,5.0251,4.9275,4.9013,0.0,0.0,4.9055,4.9307,5.0365,4.9971,4.9087,4.8904,4.8145,0.0,4.6628,4.6925,0.0,0.0,5.1005,5.2368,5.2848,5.4306,5.5442,5.4918,5.566,5.6689,5.7588,5.653,5.6299,0.0,5.7745,5.7423,5.9285,5.9861,6.0035,5.9867,5.8382,5.7461,5.768,5.9062,5.9869,5.9694,6.1382,6.2583,6.2976,6.3502,6.3784,6.3784,6.4065,6.4233,6.4233,6.4233,6.4233,6.4233,6.4426,6.4482,6.4482,6.452,6.4519,6.4519,6.4388,6.4272,6.4172,6.4172,6.3964,6.3642,6.3783,6.3634,6.3182,6.1991,6.1519,6.1463,0.0,0.0,0.0,0.0,0.0,0.0,0.0,0.0,0.0,0.0,4.0091,4.0668,4.2276,4.246,4.1368,3.8639,4.1529,4.3966,4.5018,4.8091,5.0306,5.1242,5.1198,5.1069,5.0819,5.0753,5.0711,5.0632,5.0394,5.0274,5.0253,5.0246,5.0187,5.0083,5.021,5.0225,5.0169,5.0329,5.0404,5.0435,5.0435,5.0416,5.0438,5.0438,5.0161,4.9637,4.8431,4.8009,0.0,0.0,4.7665,4.8181,4.9259,4.8856,4.8135,4.8808,4.7943,4.7002,4.8056,0.0,0.0,5.1738,5.3031,5.4208,5.5255,5.5696,5.6053,5.6733,5.7052,5.7516,5.8439,5.7082,5.6717,5.9435,5.8288,5.7962,6.0454,6.0788,6.0615,6.0165,5.8763,5.7376,5.6188,5.8813,6.0495,6.0279,6.2452,6.3889,6.4133,6.4499,6.4699,6.4699,6.4699,6.4699,6.4699,6.4699,6.4699,6.4699,6.4803,6.4873,6.4854,6.4839,6.4788,6.4664,6.4665,6.4612,6.4576,6.4576,6.4539,6.4502,6.4614,6.4668,6.4553,6.3579,6.2973,6.2612,0.0,0.0,0.0,0.0,0.0,0.0,0.0,0.0,0.0,0.0,0.0,0.0,0.0,3.9824,3.942,3.8488,4.1529,4.4164,4.5769,4.8335,5.0532,5.2186,5.1527,5.1101,5.1094,5.1094,5.1053,5.0978,5.0971,5.0948,5.0863,5.0861,5.0838,5.0775,5.071,5.0635,5.0577,5.0596,5.0536,5.05,5.05,5.0416,5.0302,5.0302,4.9346,4.7987,4.7981,0.0,0.0,4.6138,4.6657,4.7864,4.7069,4.7347,0.0,4.8037,4.7413,4.7068,0.0,0.0,4.886,5.2149,5.2992,5.3472,5.5121,5.6144,5.6776,5.6796,5.7479,5.8328,5.9214,5.9242,5.951,6.0584,6.0638,6.0606,6.0781,6.0734,6.0126,5.8558,5.8262,5.6871,0.0,5.6773,6.0556,6.4148,6.4144,6.4352,6.5207,6.4904,6.4699,6.4699,6.4699,6.4699,6.4699,6.4699,6.4699,6.4697,6.5089,6.5284,6.5284,6.521,6.4981,6.4593,6.4539,6.4502,6.4502,6.4502,6.4502,6.4539,6.4934,6.5068,6.5117,6.5388,6.476,6.3692,0.0,0.0,0.0,0.0,0.0,0.0,0.0,0.0,0.0,0.0,0.0,0.0,0.0,0.0,0.0,0.0,4.1185,4.2543,4.4198,4.6177,4.8023,4.9711,5.0635,5.1101,5.1101,5.1101,5.1094,5.106,5.106,5.1053,5.1039,5.0983,5.0909,5.0797,5.0773,5.071,5.0587,5.0587,5.0586,5.0576,5.0576,5.0536,5.0438,4.99,4.9008,4.7828,0.0,0.0,4.366,4.2596,4.2945,4.3976,4.4883,4.4979,4.475,4.475,4.6493,4.8412,4.8353,0.0,5.145,5.2578,5.414,5.5543,5.611,5.6901,5.7698,5.8266,5.7321,5.6637,5.7503,5.6275,5.5788,5.7878,5.7228,5.7455,6.0337,5.8753,5.793,5.9631,5.8302,0.0,0.0,0.0,0.0,6.0277,6.3373,6.5375,6.5627,6.5547,6.5499,6.5499,6.5499,6.547,6.5431,6.5431,6.5382,6.5299,6.5441,6.5504,6.5504,6.5475,6.5382,6.5272,6.5241,6.5194,6.5147,6.5147,6.5134,6.512,6.5252,6.5298,6.5314,6.544,6.5218,6.4856,0.0,0.0,0.0,0.0,0.0,0.0,0.0,0.0,0.0,0.0,0.0,0.0,0.0,0.0,0.0,0.0,0.0,4.1831,4.3802,4.4665,4.5989,4.7972,4.882,4.9233,4.9233,4.9833,5.0143,5.017,5.0777,5.1074,5.1101,5.1034,5.0956,5.0863,5.0841,5.0791,5.0709,5.0709,5.0691,5.0625,4.9989,4.973,4.9577,4.8442,4.7298,0.0,0.0,0.0,4.0884,4.0677,4.1505,4.2788,4.3635,4.3943,4.4157,4.5079,4.7018,4.9009,4.9633,5.1335,5.3158,5.4058,5.5533,5.6816,5.7104,5.7813,5.8553,5.9121,5.8177,5.7149,5.6829,5.5411,5.4848,5.6591,5.5892,5.6455,6.0149,5.8737,5.8029,5.9901,5.8681,5.8598,0.0,0.0,0.0,5.9543,6.2574,6.4443,6.4423,6.4469,6.4898,6.5762,6.5846,6.5833,6.5734,6.5734,6.5688,6.5594,6.5594,6.5594,6.5594,6.558,6.5087,6.4282,6.5154,6.4996,6.4169,6.5087,6.544,6.5394,6.5394,6.5394,6.5394,6.5394,6.5394,6.5409,0.0,0.0,0.0,0.0,0.0,0.0,0.0,0.0,0.0,0.0,0.0,0.0,0.0,0.0,0.0,0.0,0.0,0.0,4.436,4.3869,4.4582,4.7004,4.6337,4.5899,4.5899,4.746,4.8299,4.8367,4.9961,5.077,5.0836,5.077,5.0734,5.0734,5.067,5.0647,5.0647,5.0647,5.0607,5.0396,4.8748,4.8032,4.7788,4.6096,0.0,0.0,0.0,0.0,3.9721,4.0342,4.2221,4.4182,4.3498,4.441,4.6208,4.8594,4.8816,4.899,5.2203,5.3242,5.3963,5.6406,5.706,5.733,5.8099,5.8834,5.9332,5.9198,5.9632,5.9265,5.6767,5.6193,5.6212,5.6558,5.6522,5.741,6.0105,6.0354,6.0022,0.0,0.0,0.0,0.0,0.0,0.0,6.1901,0.0,6.208,6.208,6.2158,6.3233,6.5531,6.5734,6.5734,6.5594,6.5594,6.5594,6.5594,6.5594,6.5594,6.558,6.5523,6.4212,6.2106,6.4412,6.4038,6.1975,6.4401,6.5394,6.5394,6.5394,6.5394,6.5394,6.5394,6.5394,6.5394,0.0,0.0,0.0,0.0,0.0,0.0,0.0,0.0,0.0,0.0,0.0,0.0,0.0,0.0,0.0,0.0,0.0,0.0,4.1913,4.2916,4.3792,4.4446,4.544,4.5941,4.5899,4.6326,4.6519,4.6492,4.6931,4.7124,4.7145,4.7124,4.7136,4.7136,4.7103,4.7096,4.7096,4.7096,4.7088,4.7047,4.6583,4.6394,4.6275,0.0,0.0,0.0,0.0,0.0,0.0,0.0,0.0,0.0,0.0,4.7326,4.7693,4.7701,4.9266,5.1065,5.1326,5.3667,5.6195,5.6849,5.7945,5.8927,5.9119,5.9827,5.9869,5.7905,5.6191,5.4241,5.1659,5.0161,5.0374,5.3665,5.3596,0.0,5.8349,5.7739,0.0,5.9254,0.0,6.1067,6.2758,6.4046,0.0,0.0,6.3642,6.4622,6.4566,6.4655,6.4951,6.5575,6.5641,6.5613,6.5523,6.5484,6.5454,6.5454,6.5454,6.5454,6.5454,6.544,6.5081,6.4526,6.5142,6.5031,6.4477,6.5127,6.5394,6.5394,6.5394,6.5394,6.5394,6.5394,6.5394,6.5394,0.0,0.0,0.0,0.0,0.0,0.0,0.0,0.0,0.0,0.0,0.0,0.0,0.0,0.0,0.0,0.0,0.0,0.0,0.0,4.1914,4.2447,4.2458,4.3292,4.3737,4.371,4.4406,4.4744,4.475,4.5479,4.5847,4.5847,4.5814,4.5807,4.5807,4.5807,4.5807,4.5807,4.5807,4.5807,0.0,0.0,4.4697,4.4562,0.0,0.0,0.0,0.0,0.0,0.0,0.0,0.0,4.6283,4.9591,5.0113,4.9707,5.0712,0.0,5.2803,5.3479,5.5364,5.7312,5.8074,5.8981,5.9482,5.8701,5.8871,5.8443,5.5842,5.4175,0.0,4.9779,4.8846,4.9519,0.0,0.0,0.0,5.7756,5.7418,5.7599,0.0,6.0454,0.0,6.4852,6.5532,6.5205,0.0,6.3892,6.4001,6.3961,6.4065,6.459,6.5646,6.5711,6.5697,6.563,6.5589,6.558,6.558,6.558,6.558,6.558,6.558,6.4967,6.397,0.0,6.4848,6.3896,6.4966,6.5394,6.5394,6.5394,6.5394,6.5394,6.5394,6.5394,6.5394,0.0,0.0,0.0,0.0,0.0,0.0,0.0,0.0,0.0,0.0,0.0,0.0,0.0,0.0,0.0,0.0,0.0,0.0,0.0,0.0,4.1425,4.1425,4.12,4.1077,4.1053,4.2319,4.2994,4.3053,4.4512,4.5228,4.5215,4.5163,4.5149,4.5149,4.5149,4.5149,4.5149,4.5149,4.5149,4.5014,4.3556,4.2976,4.2802,0.0,0.0,0.0,0.0,0.0,0.0,0.0,4.8933,4.8488,5.255,5.2801,5.2116,5.4871,5.4793,5.4291,5.6399,5.7222,5.7869,5.9493,5.9977,5.9667,5.815,5.7448,5.6397,5.384,0.0,5.1962,4.9759,5.0154,5.1366,5.3128,0.0,5.5437,5.7302,5.8072,5.893,6.0258,6.0623,6.2105,6.5524,6.5543,6.5485,6.5832,6.3803,6.2533,6.2517,6.2614,6.3642,6.5724,6.5863,6.5863,6.5801,6.5801,6.5801,6.5801,6.5801,6.5801,6.5801,6.5801,6.4602,6.262,6.4711,6.437,6.249,6.4594,6.5454,6.5454,6.5454,6.544,6.5425,6.5425,6.5409,6.5394,0.0,0.0,0.0,0.0,0.0,0.0,0.0,0.0,0.0,0.0,0.0,0.0,0.0,0.0,0.0,0.0,0.0,0.0,0.0,0.0,0.0,4.3078,4.2364,4.1951,4.1884,4.1466,4.1244,4.1248,4.1538,4.1673,4.1673,4.1667,4.1667,4.1667,4.1667,4.1667,4.1667,4.1667,4.1667,4.1648,4.1358,4.1242,4.1203,0.0,0.0,0.0,0.0,0.0,0.0,0.0,5.0964,5.1815,5.4677,5.5354,5.4967,5.4175,5.4716,5.5528,5.5296,5.6766,5.8623,5.9629,6.0402,6.0809,6.0518,5.8798,0.0,0.0,5.1774,5.0154,4.9718,5.0877,5.2489,5.4248,0.0,0.0,0.0,0.0,5.9437,0.0,0.0,0.0,0.0,0.0,0.0,0.0,6.5728,6.5371,6.514,6.516,6.5371,6.5782,6.5814,6.5814,6.5801,6.5801,6.5801,6.5801,6.5801,6.5801,6.5801,6.5801,6.5551,6.5147,6.5583,0.0,6.5128,6.5564,6.5724,6.5724,6.5724,6.5657,6.5566,6.5566,6.5499,6.5394,0.0,0.0,0.0,0.0,0.0,0.0,0.0,0.0,0.0,0.0,4.2345,4.2035,0.0,0.0,0.0,0.0,0.0,0.0,0.0,0.0,0.0,0.0,4.3066,4.2593,4.21,4.1701,4.1246,4.0797,0.0,4.0809,4.0797,4.0797,4.0797,4.0797,4.0797,4.0797,4.0797,4.0797,4.0797,4.0797,4.0797,4.0797,0.0,0.0,0.0,0.0,0.0,0.0,0.0,0.0,5.019,5.1505,5.4929,5.6012,5.5664,5.3981,5.5006,5.6487,5.5644,5.7308,5.9474,6.0325,6.0809,6.0402,5.7753,0.0,0.0,0.0,4.8527,4.7811,4.8256,4.9378,0.0,5.4871,0.0,0.0,0.0,0.0,0.0,0.0,0.0,0.0,0.0,0.0,0.0,6.4135,6.4213,6.4742,6.5928,6.6005,6.6005,6.6005,6.6005,6.6005,6.6005,6.6005,6.6005,6.6005,6.6005,6.6005,6.6005,6.6005,6.6005,6.5994,6.5924,6.4898,6.3384,6.5095,6.475,6.3327,6.5109,6.5763,6.5697,6.5697,6.5657,6.5622,0.0,0.0,0.0,0.0,0.0,0.0,0.0,4.2204,4.251,4.3379,4.334,4.2733,4.1466,4.1291,0.0,0.0,0.0,0.0,0.0,0.0,0.0,0.0,0.0,0.0,0.0,0.0,0.0,4.1067,4.0873,0.0,0.0,0.0,0.0,0.0,4.0797,4.0797,4.0797,4.0797,4.0797,0.0,0.0,0.0,0.0,0.0,0.0,0.0,0.0,0.0,0.0,0.0,4.8856,5.0035,5.3536,5.4774,5.4755,5.4,5.52,5.6757,5.6824,5.8333,6.0093,6.0905,6.1099,5.9919,5.5354,5.3884,0.0,0.0,4.6194,4.6232,4.7657,4.8624,5.0751,0.0,5.6545,5.7656,0.0,0.0,0.0,0.0,0.0,0.0,0.0,0.0,0.0,6.3168,6.3207,6.4097,6.6089,6.6205,6.6205,6.6205,6.6205,6.6205,6.6205,6.6205,6.6205,6.6205,6.6205,6.6205,6.6205,6.6205,6.6205,6.6185,6.6091,6.4097,6.1192,6.4517,6.3873,6.1127,6.4547,6.5863,6.5839,6.5839,6.5826,6.5801,0.0,0.0,0.0,0.0,0.0,0.0,0.0,4.2204,4.251,4.3379,4.2801,4.2262,4.2116,4.2097,0.0,0.0,0.0,0.0,0.0,0.0,0.0,0.0,0.0,0.0,0.0,0.0,0.0,4.1893,4.1164,0.0,0.0,0.0,0.0,0.0,0.0,4.0797,4.0797,4.0797,0.0,0.0,0.0,0.0,0.0,0.0,0.0,0.0,0.0,0.0,0.0,0.0,0.0,4.872,4.9919,5.0782,5.1807,5.4039,0.0,0.0,5.872,5.9725,6.0093,6.0905,6.1099,6.0364,5.757,0.0,0.0,4.9919,4.7444,4.6767,4.995,5.1254,5.3014,0.0,0.0,5.5915,0.0,0.0,0.0,0.0,0.0,0.0,0.0,0.0,0.0,6.5682,6.5857,6.5953,6.6185,6.6205,6.6205,6.6205,6.6205,6.6205,6.6205,6.6205,6.6205,6.6205,6.6205,6.6205,6.6205,6.6205,6.6205,6.6205,6.6194,6.4231,0.0,6.4763,6.4144,6.1399,6.4821,6.6091,6.5971,6.5971,6.59,6.5801,0.0,0.0,0.0,0.0,0.0,0.0,0.0,4.3646,4.3936,4.4776,4.4582,4.4175,4.3704,4.3646,4.3024,0.0,0.0,0.0,0.0,0.0,0.0,0.0,0.0,0.0,0.0,0.0,4.1757,4.1274,4.0971,0.0,0.0,0.0,0.0,0.0,0.0,0.0,4.0797,0.0,0.0,0.0,0.0,0.0,0.0,0.0,0.0,0.0,0.0,0.0,0.0,0.0,0.0,0.0,4.6515,4.6881,0.0,0.0,5.313,5.5702,5.6592,5.8681,6.0692,6.1021,6.1099,6.0035,5.5935,0.0,5.2318,4.8198,4.6523,4.6535,4.8952,4.9687,5.1196,0.0,0.0,0.0,6.0306,0.0,0.0,0.0,0.0,0.0,0.0,0.0,6.282,6.3845,6.3903,6.458,6.6127,6.6205,6.6205,6.6205,6.6205,6.6205,6.6205,6.6205,6.6205,6.6205,6.6205,6.6205,6.6205,6.6205,6.6205,6.6205,6.6205,6.3091,0.0,6.3942,6.2975,5.8565,6.4058,6.6174,6.6112,6.6112,6.6091,6.6027,0.0,0.0,0.0,0.0,0.0,0.0,4.4504,4.4594,4.4891,4.5691,4.5587,4.5239,4.4652,4.4594,4.3666,4.136,0.0,0.0,0.0,0.0,0.0,0.0,0.0,0.0,0.0,0.0,4.1719,4.1145,4.0913,4.0797,0.0,0.0,4.0797,0.0,0.0,0.0,0.0,0.0,0.0,0.0,0.0,0.0,0.0,0.0,0.0,0.0,0.0,0.0,0.0,0.0,0.0,0.0,0.0,0.0,0.0,0.0,5.1884,5.5401,5.5835,5.8465,6.1099,6.1099,6.0538,5.8836,0.0,0.0,5.1119,4.6716,4.5807,4.6329,4.8082,4.8392,4.9803,5.4097,0.0,5.6321,6.0673,6.1273,0.0,0.0,0.0,6.4677,0.0,6.3516,6.3516,6.3516,6.3516,6.4309,6.6108,6.6205,6.6205,6.6205,6.6205,6.6205,6.6205,6.6205,6.6205,6.6205,6.6205,6.5663,6.4735,6.574,6.5644,6.4754,6.576,6.2897,0.0,6.3806,6.2762,5.8101,6.3922,6.6205,6.6205,6.6205,6.6205,6.6205,0.0,0.0,0.0,0.0,0.0,0.0,0.0,4.4594,4.4891,4.5691,4.5104,4.4613,4.4594,4.4594,4.3885,4.2144,0.0,0.0,0.0,0.0,0.0,0.0,0.0,0.0,0.0,0.0,4.2009,4.199,4.1184,4.0797,4.0797,4.0797,4.0797,4.0797,0.0,0.0,0.0,0.0,0.0,0.0,0.0,0.0,0.0,0.0,0.0,0.0,0.0,0.0,0.0,0.0,0.0,0.0,0.0,0.0,0.0,0.0,5.1618,5.4356,5.7741,5.9847,6.1099,6.1099,5.9203,5.6661,0.0,5.1544,4.8991,4.6348,4.5807,4.6329,4.8082,4.8392,4.9803,5.4097,5.4793,0.0,5.8284,5.8651,0.0,0.0,0.0,6.342,6.5915,6.6166,6.6166,6.6166,6.6166,0.0,6.6205,6.6205,6.6205,6.6205,6.6205,6.6205,6.6205,6.6205,6.6205,6.6205,6.6205,6.4425,6.1273,6.4657,6.4348,6.135,6.4735,6.4232,0.0,6.4773,6.4155,6.1389,6.4851,6.6205,6.6205,6.6205,6.6205,6.6205,0.0,0.0,0.0,0.0,0.0,0.0,0.0,4.4949,4.4891,4.5691,4.5104,4.4813,4.5355,4.4929,4.413,4.2995,0.0,0.0,0.0,0.0,0.0,0.0,0.0,0.0,0.0,0.0,4.1448,4.2009,4.1177,4.1087,4.1603,4.1067,4.0797,4.0797,4.0797,0.0,0.0,0.0,0.0,0.0,0.0,0.0,0.0,0.0,0.0,0.0,0.0,0.0,0.0,0.0,0.0,0.0,0.0,0.0,0.0,4.6744,4.9114,0.0,5.3117,5.4777,5.6045,5.6045,5.5404,5.41,5.1547,5.0315,4.8952,4.6348,4.6271,4.6864,4.7405,4.8005,4.961,5.3304,5.3904,0.0,0.0,0.0,0.0,6.4837,6.5128,6.5458,0.0,0.0,6.4458,6.6215,6.4729,6.4457,6.6118,6.6205,6.6205,6.6205,6.6205,6.6205,6.6205,6.6205,6.6205,6.6205,6.6205,6.4715,6.2085,6.4909,6.4657,6.2162,6.4967,6.4251,6.1369,6.4793,6.4193,6.1447,6.4851,6.6205,6.6205,6.6205,6.6205,6.6205,0.0,0.0,0.0,0.0,0.0,0.0,0.0,4.5374,4.5239,4.5729,4.5355,4.5123,4.5336,4.491,4.411,4.2918,0.0,0.0,0.0,0.0,0.0,0.0,0.0,0.0,0.0,4.1067,4.1177,4.2009,4.1177,4.1216,4.197,4.1184,4.0797,4.0797,4.0797,0.0,0.0,0.0,0.0,0.0,0.0,0.0,4.1451,0.0,0.0,0.0,0.0,0.0,0.0,0.0,0.0,0.0,0.0,0.0,0.0,0.0,4.7053,4.8939,0.0,5.2446,5.3696,5.3696,5.2957,0.0,0.0,4.906,4.7887,4.6244,4.7367,4.8345,4.7327,4.8664,5.0266,5.1386,5.3511,5.5971,0.0,0.0,0.0,6.3379,0.0,0.0,0.0,6.5045,6.4773,6.6361,6.5006,6.4772,6.6279,6.6348,6.6348,6.6348,6.6245,6.6205,6.6205,6.6205,6.6205,6.6205,6.6205,6.4696,6.2008,6.4889,6.4638,6.2066,6.4948,6.4986,0.0,6.5315,6.4948,6.3245,6.5373,6.6205,6.6205,6.6205,6.6205,6.6205,0.0,0.0,0.0,0.0,0.0,0.0,0.0,0.0,0.0,0.0,4.5749,4.5452,4.4755,4.4632,4.3924,0.0,0.0,0.0,0.0,0.0,0.0,0.0,0.0,0.0,4.0797,4.0797,4.1222,4.2086,4.1222,4.1235,4.2067,4.1222,4.0797,4.0797,4.0803,4.0808,0.0,0.0,0.0,0.0,4.0908,4.1423,0.0,0.0,0.0,0.0,0.0,0.0,0.0,0.0,0.0,0.0,0.0,0.0,0.0,0.0,0.0,0.0,0.0,5.1908,0.0,0.0,0.0,0.0,4.9535,4.7712,0.0,4.6316,4.8996,5.0482,4.7879,5.0328,5.1841,4.9056,5.3612,5.6671,0.0,5.6894,0.0,0.0,6.1315,0.0,6.6113,6.6508,6.6605,6.6605,6.6605,6.66,6.659,6.659,6.659,6.659,6.6356,6.6225,6.6205,6.6195,6.6089,6.5837,6.6089,6.4309,6.0944,6.4561,6.4367,0.0,6.4735,6.6205,6.6205,6.6205,6.6205,6.6205,6.6205,6.6205,6.6205,6.6205,6.6205,6.6205,0.0,0.0,0.0,0.0,0.0,0.0,0.0,0.0,0.0,0.0,0.0,4.5045,4.5471,4.4968,0.0,0.0,0.0,0.0,0.0,0.0,0.0,0.0,0.0,0.0,4.0797,4.0797,4.1525,4.2995,4.1525,4.1545,4.2957,4.1487,4.0797,4.0797,4.0851,4.0897,0.0,0.0,0.0,0.0,4.1629,4.2022,0.0,0.0,0.0,0.0,4.4934,4.5071,0.0,0.0,0.0,0.0,0.0,0.0,0.0,0.0,4.5136,4.5332,4.5447,0.0,4.7039,4.7039,4.6048,4.5263,0.0,4.5565,4.5845,4.847,5.0715,5.1588,4.9637,5.3151,5.5091,5.1172,5.4509,5.7133,5.5871,0.0,0.0,5.9137,6.2984,6.525,6.3901,6.5523,6.6678,6.6678,6.6678,6.665,6.6595,6.659,6.659,6.659,6.654,6.6457,6.6348,6.6245,6.4889,6.2336,6.4948,6.34,5.8382,6.3748,6.4696,6.2259,6.5006,6.6205,6.6205,6.6205,6.6205,6.6205,6.6205,6.6205,6.6205,6.6205,6.6205,6.6205,0.0,0.0,0.0,0.0,0.0,0.0,0.0,0.0,0.0,0.0,0.0,0.0,0.0,0.0,0.0,0.0,0.0,0.0,0.0,0.0,0.0,0.0,0.0,4.0797,4.0797,4.1164,4.199,4.3305,4.199,4.2028,4.3266,4.1625,4.084,4.0846,4.0924,4.0963,0.0,0.0,0.0,0.0,4.2064,0.0,0.0,0.0,0.0,0.0,4.455,4.4394,0.0,4.4394,4.4355,4.4453,0.0,0.0,0.0,0.0,4.4726,4.4297,4.3828,4.4336,4.5293,4.6484,4.5818,4.5284,4.6945,4.6387,4.6452,4.9872,0.0,5.1822,5.1249,5.3101,5.4052,5.2063,5.3426,0.0,0.0,0.0,5.9941,5.8612,6.1269,6.2987,0.0,6.5015,6.6752,6.6785,6.6785,6.6777,6.6731,6.6748,6.6748,6.6748,6.6681,6.6595,6.6491,6.6356,6.4591,6.1279,6.4618,6.3709,5.926,6.4029,6.545,6.4135,6.3942,6.4754,6.6089,6.4503,6.4773,6.6205,6.6205,6.6205,6.6205,6.6205,6.6205,6.6205,0.0,0.0,0.0,0.0,0.0,0.0,0.0,0.0,0.0,0.0,0.0,0.0,0.0,0.0,0.0,0.0,0.0,0.0,0.0,0.0,0.0,0.0,0.0,4.0855,4.099,4.1641,4.2492,4.3498,4.2628,4.266,4.3473,4.1854,4.1036,4.0937,4.1,4.1025,0.0,0.0,0.0,0.0,4.2612,0.0,0.0,0.0,0.0,0.0,0.0,0.0,0.0,4.3691,4.4199,4.4824,4.4961,0.0,0.0,0.0,0.0,0.0,4.3359,4.4043,4.543,4.8047,4.7285,4.6621,4.9375,0.0,0.0,0.0,0.0,0.0,5.291,5.3358,0.0,0.0,0.0,0.0,5.745,5.8868,5.9122,5.8128,5.9358,0.0,6.1787,6.4872,6.6827,6.6873,6.6874,6.6874,6.6874,6.6874,6.6874,6.6874,6.6768,6.6692,6.6657,6.651,6.4747,6.1446,6.4706,6.4505,6.1366,6.4713,6.6235,6.608,0.0,0.0,6.6003,6.3136,6.3649,6.6263,6.6263,6.6263,6.6263,6.6263,6.6263,6.6254,0.0,0.0,0.0,0.0,0.0,0.0,0.0,0.0,0.0,0.0,0.0,0.0,0.0,0.0,0.0,0.0,0.0,0.0,0.0,0.0,0.0,4.0835,4.0797,4.1126,4.1796,4.1932,4.2783,4.44,4.3577,4.3626,4.4461,4.277,4.1674,4.1072,4.108,4.1116,4.1208,0.0,0.0,4.2519,4.3984,0.0,0.0,0.0,0.0,0.0,0.0,0.0,0.0,4.3691,4.3789,4.4023,4.4766,0.0,0.0,0.0,0.0,0.0,4.1777,4.2715,4.4531,4.7148,4.5937,4.498,4.834,4.7088,0.0,0.0,0.0,0.0,0.0,6.0073,6.1596,0.0,0.0,5.6448,0.0,0.0,6.07,5.9097,0.0,6.4846,6.2896,6.518,6.6802,6.6807,6.6826,6.6826,6.6826,6.6826,6.6815,6.6828,6.6792,6.6816,6.6851,6.6662,6.487,6.1528,6.4927,6.4747,6.1578,6.4874,6.6372,6.6333,0.0,6.5887,6.6341,6.5933,6.6073,6.654,6.654,6.654,6.654,6.654,6.654,6.6522,0.0,0.0,0.0,0.0,0.0,0.0,0.0,0.0,0.0,0.0,0.0,0.0,0.0,0.0,0.0,0.0,0.0,0.0,0.0,0.0,0.0,4.1562,4.1514,4.1676,4.2045,4.2524,4.3391,4.4715,4.4334,4.4121,4.402,4.2359,4.1435,4.1147,4.1147,4.1404,4.1875,4.2246,4.2949,4.3828,0.0,0.0,0.0,0.0,0.0,0.0,0.0,0.0,0.0,0.0,4.3691,4.3769,4.418,0.0,0.0,0.0,0.0,0.0,4.1816,4.2753,4.4764,4.9235,4.8065,4.7187,5.2497,5.0268,0.0,0.0,0.0,0.0,0.0,0.0,5.7495,5.4626,0.0,6.1654,6.0609,6.1545,6.1877,0.0,0.0,6.404,6.2359,6.4997,6.6798,6.6795,6.6795,6.6795,6.6795,6.6795,6.6802,6.6791,6.6791,6.6817,6.6844,6.6755,6.4999,6.1653,6.5008,6.4831,6.166,6.4991,6.651,6.6413,0.0,6.481,6.638,6.4578,6.4924,6.659,6.659,6.659,6.659,6.659,6.659,6.6585,0.0,0.0,0.0,0.0,0.0,0.0,0.0,0.0,0.0,0.0,0.0,0.0,0.0,0.0,0.0,0.0,0.0,0.0,0.0,0.0,4.2459,4.2497,4.2268,4.2313,4.2726,4.3184,4.3879,4.48,4.4621,4.4086,4.3222,4.1986,4.1322,4.1211,4.1406,4.1816,4.2402,4.2617,4.3476,4.4648,0.0,0.0,0.0,0.0,0.0,0.0,0.0,0.0,0.0,0.0,0.0,0.0,0.0,0.0,0.0,4.2109,4.1775,4.1558,4.2226,4.318,4.5303,5.0731,4.9664,4.9198,5.6453,5.3128,5.0818,0.0,0.0,0.0,0.0,5.5301,0.0,5.7135,6.2094,6.488,6.3049,6.3361,6.3536,6.2874,6.338,6.3531,6.2867,6.5211,6.6783,6.6772,6.6775,6.6775,6.6775,6.6775,6.6778,6.6807,6.6807,6.6809,6.6795,6.6797,6.5483,6.2929,6.5465,6.5325,6.2924,6.5476,6.6629,6.6473,6.3858,6.4205,6.6419,6.3822,6.4313,6.6662,6.6662,6.6662,6.6662,6.6662,6.6646,6.6629,0.0,0.0,0.0,0.0,0.0,0.0,0.0,0.0,0.0,0.0,0.0,0.0,0.0,0.0,0.0,0.0,0.0,0.0,0.0,0.0,4.341,4.3419,4.263,4.2958,4.4562,4.3874,4.3913,4.4809,4.4048,4.3265,4.248,4.2363,4.1914,4.123,4.1973,4.2344,4.2441,4.3262,4.3672,4.3787,4.3729,0.0,0.0,0.0,0.0,0.0,0.0,0.0,0.0,0.0,0.0,0.0,0.0,0.0,4.1269,4.1207,4.1712,4.2317,4.2377,4.3639,4.5778,4.9384,4.8313,4.8603,5.7077,5.3096,0.0,5.9599,0.0,0.0,0.0,5.8436,5.7169,6.0672,6.1646,6.2991,6.5913,0.0,6.64,6.6342,6.64,6.64,6.6347,6.6561,6.6717,6.6702,6.6702,6.6702,6.6702,6.6702,6.6746,6.6806,6.6806,6.6805,6.6795,6.6797,6.6689,6.6436,6.6738,6.6757,6.6523,6.6637,6.6692,6.6673,6.6419,6.6478,6.6678,6.6557,6.6659,6.6874,6.6874,6.6874,6.6874,6.6874,6.6805,6.6692,0.0,0.0,0.0,0.0,0.0,0.0,0.0,0.0,0.0,0.0,0.0,0.0,0.0,0.0,0.0,0.0,0.0,0.0,0.0,4.4543,4.4146,4.3657,4.3269,4.3404,4.4106,4.3755,4.3734,4.4124,4.3274,4.2693,4.2402,4.2402,4.2246,4.1973,4.2832,4.3203,4.3223,4.3554,4.369,4.365,4.3102,4.3023,0.0,0.0,0.0,0.0,0.0,0.0,0.0,0.0,4.2402,4.2305,4.1816,4.1425,4.113,4.111,4.1725,4.2529,4.3052,4.4057,4.6282,5.1886,4.9725,0.0,0.0,5.5519,5.3842,6.2234,5.8927,0.0,0.0,0.0,6.0068,6.1393,6.338,6.5231,6.6517,6.6712,6.6712,6.6712,6.6712,6.6712,6.6712,6.6712,6.6712,6.6712,6.6712,6.6712,6.6712,6.6712,6.6717,6.6741,6.6741,6.675,6.6748,6.6788,6.6792,6.6789,6.6872,6.6894,6.6894,6.6853,6.6811,6.6811,6.6811,6.6811,6.6831,6.6874,6.6894,6.6894,6.6894,6.6894,6.6894,6.6894,6.6874,6.6811,0.0,0.0,0.0,0.0,0.0,0.0,0.0,0.0,0.0,0.0,0.0,0.0,0.0,0.0,0.0,0.0,0.0,0.0,4.4971,4.4414,4.3994,4.371,4.3393,4.3237,4.3281,4.3511,4.351,4.3281,4.2695,4.2402,4.2402,4.2676,4.2812,4.2832,4.3437,4.3691,4.3672,4.3417,4.3299,4.324,4.2632,4.2592,0.0,0.0,0.0,0.0,0.0,0.0,0.0,0.0,4.2226,4.1894,4.1347,4.113,4.1143,4.1436,4.2123,4.2997,4.3855,4.468,4.676,5.2867,5.0251,0.0,5.8847,5.717,5.5521,6.2723,6.0399,5.6541,5.4866,0.0,0.0,0.0,6.3556,6.5465,6.6556,6.6712,6.6712,6.6712,6.6712,6.6712,6.6712,6.6712,6.6712,6.6712,6.6712,6.6712,6.6712,6.6712,6.6712,6.6712,6.6712,6.6712,6.6712,6.6759,6.6798,6.6801,6.6841,6.6873,6.6894,6.6894,6.6894,6.6894,6.6894,6.6894,6.6894,6.6894,6.6894,6.6894,6.6894,6.6894,6.6894,6.6894,6.6894,6.6894,0.0,0.0,0.0,0.0,0.0,0.0,0.0,0.0,0.0,0.0,0.0,0.0,0.0,0.0,0.0,0.0,0.0,0.0,4.499,4.3387,4.2807,4.3666,4.287,4.2402,4.2402,4.3262,4.3281,4.2402,4.2402,4.2402,4.2422,4.3301,4.3711,4.3691,4.373,4.373,4.3633,4.2792,4.242,4.24,4.2398,4.1889,4.1225,0.0,0.0,0.0,0.0,0.0,0.0,0.0,4.1815,4.1108,4.1091,4.1087,4.1271,4.2151,4.3041,4.3897,4.4729,4.5562,4.7239,5.1535,0.0,0.0,6.0263,5.7516,5.434,6.036,6.4296,6.5621,6.2172,6.1607,0.0,6.1607,6.1627,6.2835,6.6225,6.6712,6.6712,6.6712,6.6712,6.6712,6.6712,6.6712,6.6712,6.6712,6.6712,6.6712,6.6712,6.6712,6.6712,6.6712,6.6712,6.6712,6.6712,6.6759,6.6803,6.6803,6.6801,6.6838,6.6894,6.6894,6.6894,6.6894,6.6894,6.6894,6.6894,6.6894,6.6894,6.6894,6.6894,6.6894,6.6894,6.6894,6.6894,6.6894,0.0,0.0,0.0,0.0,0.0,0.0,0.0,0.0,0.0,0.0,0.0,0.0,0.0,0.0,0.0,0.0,0.0,0.0,4.4994,4.3946,4.3425,4.3685,4.3453,4.3319,4.3301,4.3574,4.3574,4.3301,4.3301,4.3301,4.332,4.4219,4.4297,4.3808,4.6269,4.5664,4.2891,4.4472,4.408,4.2342,4.1733,4.2066,0.0,0.0,0.0,0.0,0.0,0.0,0.0,0.0,0.0,0.0,4.0382,4.0607,4.1491,4.357,4.4351,4.5127,4.7824,4.785,4.7992,5.1682,0.0,0.0,0.0,5.5022,0.0,0.0,6.2406,6.2075,5.865,0.0,0.0,6.1997,6.3614,6.5543,6.6556,6.6712,6.6712,6.6712,6.6712,6.6712,6.6712,6.6712,6.6712,6.6712,6.6712,6.6712,6.6712,6.6712,6.6712,6.6712,6.6712,6.6712,6.6712,6.6727,6.675,6.6803,6.6794,6.6804,6.6836,6.6827,6.683,6.6831,6.6874,6.6894,6.6894,6.6894,6.6894,6.6894,6.6894,6.6894,6.6894,6.6894,6.6894,6.6894,0.0,0.0,0.0,0.0,0.0,0.0,0.0,0.0,0.0,0.0,0.0,0.0,0.0,0.0,0.0,0.0,0.0,0.0,0.0,4.3942,4.3661,4.3651,4.3681,4.3864,4.4219,4.4219,4.4219,4.4219,4.3867,4.3887,4.4238,4.4746,4.4726,4.4297,4.6055,4.5176,4.25,4.4081,4.3632,4.1893,4.2031,4.2303,4.2611,0.0,0.0,0.0,0.0,0.0,0.0,0.0,0.0,0.0,3.9841,4.097,4.2679,4.3559,4.502,4.6988,4.9808,4.9808,5.0151,5.4983,5.3716,5.1651,5.3054,0.0,0.0,0.0,6.3634,6.2991,6.0925,6.3926,0.0,6.3965,6.5368,6.6712,6.6712,6.6712,6.6712,6.6712,6.6712,6.6712,6.6712,6.6712,6.6712,6.6712,6.6712,6.6712,6.6712,6.6712,6.6712,6.6712,6.6712,6.6712,6.6712,6.6712,6.6727,6.6755,6.6755,6.6752,6.6759,6.6783,6.6797,6.6797,6.6831,6.6874,6.6894,6.6894,6.6894,6.6894,6.6894,6.6894,6.6894,6.6894,6.6894,6.6894,0.0,0.0,0.0,0.0,0.0,0.0,0.0,0.0,0.0,0.0,0.0,0.0,0.0,0.0,0.0,0.0,0.0,0.0,0.0,0.0,4.3648,4.3709,4.3866,4.4313,4.5098,4.5039,4.5,4.5,4.4219,4.418,4.4883,4.4883,4.4844,4.4746,4.4258,4.3398,4.2304,4.2617,4.2145,4.1339,4.2771,4.2461,4.1192,4.19,0.0,0.0,0.0,0.0,0.0,0.0,0.0,0.0,3.9304,4.1505,4.3885,4.2665,4.5337,4.9128,5.1087,5.1518,5.2905,5.9197,5.5987,0.0,5.6487,5.7189,5.8821,6.5348,0.0,6.6342,6.6634,6.6712,6.6712,6.6712,6.6712,6.6712,6.6712,6.6712,6.6712,6.6712,6.6712,6.6712,6.6712,6.6712,6.6712,6.6712,6.6712,6.6712,6.6712,6.6712,6.6712,6.6712,6.6712,6.6712,6.6712,6.6712,6.6712,6.6712,6.6712,6.6712,6.6692,6.6762,6.6795,6.6798,6.6797,6.683,6.6894,6.6894,6.6894,6.6894,6.6894,6.6894,6.6894,6.6894,6.6894,6.6894,0.0,0.0,0.0,0.0,0.0,0.0,0.0,0.0,0.0,0.0,0.0,0.0,0.0,0.0,0.0,0.0,0.0,0.0,0.0,0.0,4.3919,4.4587,4.5332,4.5836,4.6016,4.5351,4.5,4.5,4.4805,4.4473,4.3984,4.3984,4.3613,4.3066,4.5577,4.471,4.1547,4.4196,4.4016,4.1933,4.166,4.1707,4.1883,4.138,4.1501,0.0,0.0,0.0,0.0,0.0,0.0,0.0,3.7676,3.8894,4.0925,4.2579,4.6098,5.0125,5.3157,5.3087,5.2505,5.3934,5.2787,5.3619,6.2484,6.2426,6.1685,6.5835,6.4569,6.3517,6.6205,6.6712,6.6712,6.6712,6.6712,6.6712,6.6712,6.6712,6.6712,6.6712,6.6712,6.6712,6.6712,6.6712,6.6712,6.6712,6.6712,6.6712,6.6712,6.6712,6.6712,6.6712,6.6712,6.6712,6.6712,6.6712,6.6712,6.6712,6.6712,6.6712,6.6692,6.6771,6.6792,6.6798,6.6802,6.6807,6.6811,6.6811,6.682,6.6828,6.6817,6.6846,6.6894,6.6832,6.6853,6.6894,0.0,0.0,0.0,0.0,0.0,0.0,0.0,0.0,0.0,0.0,0.0,0.0,0.0,0.0,0.0,0.0,0.0,0.0,0.0,0.0,0.0,4.5503,4.5992,4.6067,4.5683,4.5234,4.459,4.3769,4.3769,4.373,4.3691,4.3262,4.3046,4.3039,4.4396,4.3753,4.1739,4.349,4.3201,4.1564,4.1532,4.1269,4.0815,4.0359,4.0184,4.0126,3.9664,0.0,0.0,0.0,0.0,0.0,0.0,0.0,4.1299,4.1828,4.5059,4.8982,5.1593,5.2965,5.415,5.6228,0.0,5.9659,6.34,6.416,6.4549,6.6342,6.529,6.4588,6.6381,6.6712,6.6712,6.6712,6.6712,6.6712,6.6712,6.6712,6.6712,6.6712,6.6712,6.6712,6.6712,6.6712,6.6712,6.6712,6.6712,6.6712,6.6712,6.6712,6.6712,6.6712,6.6712,6.6712,6.6712,6.6712,6.6712,6.6712,6.6712,6.6712,6.6692,6.6736,6.6775,6.6795,6.6795,6.6804,6.6795,6.6795,6.6805,6.6793,6.6802,6.6811,6.6845,6.6817,6.682,6.6846,0.0,0.0,0.0,0.0,0.0,0.0,0.0,0.0,0.0,0.0,0.0,0.0,0.0,0.0,0.0,0.0,0.0,0.0,0.0,0.0,0.0,0.0,4.5773,4.5456,4.4785,4.4629,4.3848,4.2402,4.2382,4.2987,4.4119,4.3377,4.3391,4.4032,4.357,4.2933,4.2197,4.233,4.1816,4.0937,4.1445,4.0831,0.0,0.0,0.0,3.8273,3.8138,3.7977,3.7828,3.7735,0.0,0.0,0.0,0.0,4.189,4.0699,4.3508,4.7302,4.8793,5.2,5.5954,6.038,6.3197,0.0,6.2805,6.4184,6.5991,6.6576,6.6712,6.6712,6.6712,6.6712,6.6712,6.6712,6.6712,6.6712,6.6712,6.6712,6.6712,6.6712,6.6712,6.6712,6.6712,6.6712,6.6712,6.6712,6.6712,6.6712,6.6712,6.6712,6.6712,6.6712,6.6712,6.6712,6.6712,6.6712,6.6712,6.6712,6.6712,6.6712,6.6712,6.6712,6.6736,6.6771,6.6771,6.6771,6.6781,6.6781,6.6784,6.6807,6.6784,6.6787,6.6795,6.679,6.6792,6.6795,0.0,0.0,0.0,0.0,0.0,0.0,0.0,0.0,0.0,0.0,0.0,0.0,0.0,0.0,0.0,0.0,0.0,0.0,4.6024,0.0,0.0,4.4055,4.4037,4.3972,4.3887,4.3125,4.2637,4.2402,4.2334,4.3528,0.0,0.0,0.0,4.5906,0.0,4.5604,4.216,4.287,4.2257,4.0763,4.0105,0.0,0.0,0.0,0.0,3.8954,3.8253,3.749,3.6811,3.6857,3.6209,0.0,0.0,0.0,3.8684,3.9238,4.297,4.695,4.7145,5.0769,5.5538,5.9899,5.9231,5.8952,0.0,0.0,6.3127,0.0,6.6712,6.6712,6.6712,6.6712,6.6712,6.6712,6.6712,6.6712,6.6712,6.6712,6.6712,6.6712,6.6712,6.6712,6.6712,6.6712,6.6712,6.6712,6.6712,6.6712,6.6712,6.6712,6.6712,6.6712,6.6712,6.6712,6.6712,6.6712,6.6712,6.6712,6.6712,6.6712,6.6712,6.6712,6.6692,6.6702,6.6702,6.6707,6.6712,6.6712,6.6759,6.6787,6.675,6.6744,6.6792,6.6805,6.6792,6.6795,0.0,0.0,0.0,0.0,0.0,0.0,0.0,0.0,0.0,0.0,0.0,0.0,0.0,0.0,0.0,4.4768,4.5168,4.5266,4.4779,4.437,4.4036,4.3702,4.37,4.3695,4.3691,4.332,4.3105,4.3077,4.3045,4.5087,0.0,4.9378,4.8835,0.0,0.0,0.0,0.0,0.0,0.0,0.0,0.0,0.0,0.0,0.0,0.0,0.0,0.0,0.0,0.0,3.5914,3.5611,3.5492,3.688,0.0,0.0,0.0,4.1538,4.4372,4.9195,5.1393,5.4169,6.194,6.0289,5.8428,6.4789,6.377,6.2449,6.5829,6.6624,6.6712,6.6712,6.6712,6.6712,6.6712,6.6712,6.6712,6.6712,6.6712,6.6712,6.6712,6.6712,6.6712,6.6712,6.6712,6.6712,6.6712,6.6712,6.6712,6.6712,6.6712,6.6712,6.6712,6.6712,6.6712,6.6712,6.6712,6.6712,6.6712,6.6712,6.6712,6.6712,6.6712,6.6712,6.6712,6.6712,6.6712,6.6712,6.6712,6.6722,6.6741,6.6717,6.6717,6.6732,6.6735,6.6739,6.6736,0.0,0.0,0.0,0.0,0.0,0.0,0.0,0.0,0.0,0.0,0.0,0.0,0.0,0.0,0.0,0.0,4.451,4.4285,4.3642,4.3594,4.3632,4.3704,4.3702,4.3697,4.3691,4.3691,4.3671,4.3603,4.3808,4.6167,5.0544,5.1961,5.1586,0.0,5.0849,4.9181,0.0,0.0,0.0,0.0,0.0,0.0,0.0,0.0,0.0,0.0,0.0,0.0,0.0,0.0,0.0,0.0,3.7389,3.8035,0.0,0.0,0.0,4.2136,4.9671,5.0735,5.1826,6.0616,5.9021,5.667,0.0,0.0,6.0951,0.0,6.5881,6.6624,6.6624,6.6671,6.6712,6.6712,6.6712,6.6712,6.6712,6.6712,6.6712,6.6712,6.6712,6.6712,6.6712,6.6712,6.6712,6.6712,6.6712,6.6712,6.6712,6.6712,6.6712,6.6712,6.6712,6.6712,6.6712,6.6712,6.6712,6.6712,6.6712,6.6712,6.6712,6.6712,6.6712,6.6712,6.6712,6.6712,6.6712,6.6712,6.6712,6.6712,6.6712,6.6712,6.6712,6.6712,6.6712,6.6712,0.0,0.0,0.0,0.0,0.0,0.0,0.0,0.0,0.0,0.0,0.0,0.0,4.3479,4.4209,4.4453,4.3723,4.3656,4.3659,4.3601,4.3596,4.3624,4.3704,4.3698,0.0,4.3691,4.3691,4.3669,4.3603,4.4356,4.6087,4.8713,5.1923,5.3378,5.3204,5.2469,5.1978,5.1533,0.0,0.0,0.0,0.0,0.0,0.0,0.0,0.0,0.0,0.0,0.0,0.0,0.0,0.0,0.0,0.0,0.0,0.0,0.0,0.0,0.0,4.5926,4.7069,4.8058,5.2487,5.1698,5.0721,0.0,0.0,5.716,6.0573,6.4023,6.6419,6.6419,6.6575,6.6712,6.6712,6.6712,6.6712,6.6712,6.6712,6.6712,6.6712,6.6712,6.6712,6.6712,6.6712,6.6712,6.6712,6.6712,6.6712,6.6712,6.6712,6.6712,6.6712,6.6712,6.6712,6.6712,6.6712,6.6712,6.6712,6.6712,6.6712,6.6712,6.6712,6.6712,6.6712,6.6712,6.6712,6.6712,6.6712,6.6712,6.6712,6.6712,6.6712,6.6712,6.6712,6.6712,6.6712,0.0,0.0,0.0,0.0,0.0,0.0,0.0,0.0,0.0,0.0,0.0,0.0,0.0,4.4169,4.4171,4.2873,4.2776,4.3003,4.3568,4.3604,4.3636,4.3704,4.3696,4.396,4.4512,4.4489,4.4432,4.4362,4.4612,4.5745,4.7689,4.8887,5.0337,5.2078,5.6117,5.4589,4.9156,5.1689,0.0,0.0,0.0,0.0,0.0,0.0,0.0,0.0,0.0,0.0,0.0,0.0,0.0,0.0,0.0,0.0,0.0,0.0,0.0,4.1431,4.5713,4.5638,4.5755,5.1585,4.9475,4.7299,5.2305,5.4213,5.5287,5.6503,6.1804,6.5546,6.3344,6.5006,6.6712,6.6712,6.6712,6.6712,6.6712,6.6712,6.6712,6.6712,6.6712,6.6712,6.6712,6.6712,6.6712,6.6712,6.416,6.3789,6.6556,6.4082,6.3848,6.6615,6.6712,6.6712,6.6712,6.6712,6.6712,6.6712,6.6712,6.6712,6.6712,6.6712,6.6712,6.6712,6.6712,6.6712,6.6712,6.6712,6.6712,6.6712,6.6712,6.6712,6.6712,6.6712,6.6712,6.6712,0.0,0.0,0.0,0.0,0.0,0.0,0.0,0.0,0.0,0.0,0.0,0.0,0.0,0.0,4.3895,4.2838,4.2734,4.312,4.3977,4.4061,4.4211,4.4524,4.4559,4.4841,4.543,4.5089,4.4864,4.4803,4.4435,4.4819,4.5905,4.6776,4.8072,4.9911,5.5285,5.4879,0.0,0.0,0.0,4.5992,0.0,0.0,4.4025,0.0,0.0,0.0,0.0,0.0,0.0,0.0,0.0,0.0,0.0,0.0,0.0,0.0,0.0,0.0,4.4335,0.0,4.3246,4.7751,4.6062,4.4317,4.822,5.1826,5.4323,5.4293,6.0517,6.5269,6.3011,6.4724,6.6523,6.6587,6.6666,6.6712,6.6712,6.6712,6.6712,6.6712,6.6712,6.6712,6.6712,6.6712,6.6712,6.6712,6.4062,0.0,6.6556,6.4004,6.375,6.6615,6.6712,6.6712,6.6712,6.6712,6.6712,6.6712,6.6712,6.6712,6.6712,6.6712,6.6712,6.6712,6.6712,6.6712,6.6712,6.6712,6.6712,6.6712,6.6712,6.6712,6.6712,6.6712,6.6712,6.6712,0.0,0.0,0.0,0.0,0.0,0.0,0.0,0.0,0.0,4.1695,0.0,0.0,0.0,0.0,0.0,4.364,4.364,4.4014,4.4874,4.5009,4.5384,4.6163,4.6247,4.6269,4.6308,4.5361,4.4823,4.4767,4.3824,4.3322,4.3273,0.0,4.6909,4.7025,4.961,5.258,5.5675,0.0,5.5692,5.5084,0.0,5.0653,4.9989,0.0,0.0,0.0,4.8509,4.7299,0.0,0.0,0.0,0.0,0.0,0.0,0.0,0.0,0.0,0.0,0.0,0.0,0.0,0.0,0.0,0.0,4.1589,0.0,5.3967,5.3925,6.0092,6.5519,6.5538,6.5851,6.6148,6.6345,6.6543,6.6687,6.6687,6.6707,6.6712,6.6712,6.6712,6.6712,6.6712,6.6712,6.6712,6.6712,6.6576,6.6576,6.6692,6.6712,6.6712,6.6712,6.6712,6.6712,6.6712,6.6712,6.6712,6.6712,6.6712,6.6712,6.6712,6.6712,6.6712,6.6712,6.6712,6.6712,6.6712,6.6712,6.6712,6.6712,6.6712,6.6712,6.6712,6.6712,6.6712,6.6712,0.0,0.0,0.0,0.0,0.0,0.0,0.0,0.0,4.2305,0.0,0.0,0.0,4.1902,4.2928,4.3854,4.4481,4.454,4.491,4.579,4.5867,4.5968,4.6183,4.5661,4.5644,4.6289,4.4754,4.3954,4.3927,4.2988,4.2204,4.1573,4.2243,0.0,0.0,4.5872,4.7463,4.8106,5.3475,0.0,0.0,5.4331,5.1992,0.0,0.0,0.0,0.0,0.0,4.9336,4.8192,0.0,4.7271,4.3633,0.0,0.0,0.0,0.0,0.0,0.0,4.2508,0.0,0.0,0.0,0.0,0.0,0.0,0.0,4.8922,4.951,5.57,6.1178,6.1751,6.4027,6.5839,6.5878,6.6221,6.6477,6.6477,6.6618,6.6712,6.6712,6.6712,6.6712,6.6712,6.6712,6.6712,0.0,6.3828,6.3439,6.6537,6.6712,6.6712,6.6712,6.6712,6.6712,6.6712,6.6712,6.6712,6.6712,6.6712,6.6712,6.6712,6.6712,6.6712,6.6712,6.6712,6.6712,6.6712,6.6712,6.6712,6.6712,6.6712,6.6712,6.6712,6.6712,6.6712,6.6712,0.0,0.0,0.0,0.0,0.0,0.0,0.0,0.0,4.217,0.0,0.0,0.0,4.3275,4.3838,4.4481,4.5361,4.5108,4.5127,4.5615,4.5338,4.5168,4.5168,4.4704,4.4707,4.5195,4.3797,4.3033,4.3019,4.2105,4.1374,4.0868,4.0818,0.0,0.0,0.0,0.0,0.0,0.0,0.0,0.0,5.33,0.0,0.0,5.3981,5.3241,0.0,0.0,0.0,5.2318,5.426,5.1365,0.0,0.0,0.0,0.0,0.0,0.0,0.0,0.0,0.0,0.0,0.0,0.0,0.0,4.1028,4.5323,4.9441,0.0,5.6289,6.1387,6.0097,6.1554,6.2944,6.2944,6.3265,6.4172,6.6017,6.6448,6.6575,6.6575,6.6641,6.6712,6.6712,6.6712,6.6712,6.6712,6.4374,6.4062,6.6576,6.6712,6.6712,6.6712,6.6712,6.6712,6.6712,6.6712,6.6712,6.6712,6.6712,6.6712,6.6712,6.6712,6.6712,6.6712,6.6712,6.6712,6.6712,6.6712,6.6712,6.6712,6.6712,6.6712,6.6712,6.6712,6.6712,6.6712,0.0,0.0,0.0,0.0,0.0,0.0,0.0,0.0,0.0,0.0,4.215,4.2906,4.4704,4.4894,4.5205,4.5985,4.5264,4.4757,4.4757,4.409,4.3705,4.3705,4.361,4.3594,4.3691,4.2707,4.219,4.2217,4.1342,4.0873,4.0815,4.0706,0.0,0.0,0.0,0.0,0.0,0.0,0.0,5.3128,5.0728,5.3752,0.0,0.0,5.5799,5.5645,5.9435,5.8588,5.6165,5.9204,5.6222,0.0,0.0,0.0,0.0,0.0,4.4886,0.0,0.0,0.0,0.0,0.0,0.0,0.0,4.1574,4.6848,5.1732,0.0,5.8131,6.2314,5.9014,5.8402,5.8402,5.8402,5.8596,6.0302,6.4732,6.5941,6.6194,6.5751,6.6276,6.6677,6.6707,6.6712,6.6712,6.6712,6.6712,6.6712,6.6712,6.6712,6.6712,6.6712,6.6712,6.6712,6.6712,6.6712,6.6712,6.6712,6.6712,6.6712,6.6712,6.6712,6.6712,6.6712,6.6712,6.6712,6.6712,6.6712,6.6712,6.6712,6.6712,6.6712,6.6712,6.6712,6.6712,6.6712,0.0,0.0,0.0,0.0,0.0,0.0,0.0,0.0,0.0,4.2916,4.3758,4.4452,4.4851,4.4894,4.4972,4.5147,4.4364,4.3854,4.3854,4.3758,4.3705,4.3705,4.3024,4.2988,4.3672,4.2207,4.1693,4.227,4.1418,4.0949,4.0859,4.0109,0.0,0.0,0.0,0.0,0.0,0.0,0.0,4.5891,5.1189,0.0,5.3129,5.795,5.6415,5.2482,5.8588,5.8588,5.5799,0.0,5.5818,5.376,0.0,0.0,0.0,0.0,0.0,0.0,0.0,0.0,0.0,0.0,0.0,0.0,4.1896,4.2387,4.3899,0.0,4.9245,5.1119,5.3642,5.4096,5.4096,5.404,5.4058,5.5657,6.008,6.3843,6.4963,6.1713,6.4363,6.6523,6.6682,6.6712,6.6712,6.6712,6.6712,6.6712,6.6712,6.6712,6.6712,6.6712,6.6712,6.6712,6.6712,6.6712,6.6712,6.6712,6.6712,6.6712,6.6712,6.6712,6.6712,6.6712,6.6712,6.6712,6.6712,6.6712,6.6712,6.6712,6.6712,6.6712,6.6712,6.6712,6.6712,6.6712,0.0,0.0,0.0,0.0,0.0,0.0,0.0,0.0,0.0,4.3167,4.4181,4.4894,4.4894,0.0,0.0,0.0,0.0,0.0,0.0,0.0,4.2398,4.2398,4.2028,0.0,0.0,4.1621,4.1341,4.1644,4.1203,4.0719,4.0192,3.9724,0.0,0.0,0.0,0.0,0.0,0.0,3.8618,4.3004,4.8827,0.0,5.3699,5.8846,5.8684,5.6184,5.9569,5.9704,5.7973,5.6261,5.5703,0.0,0.0,4.9279,4.6635,0.0,4.4355,4.3701,0.0,0.0,0.0,4.4201,0.0,0.0,0.0,4.306,4.4245,4.6359,4.8422,4.9818,4.9803,4.9781,4.9739,4.9717,4.9717,5.047,5.267,5.8655,6.2887,6.3078,6.5052,6.647,6.6677,6.6712,6.6712,6.6712,6.6712,6.6712,6.6712,6.6712,6.6712,6.6712,6.6712,6.6712,6.6712,6.6712,6.6712,6.6712,6.6712,6.6712,6.6712,6.6712,6.6712,6.6712,6.6712,6.6712,6.6712,6.6712,6.6712,6.6712,6.6712,6.6712,6.6712,6.6712,6.6712,6.6712,4.1457,0.0,0.0,0.0,0.0,0.0,0.0,0.0,0.0,4.3447,4.4311,0.0,0.0,0.0,0.0,0.0,0.0,0.0,0.0,0.0,0.0,0.0,0.0,4.1191,0.0,4.1191,4.1065,4.0775,4.0766,4.0245,3.9265,3.9087,0.0,0.0,0.0,0.0,0.0,0.0,0.0,4.3655,0.0,5.1258,5.4701,5.9092,6.0258,5.9673,6.0492,6.08,6.0281,5.6838,5.5703,5.5703,5.578,5.1788,0.0,0.0,0.0,0.0,0.0,0.0,0.0,0.0,0.0,4.1123,0.0,0.0,0.0,4.5351,4.7884,0.0,0.0,0.0,0.0,0.0,0.0,0.0,0.0,5.2354,0.0,6.1979,6.3286,6.3986,6.4182,6.4968,6.5816,6.6634,6.6712,6.6712,6.6712,6.6712,6.6712,6.6712,6.6712,6.6712,6.6712,6.6712,6.6712,6.6712,6.6712,6.6712,6.6712,6.6712,6.6712,6.6712,6.6712,6.6712,6.6712,6.6712,6.6712,6.6712,6.6712,6.6712,6.6712,6.6712,6.6712,6.6712,4.1361,4.1418,0.0,0.0,0.0,0.0,0.0,0.0,0.0,0.0,0.0,0.0,0.0,0.0,0.0,0.0,0.0,0.0,4.2491,0.0,0.0,0.0,0.0,0.0,4.1191,4.1191,0.0,3.995,3.9872,3.9356,3.8413,3.7586,0.0,0.0,3.7328,0.0,0.0,0.0,4.4793,0.0,5.2453,5.1857,0.0,5.763,5.8338,5.5621,5.9423,6.08,6.0281,0.0,5.5703,5.5203,0.0,4.9837,4.7836,0.0,0.0,0.0,0.0,0.0,0.0,0.0,4.245,0.0,0.0,0.0,4.0154,4.0154,0.0,0.0,0.0,0.0,0.0,0.0,0.0,0.0,4.4067,4.6458,4.8247,4.8983,5.2498,5.497,5.5155,5.8725,6.2601,6.642,6.6712,6.6712,6.6712,6.6712,6.6712,6.6712,6.6712,6.6712,6.6712,6.6712,6.6712,6.6712,6.6712,6.6712,6.6712,6.6712,6.6712,6.6712,6.6712,6.6712,6.6712,6.6712,6.6712,6.6712,6.6712,6.6712,6.6712,6.6712,6.6712,6.6712,4.0777,4.0807,0.0,0.0,0.0,0.0,0.0,0.0,0.0,0.0,0.0,0.0,0.0,0.0,0.0,0.0,0.0,4.9079,0.0,0.0,0.0,0.0,0.0,0.0,0.0,0.0,0.0,0.0,3.8978,3.8465,3.7543,3.7093,0.0,0.0,3.7083,0.0,4.3292,0.0,4.5443,0.0,0.0,0.0,0.0,5.7602,5.9707,5.813,5.7881,5.9073,5.9973,0.0,5.5415,0.0,0.0,0.0,0.0,0.0,0.0,0.0,0.0,0.0,0.0,0.0,0.0,0.0,4.5355,0.0,3.9304,0.0,0.0,0.0,0.0,0.0,0.0,0.0,3.8649,0.0,0.0,0.0,4.4854,0.0,0.0,0.0,5.7145,5.6909,5.8373,6.2659,6.2991,6.2991,6.2991,6.5348,6.6712,6.6712,6.6712,6.6712,6.6712,6.6712,6.6712,6.6712,6.6712,6.6712,6.6712,6.6712,6.6712,6.6712,6.6712,6.6712,6.6712,6.6712,6.6712,6.6712,6.6712,6.6712,6.6712,6.6712,6.6712,6.6712,4.0455,0.0,0.0,0.0,0.0,0.0,4.2024,4.3777,4.4972,0.0,0.0,0.0,4.8651,4.7637,0.0,0.0,5.1865,5.1904,0.0,0.0,4.7639,0.0,0.0,0.0,0.0,0.0,0.0,0.0,3.8098,3.7598,3.6666,3.659,0.0,0.0,0.0,3.9274,4.3376,0.0,0.0,5.0608,5.208,5.2322,5.234,5.7342,5.9933,6.0572,5.7958,5.8639,5.9896,5.3998,5.5284,0.0,5.3595,0.0,0.0,0.0,0.0,0.0,4.9125,0.0,0.0,0.0,0.0,0.0,0.0,0.0,0.0,0.0,0.0,0.0,0.0,0.0,0.0,0.0,0.0,3.8757,0.0,3.9361,0.0,0.0,0.0,0.0,0.0,5.4907,5.5122,5.8314,5.9639,6.0302,6.0302,6.4374,6.6712,6.6712,6.6712,6.6712,6.6712,6.6712,6.6712,6.6712,6.6712,6.6712,6.6712,6.6712,6.6712,6.6712,6.6712,6.6712,6.6712,6.6712,6.6712,6.6712,6.6712,6.6712,6.6712,6.6712,6.6712,6.6712,4.0687,4.1313,0.0,0.0,0.0,0.0,4.2396,4.4497,4.6449,0.0,0.0,0.0,0.0,0.0,0.0,0.0,0.0,5.3463,5.2606,0.0,5.1228,0.0,0.0,4.2305,0.0,0.0,0.0,0.0,0.0,3.6754,3.5847,3.5772,0.0,0.0,0.0,3.9282,4.3576,4.7734,5.1931,5.6051,5.9387,6.0702,6.0248,0.0,5.734,6.088,6.0708,0.0,0.0,5.6575,5.5492,0.0,0.0,0.0,0.0,0.0,0.0,0.0,0.0,0.0,0.0,4.7981,0.0,0.0,0.0,0.0,3.7796,0.0,0.0,0.0,0.0,0.0,0.0,0.0,0.0,0.0,0.0,0.0,0.0,0.0,0.0,0.0,0.0,5.1287,5.3751,5.4078,5.7944,6.0302,6.0302,6.4374,6.6712,6.6712,6.6712,6.6712,6.6712,6.6712,6.6712,6.6712,6.6712,6.6712,6.6712,6.6712,6.6712,6.6712,6.6712,6.6712,6.6712,6.6712,6.6712,6.6712,6.6712,6.6712,6.6712,6.6712,6.6712,6.6712,0.0,0.0,0.0,0.0,0.0,4.1697,4.1526,4.2705,0.0,0.0,0.0,0.0,0.0,5.3623,5.3487,0.0,0.0,5.8139,5.6113,5.522,0.0,0.0,0.0,4.6484,0.0,0.0,0.0,0.0,0.0,0.0,3.5808,0.0,0.0,0.0,0.0,3.904,0.0,0.0,0.0,0.0,0.0,5.725,5.7793,0.0,5.9686,6.096,6.0903,6.088,0.0,5.6922,5.7277,5.8729,5.6404,5.5075,5.5314,6.0085,5.7086,0.0,0.0,0.0,5.6963,5.5577,0.0,0.0,0.0,0.0,0.0,0.0,0.0,0.0,0.0,0.0,0.0,0.0,0.0,0.0,0.0,0.0,0.0,0.0,0.0,0.0,0.0,0.0,4.5206,4.9348,5.0463,5.1222,5.1807,5.8587,6.2465,6.2465,6.5231,6.6712,6.6712,6.6712,6.6712,6.6712,6.6712,6.6712,6.6712,6.6712,6.6712,6.6712,6.6712,6.6712,6.6712,6.6712,6.6712,6.6712,6.6712,6.6712,6.6712,6.6712,6.6712,6.6712,4.1773,0.0,0.0,0.0,0.0,0.0,0.0,0.0,0.0,0.0,4.9547,0.0,5.5961,0.0,5.5704,0.0,5.8256,5.8927,5.9081,5.5736,0.0,5.8213,5.2516,0.0,0.0,0.0,0.0,0.0,0.0,3.6926,0.0,0.0,0.0,0.0,0.0,3.794,4.0678,0.0,5.0707,0.0,0.0,5.6263,0.0,0.0,5.993,6.1012,0.0,6.0927,6.062,5.8391,5.9102,6.0517,5.8259,5.7511,5.8235,6.2055,5.9688,5.6663,6.0559,6.1633,0.0,5.983,5.7409,0.0,5.3154,0.0,0.0,0.0,0.0,0.0,0.0,0.0,0.0,0.0,0.0,0.0,0.0,3.7156,0.0,0.0,0.0,0.0,0.0,0.0,4.1689,4.4552,4.565,4.6316,0.0,5.5295,6.0165,5.9854,6.4296,6.6712,6.6712,6.6712,6.6712,6.6712,6.6712,6.6712,6.6712,6.6712,6.6712,6.6712,6.6712,6.6712,6.6712,6.6712,6.6712,6.6712,6.6712,6.6712,6.6712,6.6712,6.6712,6.6712,0.0,0.0,0.0,0.0,4.1244,0.0,0.0,0.0,4.9761,0.0,5.4262,5.3755,5.6273,5.4461,5.3935,5.6176,5.4967,5.6118,6.0912,5.3699,0.0,0.0,5.3084,5.0527,5.5254,0.0,0.0,0.0,0.0,0.0,0.0,0.0,0.0,0.0,3.5708,0.0,3.745,4.5208,4.909,5.0344,5.4163,5.7753,6.0499,5.7192,5.8101,6.108,6.0962,6.0901,6.091,6.0839,6.0804,6.0816,6.088,6.0823,6.1048,6.2776,6.3301,6.3641,6.5175,6.5684,6.4814,6.0724,5.9559,0.0,0.0,0.0,5.1731,0.0,0.0,0.0,0.0,0.0,0.0,0.0,0.0,0.0,0.0,0.0,0.0,0.0,0.0,0.0,0.0,4.2215,4.285,3.9945,4.3468,4.5517,0.0,5.4266,5.9445,5.9074,6.3614,6.6264,6.6712,6.6498,6.6498,6.6712,6.6712,6.6712,6.6712,6.6712,6.6712,6.6712,6.6712,6.6712,6.6712,6.6712,6.6712,6.6712,6.6712,6.6712,6.6712,6.6712,6.6712,6.6712,4.1773,4.1107,4.1107,0.0,4.3195,4.5183,0.0,0.0,0.0,0.0,5.471,5.5981,5.7247,5.8523,5.8012,5.4846,5.5942,0.0,0.0,0.0,0.0,6.1514,5.9374,5.7519,5.6289,5.3887,0.0,4.9863,0.0,0.0,4.2203,0.0,0.0,0.0,0.0,0.0,3.6653,4.4962,5.0792,5.4202,5.2136,5.3715,0.0,0.0,5.7598,6.1089,6.107,6.1061,6.1051,6.1031,6.1021,6.1011,6.0939,6.0877,6.1139,6.2702,6.3214,6.3629,6.512,6.5616,6.5461,6.4411,6.1767,5.906,0.0,0.0,0.0,0.0,0.0,0.0,0.0,0.0,0.0,0.0,0.0,0.0,0.0,0.0,0.0,3.5813,0.0,0.0,0.0,3.774,3.8156,3.8653,3.9201,4.1371,4.5647,0.0,5.2949,5.9756,5.8159,6.0243,6.6634,6.3536,6.3536,6.6712,6.6712,6.6712,6.6712,6.6712,6.6712,6.6712,6.6712,6.6712,6.6712,6.6712,6.6712,6.6712,6.6712,6.6712,6.6712,6.6712,6.6712,6.6712,4.1773,0.0,0.0,4.1107,0.0,0.0,4.842,5.0385,0.0,5.6639,5.7084,0.0,5.9771,6.0974,6.0467,5.7557,5.6907,0.0,5.7283,0.0,0.0,6.1501,6.0625,5.8965,5.664,5.6113,0.0,5.3008,0.0,0.0,4.4965,0.0,0.0,0.0,0.0,3.6006,0.0,4.5452,5.1784,5.5881,5.3487,5.4855,0.0,5.6156,5.7804,6.1184,6.1571,6.1446,6.1157,6.1543,6.1679,6.1727,6.2036,6.2081,6.2257,6.3486,6.3902,6.4196,6.5325,6.5684,6.5756,6.5736,6.3898,6.2074,6.21,6.0359,5.8569,0.0,0.0,0.0,0.0,0.0,0.0,0.0,0.0,0.0,0.0,0.0,0.0,0.0,3.7462,0.0,3.6309,3.5878,3.6278,3.7662,3.7425,3.8524,0.0,0.0,5.0392,5.3467,5.5606,5.812,6.1081,5.8704,5.9659,6.3906,6.3906,6.488,6.6712,6.6712,6.6712,6.6712,6.6712,6.6712,6.6712,6.6712,6.6712,6.6712,6.6712,6.6712,6.6712,6.6712,6.6712,6.6712,0.0,0.0,0.0,0.0,0.0,0.0,0.0,5.3015,0.0,6.1645,0.0,5.9518,6.2265,6.2254,6.19,6.1566,0.0,5.7482,6.1281,5.5815,5.5252,6.1582,5.9648,5.8047,5.7285,5.7265,0.0,0.0,0.0,0.0,0.0,0.0,0.0,0.0,0.0,0.0,0.0,4.618,5.1884,5.6192,5.6209,5.7978,6.0375,5.7951,5.8831,6.149,6.2361,6.2074,6.1408,6.2278,6.2569,6.2704,6.3468,6.3611,6.3681,6.4547,6.4809,6.4971,6.5608,6.5814,6.5801,6.5711,6.5603,6.5537,6.558,6.5688,6.578,6.5767,6.5237,6.3846,0.0,0.0,0.0,0.0,0.0,0.0,0.0,0.0,0.0,0.0,0.0,0.0,0.0,0.0,3.6021,3.6853,3.6982,0.0,0.0,0.0,4.9157,4.6004,5.4067,5.7262,5.4768,5.4184,5.6347,6.112,6.0575,6.2542,6.6712,6.6712,6.6712,6.6712,6.6712,6.6712,6.6712,6.6712,6.6712,6.6712,6.6712,6.6712,6.6712,6.6712,6.6712,6.6712,0.0,0.0,0.0,0.0,0.0,4.9864,5.4823,5.8158,6.0029,5.9797,6.1069,6.1715,6.092,6.2635,6.2975,6.0827,5.9937,0.0,0.0,0.0,0.0,6.2637,6.166,6.0957,6.0801,6.0801,6.0801,0.0,0.0,0.0,0.0,0.0,0.0,0.0,0.0,0.0,4.7493,4.6227,0.0,5.6202,5.6204,5.6565,5.7408,6.0289,6.1754,6.2385,6.3266,6.2972,6.2317,6.3168,6.3468,6.3507,6.3661,6.3681,6.3805,6.4569,6.4883,6.5088,6.5652,6.5876,6.5912,6.5737,6.5671,6.5649,6.5537,6.5566,6.5627,6.5571,6.5572,6.5403,6.4808,0.0,0.0,0.0,0.0,0.0,0.0,0.0,0.0,0.0,0.0,0.0,0.0,0.0,0.0,0.0,0.0,0.0,0.0,0.0,4.338,0.0,4.9566,5.2041,0.0,0.0,5.7827,6.5543,6.1997,6.2542,6.6712,6.6712,6.6712,6.6712,6.6712,6.6712,6.6712,6.6712,6.6712,6.6712,6.6712,6.6712,6.6712,6.6712,6.6712,6.6712,0.0,0.0,0.0,0.0,0.0,0.0,0.0,5.995,6.2721,6.1863,6.2846,6.3495,6.3146,6.3822,6.3786,6.2537,6.1601,6.1465,6.2363,6.1211,6.1445,6.3574,6.2832,0.0,5.9765,6.1015,6.082,5.9043,0.0,0.0,0.0,0.0,0.0,0.0,0.0,4.3364,0.0,0.0,0.0,5.64,5.818,5.917,5.9796,6.1826,6.2859,6.3347,6.42,6.4216,6.3863,6.4251,6.4377,6.4454,6.487,6.5006,6.5073,6.5427,6.5564,6.5682,6.5931,6.5994,6.599,6.5876,6.5801,6.5737,6.5671,6.5644,6.563,6.5622,6.5701,6.5134,6.2931,5.8873,0.0,0.0,0.0,0.0,0.0,0.0,0.0,0.0,0.0,0.0,0.0,0.0,0.0,0.0,0.0,0.0,0.0,0.0,4.301,0.0,0.0,0.0,5.6931,0.0,5.7087,6.3361,6.1295,6.2542,6.6712,6.6712,6.6712,6.6712,6.6712,6.6712,6.6712,6.6712,6.6712,6.6712,6.6712,6.6712,6.6712,6.6712,6.6712,6.6712,0.0,4.5764,0.0,0.0,5.0795,0.0,5.6814,6.0937,6.3924,6.4434,6.454,6.4915,6.5774,6.5253,6.4551,6.3808,6.3164,6.2754,6.2676,6.2578,6.2812,6.3437,6.3359,6.2012,5.9316,6.1035,6.0664,0.0,0.0,0.0,0.0,0.0,0.0,0.0,0.0,0.0,0.0,0.0,5.6835,5.7904,6.0584,6.2196,6.2993,6.3168,6.3611,6.4279,6.5161,6.5419,6.5377,6.5322,6.5296,6.5412,6.6031,6.6225,6.6225,6.6205,6.6205,6.6205,6.6205,6.6123,6.6036,6.6013,6.5912,6.5839,6.5814,6.5737,6.569,6.569,6.5728,6.4756,6.1457,6.0115,0.0,0.0,0.0,0.0,0.0,0.0,0.0,0.0,0.0,0.0,0.0,0.0,0.0,0.0,0.0,0.0,3.753,0.0,0.0,0.0,0.0,5.1826,5.3619,0.0,5.6507,6.1646,6.073,6.2542,6.6712,6.6712,6.6712,6.6712,6.6712,6.6712,6.6712,6.6712,6.6712,6.6712,6.6712,6.6712,6.6712,6.6712,6.6712,6.6712,0.0,0.0,0.0,0.0,0.0,0.0,6.2597,6.2598,6.2793,6.5156,6.5468,6.5801,6.6679,6.6719,6.5371,6.2226,6.4687,6.3828,5.7715,6.2285,6.3906,6.0898,6.2969,6.4023,6.3711,6.3164,6.2715,0.0,0.0,5.345,0.0,0.0,0.0,0.0,0.0,0.0,0.0,5.5981,5.8545,6.2138,6.2449,6.3109,6.3964,6.4702,6.5005,6.52,6.6074,6.6341,6.6281,6.6273,6.6267,6.6262,6.6293,6.6303,6.6293,6.6225,6.6205,6.6205,6.6205,6.6194,6.6144,6.6036,6.6001,6.5936,6.5826,6.5697,6.5608,6.5608,6.5608,6.554,6.5275,6.2079,5.8127,0.0,0.0,0.0,0.0,0.0,0.0,0.0,0.0,0.0,0.0,3.8923,0.0,0.0,3.5669,0.0,0.0,0.0,0.0,4.4727,4.5364,4.7905,5.2684,5.3518,5.8016,6.605,6.2153,6.2542,6.6712,6.6712,6.6712,6.6712,6.6712,6.6712,6.6712,6.6712,6.6712,6.6712,6.6712,6.6712,6.6712,6.6712,6.6712,6.6712,0.0,0.0,0.0,0.0,0.0,0.0,0.0,6.4258,6.5195,6.623,6.6387,6.6504,6.6855,6.6894,6.6348,6.4941,6.6094,6.5723,6.2969,6.5039,6.5762,6.4355,6.4805,6.5078,6.5078,6.4238,6.3789,0.0,0.0,0.0,0.0,0.0,0.0,0.0,0.0,5.5462,5.725,5.9827,6.1905,6.3478,6.3387,6.3887,6.4702,6.4933,6.5333,6.5836,6.6194,6.6292,6.6283,6.6327,6.6375,6.6396,6.6378,6.6349,6.6349,6.6331,6.6283,6.6264,6.6312,6.6254,6.6205,6.6175,6.6144,6.6091,6.5947,6.5814,6.5703,6.5622,6.5594,6.5641,6.578,6.4443,6.1954,0.0,0.0,0.0,0.0,0.0,0.0,0.0,0.0,0.0,0.0,4.5278,4.0589,4.0147,0.0,0.0,0.0,0.0,0.0,4.8619,0.0,5.3293,6.1046,5.887,6.0753,6.6673,6.4963,6.5036,6.6712,6.6712,6.6712,6.6712,6.6712,6.6712,6.6712,6.6712,6.6712,6.6712,6.6712,6.6712,6.6712,6.6712,6.6712,6.6712,6.1308,0.0,5.7988,0.0,6.1348,6.2383,6.2598,6.5058,6.6523,6.5508,6.6269,6.6894,6.6894,6.6894,6.6484,6.5469,6.6308,6.6035,6.4004,6.5762,6.6445,6.543,6.5762,0.0,6.5976,6.5137,6.4687,6.4687,5.8901,0.0,0.0,0.0,0.0,0.0,5.7663,5.9484,5.9671,6.2679,6.4082,6.4307,6.4177,6.4646,6.5411,6.5316,6.5663,6.6205,6.6205,6.6205,6.6245,6.6281,6.6364,6.6439,6.6403,6.6403,6.6394,6.6405,6.6349,6.6312,6.6349,6.6254,6.6144,6.6205,6.6144,6.6069,6.5959,6.5839,6.5711,6.5594,6.5627,6.5688,6.578,6.5859,6.4493,6.0204,0.0,0.0,0.0,0.0,0.0,0.0,5.3318,5.2029,5.5703,4.8721,4.3816,0.0,0.0,0.0,0.0,0.0,0.0,0.0,0.0,0.0,6.2524,5.9833,6.1205,6.6697,6.6698,6.6712,6.6712,6.6712,6.6712,6.6712,6.6712,6.6712,6.6712,6.6712,6.6712,6.6712,6.6712,6.6712,6.6712,6.6712,6.6712,6.6712,6.4258,6.4902,6.5469,6.5508,6.623,6.5664,6.2246,6.4668,6.5664,6.2207,6.4765,6.6894,6.6894,6.6894,6.5508,6.2051,6.4902,6.4004,5.7168,6.3105,6.5351,0.0,0.0,6.6875,6.6875,6.6035,6.5586,6.5584,0.0,0.0,5.7732,0.0,5.7915,5.8855,6.2352,6.3925,6.3925,6.3832,6.4302,6.5069,6.4948,6.5412,6.6185,6.6185,6.6185,6.6205,6.6205,6.6235,6.6299,6.6308,6.6378,6.6501,6.6414,6.6398,6.6398,6.6394,6.6349,6.6303,6.6303,6.6144,6.6013,6.6013,6.59,6.5801,6.5801,6.5697,6.558,6.5509,6.566,6.5793,6.5793,6.5859,6.4493,6.0204,0.0,0.0,0.0,0.0,0.0,0.0,4.7509,4.6086,5.0385,4.6144,0.0,0.0,0.0,0.0,0.0,0.0,0.0,4.4907,4.1755,0.0,5.2691,5.3579,5.8266,6.6692,6.6712,6.6712,6.6712,6.6712,6.6712,6.6712,6.6712,6.6712,6.6712,6.6712,6.6712,6.6712,6.6712,6.6712,6.6712,6.6712,6.6712,6.6712,6.1055,6.3887,6.5918,6.414,6.5527,6.6523,6.541,6.6191,6.6504,6.539,6.6211,6.6894,6.6894,6.6894,6.6445,0.0,6.4082,6.3437,0.0,6.3457,6.3926,6.5195,6.4023,6.3359,6.3359,6.3086,6.2949,6.2949,0.0,0.0,0.0,5.8505,5.9808,6.2361,6.4063,6.4729,6.4656,6.5254,6.5643,6.5838,6.5707,6.5807,6.6058,6.6017,6.6001,6.6001,6.6001,6.6017,6.6024,6.6082,6.6125,6.6166,6.6245,6.6311,6.6316,6.6327,6.6254,6.6165,6.6225,6.6112,6.6013,6.6058,6.5959,6.5851,6.575,6.5635,6.5537,6.5566,6.5688,6.5793,6.5793,6.5859,6.4493,6.0204,6.1954,0.0,0.0,0.0,0.0,0.0,5.3106,5.2049,5.628,5.2087,0.0,0.0,0.0,0.0,0.0,0.0,0.0,0.0,5.4118,0.0,6.2232,5.9609,6.1132,6.6763,6.6727,6.6712,6.6712,6.6712,6.6712,6.6712,6.6712,6.6712,6.6712,6.6712,6.6712,6.6712,6.6712,6.6712,6.6712,6.6712,6.6712,6.6785,6.2305,6.4687,6.6387,6.4746,6.582,6.6465,6.5156,6.6055,6.6426,6.5117,6.6094,6.6894,6.6894,6.6894,0.0,6.6894,6.4902,6.457,6.6758,6.4863,6.4629,6.6816,6.4805,6.3652,6.3652,6.3652,0.0,6.3652,6.3084,6.2486,6.188,6.1721,6.2767,6.4788,6.5322,6.5507,6.5431,6.5964,6.6166,6.6112,6.6009,6.5962,6.595,6.5916,6.5897,6.5897,6.5897,6.5916,6.5946,6.5978,6.6036,6.6091,6.6165,6.6186,6.6196,6.6254,6.6186,6.6102,6.6144,6.6058,6.5924,6.5971,6.5888,6.5763,6.5671,6.5641,6.5613,6.5674,6.5761,6.5833,6.5833,6.5872,6.5013,6.2339,6.4147,6.4955,6.2281,0.0,0.0,0.0,0.0,0.0,0.0,5.6184,5.4222,0.0,0.0,0.0,0.0,0.0,0.0,5.6432,5.7506,6.0059,6.4347,6.1664,6.2465,6.6752,6.6712,6.6712,6.6712,6.6712,6.6712,6.6712,6.6712,6.6712,6.6712,6.6712,6.6712,6.6712,6.6712,6.6712,6.6712,6.6712,6.6712,6.6824,6.6406,6.664,6.6836,0.0,6.6777,6.5801,6.2558,6.4824,6.5742,6.248,6.4883,6.6894,6.6894,6.6894,6.6894,6.6894,0.0,0.0,6.6875,6.668,6.664,6.6894,6.668,6.6543,6.6543,6.6543,6.666,6.6894,6.6823,6.6675,6.6507,6.6426,6.6301,6.6194,6.6205,6.6194,6.6174,6.6058,6.6001,6.5978,6.5928,6.5897,6.5897,6.5897,6.5897,6.5897,6.5897,6.5933,6.599,6.599,6.6069,6.6184,6.6184,6.6091,6.6013,6.6144,6.6134,6.608,6.608,6.5955,6.5801,6.5801,6.5717,6.5608,6.5608,6.5701,6.5793,6.5826,6.5859,6.5897,6.5897,6.5897,6.5897,6.5897,6.5897,6.5801,6.5493,0.0,0.0,0.0,0.0,0.0,5.8011,5.8646,5.8992,0.0,0.0,0.0,0.0,0.0,4.8054,5.3239,5.4362,5.6814,6.0801,6.0779,6.275,6.6707,6.6702,6.6712,6.6712,6.6712,6.6712,6.6712,6.6712,6.6712,6.6712,6.6712,6.6712,6.6712,6.6712,6.6692,6.6692,6.6692,6.6731,6.6912,0.0,0.0,6.6269,6.4277,6.5566,6.6621,6.5801,6.6367,6.6601,6.5781,6.6387,6.6894,6.6894,6.6894,6.6894,6.6894,6.4473,6.4062,6.6738,6.4414,6.4121,6.6777,6.4355,6.293,6.293,6.293,6.4238,6.6893,6.6678,6.6556,6.6499,6.6337,6.6186,6.6058,6.6144,6.611,6.5977,6.5978,6.5974,6.5928,6.591,6.5897,6.5897,6.5897,6.5897,6.5897,6.5897,6.5903,6.5928,6.5928,6.5953,6.5977,6.5977,6.5953,6.5933,6.6013,6.5998,6.5953,6.5953,6.5916,6.5878,6.5878,6.5814,6.5747,6.5747,6.578,6.5807,6.5859,6.5885,6.5897,6.5897,6.5897,6.5897,6.5897,6.5897,6.4762,6.1473,6.0146,0.0,0.0,5.6357,5.8107,5.9127,6.2185,6.257,0.0,0.0,5.7566,5.8644,5.6636,5.7892,6.3215,6.3645,6.4258,6.5267,6.528,6.5749,6.6698,6.6692,6.6712,6.6712,6.6712,6.6712,6.6712,6.6712,6.6712,6.6712,6.6712,6.6712,6.6712,6.6712,6.6702,6.6702,6.6702,6.7144,6.7883,6.2988,6.498,6.6445,6.5039,6.5957,6.6894,6.6894,6.6894,6.6894,6.6894,6.6894,6.6894,6.6894,6.6894,6.6894,6.6894,6.5176,6.4883,6.6777,6.5137,6.4922,6.6816,6.5097,6.4081,6.4079,6.4079,6.4953,6.677,6.6517,6.6379,6.631,6.6167,6.6047,6.597,6.604,6.5993,6.591,6.5933,6.5921,6.5897,6.5897,6.5897,6.5897,6.5897,6.5897,6.5897,6.5897,6.5897,6.5897,6.5897,6.5897,6.5897,6.5897,6.5897,6.591,6.5946,6.594,6.5897,6.5897,6.5897,6.5897,6.5897,6.5872,6.5846,6.5846,6.5846,6.5859,6.5897,6.5897,6.5897,6.5897,6.5897,6.5897,6.5897,6.4243,6.2166,5.9838,5.7838,5.6492,5.6126,5.8107,6.0262,6.2243,6.4532,6.4743,6.1973,5.9954,0.0,6.1758,6.0274,6.1567,6.641,6.6727,6.6795,6.6795,6.6805,6.6759,6.6712,6.6712,6.6712,6.6712,6.6712,6.6712,6.6712,6.6712,6.6712,6.6712,6.6712,6.6712,6.6692,6.6702,6.6697,6.675,6.7173,6.7653,6.8269,6.6894,6.6894,6.6894,6.6894,6.6894,6.6894,6.6894,6.6894,6.6894,6.6894,6.6894,6.6894,6.6894,6.6894,6.6894,6.6892,6.6893,6.6894,6.6894,6.6894,6.6894,6.6891,6.6891,6.6908,6.6904,6.6878,6.6756,6.6564,6.6358,6.6202,6.609,6.6011,6.5938,6.5897,6.5897,6.5897,6.5897,6.5897,6.5897,6.5897,6.5897,6.5897,6.5897,6.5897,6.5897,6.5897,6.5897,6.5897,6.5897,6.5897,6.5897,6.5897,6.5897,6.5897,6.5897,6.5897,6.5897,6.5897,6.5897,6.5897,6.5897,6.5897,6.5897,6.5897,6.5897,6.5897,6.5897,6.5897,6.5897,6.5897,6.5897,6.5897,6.5686,6.5032,6.1877,5.9281,5.8646,0.0,5.5491,5.9069,6.0069,6.1897,6.5551,6.5897,6.5897,6.5897,6.2512,6.2105,6.5872,6.2807,6.2565,6.6198,6.6622,6.6795,6.6809,6.6801,6.6759,6.6712,6.6712,6.6712,6.6712,6.6712,6.6712,6.6712,6.6712,6.6712,6.6712,6.6712,6.6712,6.6692,6.6702,6.6789,6.7012,6.7817,6.8273,6.8706,6.6894,6.6894,6.6894,6.6894,6.6894,6.6894,6.6894,6.6894,6.6894,6.6894,6.6894,6.6894,6.6894,6.6894,6.6892,6.6892,6.6908,6.6906,6.6906,6.689,6.6891,6.6905,6.6905,6.6904,6.6904,6.6731,6.6575,6.6432,6.6234,6.6119,6.6099,6.5967,6.5903,6.5897,6.5897,6.5897,6.5897,6.5897,6.5897,6.5897,6.5897,6.5897,6.5897,6.5897,6.5897,6.5897,6.5897,6.5897,6.5897,6.5897,6.5897,6.5897,6.5897,6.5897,6.5897,6.5897,6.5897,6.5897,6.5897,6.5897,6.5897,6.5897,6.5897,6.5897,6.5897,6.5897,6.5897,6.5897,6.5897,6.5897,6.5897,6.5897,6.4705,6.1089,5.9935,5.8242,5.4684,0.0,5.8781,5.9415,6.2704,6.5166,6.584,6.5897,6.5897,6.5897,6.5282,6.5211,6.5883,6.5436,6.5497,6.6287,6.6622,6.6804,6.6794,6.6806,6.6759,6.6712,6.6712,6.6712,6.6712,6.6712,6.6712,6.6712,6.6712,6.6712,6.6712,6.6712,6.6712,6.6692,6.6702,6.7173,6.7895,6.805,6.9023,7.032,6.6894,6.6894,6.6894,6.6894,6.6894,6.6894,6.6894,6.6894,6.6894,6.6894,6.6894,6.6894,6.6853,6.6872,6.6889,6.6859,6.6881,6.688,6.6852,6.6883,6.6885,6.6857,6.6857,6.6805,6.6746,6.6482,6.6307,6.6239,6.6077,6.5986,6.6001,6.594,6.5897,6.5897,6.5897,6.5897,6.5897,6.5897,6.5897,6.5897,6.5897,6.5897,6.5897,6.5897,6.5897,6.5897,6.5897,6.5897,6.5897,6.5897,6.5897,6.5897,6.5897,6.5897,6.5897,6.5897,6.5897,6.5897,6.5897,6.5897,6.5897,6.5897,6.5897,6.5897,6.5897,6.5897,6.5897,6.5897,6.5897,6.5897,6.5897,6.5897,6.5243,6.3262,6.1012,0.0,5.6876,5.828,5.9492,5.9492,6.3281,6.5897,6.5897,6.5897,6.5897,6.5897,6.5897,6.5897,6.5897,6.6019,6.6167,6.6307,6.6622,6.6807,6.6801,6.6806,6.6767,6.6693,6.6698,6.6712,6.6712,6.6712,6.6712,6.6712,6.6712,6.6712,6.6692,6.6707,6.6693,6.6756,6.7259,6.7727,6.8206,6.914,7.001,7.0777,6.6894,6.6894,6.6894,6.6894,6.6894,6.6894,6.6894,6.6894,6.6894,6.6894,6.6894,6.6853,6.6806,6.6846,6.6862,6.6798,6.6822,6.6817,6.6756,6.6762,6.6768,6.6751,6.6717,6.6627,6.649,6.623,6.6077,6.6044,6.5938,6.5897,6.5897,6.5897,6.5897,6.5897,6.5897,6.5897,6.5897,6.5897,6.5897,6.5897,6.5897,6.5897,6.5897,6.5897,6.5897,6.5897,6.5897,6.5897,6.5897,6.5897,6.5897,6.5897,6.5897,6.5897,6.5897,6.5897,6.5897,6.5897,6.5897,6.5897,6.5897,6.5897,6.5897,6.5897,6.5897,6.5897,6.5897,6.5897,6.5897,6.5897,6.5897,6.5897,6.557,6.457,0.0,5.9492,5.9492,5.9492,5.9877,6.0877,6.3897,6.5897,6.5897,6.5897,6.5897,6.5897,6.5897,6.5897,6.5897,6.6013,6.6129,6.6287,6.6622,6.6809,6.6792,6.6798,6.676,6.672,6.6717,6.6727,6.6727,6.6727,6.6727,6.6727,6.6727,6.6727,6.6712,6.6711,6.6837,6.7095,6.7812,6.8353,6.886,7.0205,7.0836,7.1109,6.6894,6.6894,6.6894,6.6894,6.6894,6.6894,6.6894,6.6894,6.6894,6.6894,6.6852,6.6806,6.6806,6.6793,6.682,6.6798,6.6697,6.6629,6.6625,6.6445,6.6432,6.6605,6.6439,6.6275,6.6138,6.6099,6.6041,6.5916,6.5891,6.5897,6.5897,6.5897,6.5897,6.5897,6.5897,6.5897,6.5897,6.5897,6.5897,6.5897,6.5897,6.5897,6.5897,6.5897,6.5897,6.5897,6.5897,6.5897,6.5897,6.5897,6.5897,6.5897,6.5897,6.5897,6.5897,6.5897,6.5897,6.5897,6.5897,6.5897,6.5897,6.5897,6.5897,6.5897,6.5897,6.5897,6.5897,6.5897,6.5897,6.5897,6.5897,6.5897,6.4589,6.0627,0.0,0.0,5.9492,5.9492,6.0973,6.4955,6.5705,6.5897,6.5897,6.5897,6.5897,6.5897,6.5897,6.5897,6.5897,6.5903,6.603,6.6279,6.6622,6.6809,6.6792,6.6792,6.6801,6.6779,6.6799,6.6799,6.6799,6.6799,6.6799,6.6799,6.6799,6.6799,6.6799,6.6779,6.7271,6.7996,6.8073,6.9094,7.0519,7.0654,7.1206,7.1909,6.6894,6.6894,6.6894,6.6894,6.6894,6.6894,6.6894,6.6854,6.6832,6.6832,6.6821,6.6805,6.6807,6.6804,6.6743,6.6615,6.6604,6.6546,6.6419,6.627,6.6245,6.6413,6.6262,6.6148,6.6108,6.6027,6.5938,6.5897,6.5897,6.5897,6.5897,6.5897,6.5897,6.5897,6.5897,6.5897,6.5897,6.5897,6.5897,6.5897,6.5897,6.5897,6.5897,6.5897,6.5897,6.5897,6.5897,6.5897,6.5897,6.5897,6.5897,6.5897,6.5897,6.5897,6.5897,6.5897,6.5897,6.5897,6.5897,6.5897,6.5897,6.5897,6.5897,6.5897,6.5897,6.5897,6.5897,6.5897,6.5897,6.5897,6.5897,6.5897,6.5359,6.3724,0.0,6.3474,6.3474,6.3474,6.407,6.5705,6.5897,6.5897,6.5897,6.5897,6.5897,6.5897,6.5897,6.5897,6.5897,6.5978,6.6099,6.6287,6.6535,6.6713,6.6807,6.6798,6.6808,6.6801,6.681,6.6803,6.6803,6.6803,6.6803,6.6803,6.6803,6.6803,6.6842,6.738,6.7796,6.8209,6.9299,7.0124,7.0769,7.1301,7.1714,7.2007,6.6894,6.6894,6.6894,6.6894,6.6894,6.6894,6.6874,6.683,6.6803,6.6799,6.68,6.6792,6.6806,6.6732,6.6654,6.6516,6.6464,6.6388,6.6254,6.6109,6.6067,6.6176,6.6088,6.6041,6.6041,6.5958,6.5897,6.5897,6.5897,6.5897,6.5897,6.5897,6.5897,6.5897,6.5897,6.5897,6.5897,6.5897,6.5897,6.5897,6.5897,6.5897,6.5897,6.5897,6.5897,6.5897,6.5897,6.5897,6.5897,6.5897,6.5897,6.5897,6.5897,6.5897,6.5897,6.5897,6.5897,6.5897,6.5897,6.5897,6.5897,6.5897,6.5897,6.5897,6.5897,6.5897,6.5897,6.5897,6.5897,6.5897,6.5897,6.5897,6.5897,6.5897,6.5897,6.5897,6.5897,6.5897,6.5897,6.5897,6.5897,6.5897,6.5897,6.5897,6.5897,6.5897,6.5897,6.5897,6.5897,6.6019,6.6138,6.6226,6.6471,6.6648,6.6746,6.6775,6.6801,6.6801,6.6808,6.6801,6.6801,6.6801,6.6801,6.6801,6.6801,6.6957,6.725,6.7849,6.8418,6.9045,7.0225,7.0875,7.1187,7.1772,7.2007,7.2007,6.6894,6.6894,6.6894,6.6894,6.6894,6.6874,6.6807,6.6805,6.68,6.68,6.6808,6.6803,6.6803,6.6618,6.6504,6.6504,6.6239,6.6108,6.6108,6.5967,6.5897,6.5897,6.5897,6.5897,6.5897,6.5897,6.5897,6.5897,6.5897,6.5897,6.5897,6.5897,6.5897,6.5897,6.5897,6.5897,6.5897,6.5897,6.5897,6.5897,6.5897,6.5897,6.5897,6.5897,6.5897,6.5897,6.5897,6.5897,6.5897,6.5897,6.5897,6.5897,6.5897,6.5897,6.5897,6.5897,6.5897,6.5897,6.5897,6.5897,6.5897,6.5897,6.5897,6.5897,6.5897,6.5897,6.5897,6.5897,6.5897,6.5897,6.5897,6.5897,6.5897,6.5897,6.5897,6.5897,6.5897,6.5897,6.5897,6.5897,6.5897,6.5897,6.5897,6.5897,6.5897,6.5897,6.5897,6.5897,6.5897,6.6019,6.6108,6.6108,6.6418,6.659,6.659,6.6723,6.6795,6.6795,6.6795,6.6795,6.6795,6.6795,6.6795,6.6795,6.6815,6.7303,6.8103,6.8103,6.9137,7.0699,7.0718,7.1245,7.2007,7.2007,7.2007,7.2007,6.6894,6.6894,6.6894,6.6894,6.6854,6.6829,6.6806,6.6802,6.6792,6.6801,6.6763,6.6692,6.6593,6.649,6.6361,6.6167,6.6076,6.6016,6.5962,6.5928,6.5897,6.5897,6.5897,6.5897,6.5897,6.5897,6.5897,6.5897,6.5897,6.5897,6.5897,6.5897,6.5897,6.5897,6.5897,6.5897,6.5897,6.5897,6.5897,6.5897,6.5897,6.5897,6.5897,6.5897,6.5897,6.5897,6.5897,6.5897,6.5897,6.5897,6.5897,6.5897,6.5897,6.5897,6.5897,6.5897,6.5897,6.5897,6.5897,6.5897,6.5897,6.5897,6.5897,6.5897,6.5897,6.5897,6.5897,6.5897,6.5897,6.5897,6.5897,6.5897,6.5897,6.5897,6.5897,6.5897,6.5897,6.5897,6.5897,6.5897,6.5897,6.5897,6.5897,6.5897,6.5897,6.5897,6.5897,6.5897,6.5897,6.5933,6.5994,6.6098,6.6295,6.6465,6.659,6.6723,6.6795,6.6795,6.6795,6.6795,6.6795,6.6795,6.6795,6.6834,6.7459,6.7869,6.8181,6.943,7.023,7.0757,7.1363,7.1772,7.2007,7.2007,7.2007,7.2007,6.6894,6.6894,6.6894,6.6873,6.683,6.6802,6.6805,6.6792,6.6763,6.6668,6.6605,6.6517,6.6364,6.626,6.6147,6.5963,6.5931,6.589,6.5859,6.5885,6.5897,6.5897,6.5897,6.5897,6.5897,6.5897,6.5897,6.5897,6.5897,6.5897,6.5897,6.5897,6.5897,6.5897,6.5897,6.5897,6.5897,6.5897,6.5897,6.5897,6.5897,6.5897,6.5897,6.5897,6.5897,6.5897,6.5897,6.5897,6.5897,6.5897,6.5897,6.5897,6.5897,6.5897,6.5897,6.5897,6.5897,6.5897,6.5897,6.5897,6.5897,6.5897,6.5897,6.5897,6.5897,6.5897,6.5897,6.5897,6.5897,6.5897,6.5897,6.5897,6.5897,6.5897,6.5897,6.5897,6.5897,6.5897,6.5897,6.5897,6.5897,6.5897,6.5897,6.5897,6.5897,6.5897,6.5897,6.5897,6.5897,6.5897,6.5933,6.6027,6.6202,6.6358,6.6483,6.6689,6.6795,6.6795,6.6795,6.6795,6.6795,6.6795,6.6795,6.6854,6.7712,6.8298,6.8727,7.0113,7.0894,7.1265,7.1792,7.2007,7.2007,7.2007,7.2007,7.2007,6.6894,6.6894,6.6874,6.6807,6.6803,6.6809,6.6794,6.6775,6.6678,6.6441,6.6377,6.6303,6.6108,6.5966,6.59,6.5876,6.5821,6.5793,6.5807,6.5859,6.5897,6.5897,6.5897,6.5897,6.5897,6.5897,6.5897,6.5897,6.5897,6.5897,6.5897,6.5897,6.5897,6.5897,6.5897,6.5897,6.5897,6.5897,6.5897,6.5897,6.5897,6.5897,6.5897,6.5897,6.5897,6.5897,6.5897,6.5897,6.5897,6.5897,6.5897,6.5897,6.5897,6.5897,6.5897,6.5897,6.5897,6.5897,6.5897,6.5897,6.5897,6.5897,6.5897,6.5897,6.5897,6.5897,6.5897,6.5897,6.5897,6.5897,6.5897,6.5897,6.5897,6.5897,6.5897,6.5897,6.5897,6.5897,6.5897,6.5897,6.5897,6.5897,6.5897,6.5897,6.5897,6.5897,6.5897,6.5897,6.5897,6.5897,6.5897,6.5897,6.6157,6.6307,6.6287,6.6627,6.6795,6.6795,6.6795,6.6795,6.6795,6.6795,6.6795,6.6854,6.7791,6.8669,6.9469,7.0426,7.1285,7.2007,7.2007,7.2007,7.2007,7.2007,7.2007,7.2007,6.6894,6.6853,6.6828,6.6806,6.68,6.6801,6.6806,6.6627,6.647,6.6419,6.625,6.6108,6.5963,6.5924,6.5839,6.569,6.5761,6.582,6.5872,6.5897,6.5897,6.5897,6.5897,6.5897,6.5897,6.5897,6.5897,6.5897,6.5897,6.5897,6.5897,6.5897,6.5897,6.5897,6.5897,6.5897,6.5897,6.5897,6.5897,6.5897,6.5897,6.5897,6.5897,6.5897,6.5897,6.5897,6.5897,6.5897,6.5897,6.5897,6.5897,6.5897,6.5897,6.5897,6.5897,6.5897,6.5897,6.5897,6.5897,6.5897,6.5897,6.5897,6.5897,6.5897,6.5897,6.5897,6.5897,6.5897,6.5897,6.5897,6.5897,6.5897,6.5897,6.5897,6.5897,6.5897,6.5897,6.5897,6.5897,6.5897,6.5897,6.5897,6.5897,6.5897,6.5897,6.5897,6.5897,6.5897,6.5897,6.5897,6.5872,6.582,6.6138,6.6279,6.6228,6.6618,6.6795,6.6795,6.6795,6.6795,6.6795,6.6795,6.6795,6.6893,6.8435,6.9235,6.9528,7.107,7.1831,7.2007,7.2007,7.2007,7.2007,7.2007,7.2007,7.2007,6.6853,6.6829,6.68,6.68,6.6808,6.6795,6.6755,6.6549,6.6361,6.6278,6.6049,6.5847,6.5684,6.5657,6.563,6.5566,6.5688,6.5807,6.5846,6.5885,6.5897,6.5897,6.5897,6.5897,6.5897,6.5897,6.5897,6.5897,6.5897,6.5897,6.5897,6.5897,6.5897,6.5897,6.5897,6.5897,6.5897,6.5897,6.5897,6.5897,6.5897,6.5897,6.5897,6.5897,6.5897,6.5897,6.5897,6.5897,6.5897,6.5897,6.5897,6.5897,6.5897,6.5897,6.5897,6.5897,6.5897,6.5897,6.5897,6.5897,6.5897,6.5897,6.5897,6.5897,6.5897,6.5897,6.5897,6.5897,6.5897,6.5897,6.5897,6.5897,6.5897,6.5897,6.5897,6.5897,6.5897,6.5897,6.5897,6.5897,6.5897,6.5897,6.5897,6.5897,6.5897,6.5897,6.5897,6.5897,6.5897,6.5872,6.5833,6.5793,6.6005,6.6145,6.6193,6.6496,6.672,6.6795,6.6795,6.6795,6.6795,6.6795,6.6795,6.6893,6.863,6.9391,6.9547,7.1285,7.2007,7.2007,7.2007,7.2007,7.2007,7.2007,7.2007,7.2007,6.6807,6.6802,6.6807,6.6794,6.6795,6.6755,6.6652,6.6489,6.6267,6.6058,6.5823,6.5586,6.5425,6.5425,6.5469,6.5542,6.572,6.5807,6.5807,6.5872,6.5897,6.5897,6.5897,6.5897,6.5897,6.5897,6.5897,6.5897,6.5897,6.5897,6.5897,6.5897,6.5897,6.5897,6.5897,6.5897,6.5897,6.5897,6.5897,6.5897,6.5897,6.5897,6.5897,6.5897,6.5897,6.5897,6.5897,6.5897,6.5897,6.5897,6.5897,6.5897,6.5897,6.5897,6.5897,6.5897,6.5897,6.5897,6.5897,6.5897,6.5897,6.5897,6.5897,6.5897,6.5897,6.5897,6.5897,6.5897,6.5897,6.5897,6.5897,6.5897,6.5897,6.5897,6.5897,6.5897,6.5897,6.5897,6.5897,6.5897,6.5897,6.5897,6.5897,6.5897,6.5897,6.5897,6.5897,6.5897,6.5885,6.582,6.578,6.5753,6.5878,6.6031,6.6184,6.6438,6.6622,6.6795,6.6795,6.6795,6.6795,6.6795,6.6795,6.6893,6.863,6.9391,6.9547,7.1285,7.2007,7.2007,7.2007,7.2007,7.2007,7.2007,7.2007,7.2007,6.6806,6.6798,6.6794,6.6806,6.675,6.6647,6.6463,6.6278,6.6047,6.5792,6.5578,6.542,6.5394,6.5494,6.5627,6.5753,6.5846,6.5885,6.5885,6.5897,6.5897,6.5897,6.5897,6.5897,6.5897,6.5897,6.5897,6.5897,6.5897,6.5897,6.5897,6.5897,6.5897,6.5897,6.5897,6.5897,6.5897,6.5897,6.5897,6.5897,6.5897,6.5897,6.5897,6.5897,6.5897,6.5897,6.5897,6.5897,6.5897,6.5897,6.5897,6.5897,6.5897,6.5897,6.5897,6.5897,6.5897,6.5897,6.5897,6.5897,6.5897,6.5897,6.5897,6.5897,6.5897,6.5897,6.5897,6.5897,6.5897,6.5897,6.5897,6.5897,6.5897,6.5897,6.5897,6.5897,6.5897,6.5897,6.5897,6.5897,6.5897,6.5897,6.5897,6.5897,6.5897,6.5897,6.5897,6.5872,6.5807,6.5793,6.572,6.5556,6.5949,6.6151,6.6114,6.6547,6.6768,6.6795,6.6795,6.6795,6.6795,6.6795,6.6795,6.6893,6.863,6.9391,6.9547,7.1285,7.2007,7.2007,7.2007,7.2007,7.2007,7.2007,7.2007,7.2007,6.6795,6.6805,6.6795,6.675,6.6635,6.651,6.64,6.6099,6.5839,6.5718,6.5508,6.5394,6.5394,6.5509,6.5608,6.5688,6.5814,6.5897,6.5897,6.5897,6.5897,6.5897,6.5897,6.5897,6.5897,6.5897,6.5897,6.5897,6.5897,6.5897,6.5897,6.5897,6.5897,6.5897,6.5897,6.5897,6.5897,6.5897,6.5897,6.5897,6.5897,6.5897,6.5897,6.5897,6.5897,6.5897,6.5897,6.5897,6.5897,6.5897,6.5897,6.5897,6.5897,6.5897,6.5897,6.5897,6.5897,6.5897,6.5897,6.5897,6.5897,6.5897,6.5897,6.5897,6.5897,6.5897,6.5897,6.5897,6.5897,6.5897,6.5897,6.5897,6.5897,6.5897,6.5897,6.5897,6.5897,6.5897,6.5897,6.5897,6.5897,6.5897,6.5897,6.5897,6.5897,6.5897,6.5859,6.5833,6.5793,6.5693,6.5585,6.5494,6.582,6.6032,6.6105,6.6449,6.6693,6.6795,6.6795,6.6795,6.6795,6.6795,6.6795,6.6893,6.863,6.9391,6.9547,7.1285,7.2007,7.2007,7.2007,7.2007,7.2007,7.2007,7.2007,7.2007]}]]